Darstellungsparameter: Aktuell verwendete Einstellungen:
Skalierung der Graphiken ... ?
xyx+y,   Skalierungsfaktor:      Skalierung: Modus: x, Faktor: 1
Darstellungszeitraum ... ?
Vom - - bis: - -   Zeitraum: 28.03.2020 - 03.04.2020
Min/Max/Avg-Anzeige ... ?
Zeige MMA aktuell
Zeige MMA Monat
Zeige MMA alles
Zeige --A aktuell
Zeige --A Monat
Zeige --A alles
Keine MMA-Anzeige
MMA:
Average (ber die Originaldaten)
MMA-Basis: 28.03.2020 - 03.04.2020
Quicknavigation für Darstellung... ?
Tage:      1T, 2T, 3T, 5T -1T -2T -3T -5T +1T +2T +3T +5T
Wochen: 1W, 2W, 3W -1W -2W -3W +1W +2W +3W
Monate: 1M, 3M, 6M -1M -3M -6M +1M +3M +6M
Jahre:    1J, 3J, 5J, 10J -1J -3J -5J -10J +1J +3J +5J +10J
Nutze für die Darstellung ... ?
Originaldaten oder Mittelwerte auf ...
Stundenbasis Tagesbasis Wochenbasis
Monatsbasis Jahresbasis      Datenbasis: Original-Daten
Darstellen als:
Statistik (Auto) Statistik J:M      Darstellung:
Zur Graphik,    zurück zur Übersicht aller Sensoren.
 
Tabellarische Datenbersicht: ?
 
Sensor: Nr:Datum:Temp:Abs-Feuchte:Windchill:Wind:
Aussen-T/F 1 28-03-2020 00:00:00 5.8 C 5.8 g/m*3 5.8 C 0 km/h
2 28-03-2020 00:05:00 5.7 C 5.84 g/m*3 5.7 C 0 km/h
3 28-03-2020 00:10:00 5.7 C 5.84 g/m*3 5.7 C 0 km/h
4 28-03-2020 00:15:00 5.6 C 5.8 g/m*3 5.6 C 0 km/h
5 28-03-2020 00:20:00 5.6 C 5.87 g/m*3 5.6 C 0 km/h
6 28-03-2020 00:25:00 5.6 C 5.87 g/m*3 5.6 C 0 km/h
7 28-03-2020 00:30:00 5.6 C 5.87 g/m*3 5.6 C 0 km/h
8 28-03-2020 00:35:00 5.7 C 5.91 g/m*3 5.7 C 0 km/h
9 28-03-2020 00:40:00 5.7 C 5.84 g/m*3 5.7 C 0 km/h
10 28-03-2020 00:45:00 5.7 C 5.84 g/m*3 5.7 C 0 km/h
11 28-03-2020 00:50:00 5.7 C 5.84 g/m*3 5.7 C 0 km/h
12 28-03-2020 00:55:00 5.6 C 5.8 g/m*3 5.6 C 0 km/h
13 28-03-2020 01:00:00 5.6 C 5.8 g/m*3 5.6 C 0 km/h
14 28-03-2020 01:05:00 5.4 C 5.72 g/m*3 5.4 C 0 km/h
15 28-03-2020 01:10:00 5.4 C 5.79 g/m*3 5.4 C 0 km/h
16 28-03-2020 01:15:00 5.3 C 5.75 g/m*3 5.3 C 0 km/h
17 28-03-2020 01:20:00 5.2 C 5.71 g/m*3 5.2 C 0 km/h
18 28-03-2020 01:25:00 5.1 C 5.68 g/m*3 5.1 C 0 km/h
19 28-03-2020 01:30:00 5 C 5.71 g/m*3 5 C 0 km/h
20 28-03-2020 01:35:00 4.9 C 5.67 g/m*3 4.9 C 0 km/h
21 28-03-2020 01:40:00 4.8 C 5.63 g/m*3 4.8 C 0 km/h
22 28-03-2020 01:45:00 4.8 C 5.63 g/m*3 4.8 C 0 km/h
23 28-03-2020 01:50:00 4.7 C 5.66 g/m*3 4.7 C 0 km/h
24 28-03-2020 01:55:00 4.7 C 5.66 g/m*3 4.7 C 0 km/h
25 28-03-2020 02:00:00 4.6 C 5.62 g/m*3 4.6 C 0 km/h
Sensor: Nr:Datum:Temp:Abs-Feuchte:Windchill:Wind:
Aussen-T/F 26 28-03-2020 02:05:00 4.5 C 5.59 g/m*3 4.5 C 0 km/h
27 28-03-2020 02:10:00 4.4 C 5.55 g/m*3 4.4 C 0 km/h
28 28-03-2020 02:15:00 4.3 C 5.51 g/m*3 4.3 C 0 km/h
29 28-03-2020 02:20:00 4.3 C 5.58 g/m*3 4.3 C 0 km/h
30 28-03-2020 02:25:00 4.3 C 5.58 g/m*3 4.3 C 0 km/h
31 28-03-2020 02:30:00 4.2 C 5.61 g/m*3 4.2 C 0 km/h
32 28-03-2020 02:35:00 4.3 C 5.64 g/m*3 4.3 C 0 km/h
33 28-03-2020 02:40:00 4.3 C 5.64 g/m*3 4.3 C 0 km/h
34 28-03-2020 02:45:00 4.3 C 5.64 g/m*3 4.3 C 0 km/h
35 28-03-2020 02:50:00 4.3 C 5.64 g/m*3 4.3 C 0 km/h
36 28-03-2020 02:55:00 4.3 C 5.58 g/m*3 4.3 C 0 km/h
37 28-03-2020 03:00:00 4.2 C 5.54 g/m*3 4.2 C 0 km/h
38 28-03-2020 03:05:00 4.2 C 5.61 g/m*3 4.2 C 0 km/h
39 28-03-2020 03:10:00 4.1 C 5.57 g/m*3 4.1 C 0 km/h
40 28-03-2020 03:15:00 4.1 C 5.57 g/m*3 4.1 C 0 km/h
41 28-03-2020 03:20:00 3.9 C 5.49 g/m*3 3.9 C 0 km/h
42 28-03-2020 03:25:00 3.9 C 5.49 g/m*3 3.9 C 0 km/h
43 28-03-2020 03:30:00 3.8 C 5.46 g/m*3 3.8 C 0 km/h
44 28-03-2020 03:35:00 3.7 C 5.42 g/m*3 3.7 C 0 km/h
45 28-03-2020 03:40:00 3.5 C 5.35 g/m*3 3.5 C 0 km/h
46 28-03-2020 03:45:00 3.3 C 5.28 g/m*3 3.3 C 0 km/h
47 28-03-2020 03:50:00 3.2 C 5.3 g/m*3 3.2 C 0 km/h
48 28-03-2020 03:55:00 3.1 C 5.27 g/m*3 3.1 C 0 km/h
49 28-03-2020 04:00:00 3 C 5.23 g/m*3 3 C 0 km/h
50 28-03-2020 04:05:00 2.9 C 5.26 g/m*3 2.9 C 0 km/h
Sensor: Nr:Datum:Temp:Abs-Feuchte:Windchill:Wind:
Aussen-T/F 51 28-03-2020 04:10:00 3 C 5.29 g/m*3 3 C 0 km/h
52 28-03-2020 04:15:00 3 C 5.29 g/m*3 3 C 0 km/h
53 28-03-2020 04:20:00 2.9 C 5.26 g/m*3 2.9 C 0 km/h
54 28-03-2020 04:25:00 2.8 C 5.22 g/m*3 2.8 C 0 km/h
55 28-03-2020 04:30:00 2.7 C 5.19 g/m*3 2.7 C 0 km/h
56 28-03-2020 04:35:00 2.7 C 5.19 g/m*3 2.7 C 0 km/h
57 28-03-2020 04:40:00 2.6 C 5.21 g/m*3 2.6 C 0 km/h
58 28-03-2020 04:45:00 2.5 C 5.17 g/m*3 2.5 C 0 km/h
59 28-03-2020 04:50:00 2.6 C 5.21 g/m*3 2.6 C 0 km/h
60 28-03-2020 04:55:00 2.6 C 5.27 g/m*3 2.6 C 0 km/h
61 28-03-2020 05:00:00 2.7 C 5.3 g/m*3 2.7 C 0 km/h
62 28-03-2020 05:05:00 2.6 C 5.27 g/m*3 2.6 C 0 km/h
63 28-03-2020 05:10:00 2.6 C 5.27 g/m*3 2.6 C 0 km/h
64 28-03-2020 05:15:00 2.6 C 5.27 g/m*3 2.6 C 0 km/h
65 28-03-2020 05:20:00 2.4 C 5.14 g/m*3 2.4 C 0 km/h
66 28-03-2020 05:25:00 2.3 C 5.1 g/m*3 2.3 C 0 km/h
67 28-03-2020 05:30:00 2.2 C 5.07 g/m*3 2.2 C 0 km/h
68 28-03-2020 05:35:00 2.1 C 5.09 g/m*3 2.1 C 0 km/h
69 28-03-2020 05:40:00 2.1 C 5.09 g/m*3 2.1 C 0 km/h
70 28-03-2020 05:45:00 2 C 5.06 g/m*3 2 C 0 km/h
71 28-03-2020 05:50:00 2.1 C 5.09 g/m*3 2.1 C 0 km/h
72 28-03-2020 05:55:00 2.1 C 5.15 g/m*3 2.1 C 0 km/h
73 28-03-2020 06:00:00 2.1 C 5.15 g/m*3 2.1 C 0 km/h
74 28-03-2020 06:05:00 2 C 5.11 g/m*3 2 C 0 km/h
75 28-03-2020 06:10:00 1.9 C 5.02 g/m*3 1.9 C 0 km/h
Sensor: Nr:Datum:Temp:Abs-Feuchte:Windchill:Wind:
Aussen-T/F 76 28-03-2020 06:15:00 1.9 C 5.08 g/m*3 1.9 C 0 km/h
77 28-03-2020 06:20:00 1.9 C 5.08 g/m*3 1.9 C 0 km/h
78 28-03-2020 06:25:00 1.8 C 5.04 g/m*3 1.8 C 0 km/h
79 28-03-2020 06:30:00 1.8 C 5.04 g/m*3 1.8 C 0 km/h
80 28-03-2020 06:35:00 1.8 C 5.04 g/m*3 1.8 C 0 km/h
81 28-03-2020 06:40:00 1.8 C 5.04 g/m*3 1.8 C 0 km/h
82 28-03-2020 06:45:00 1.8 C 5.04 g/m*3 1.8 C 0 km/h
83 28-03-2020 06:50:00 1.8 C 5.04 g/m*3 1.8 C 0 km/h
84 28-03-2020 06:55:00 1.8 C 5.1 g/m*3 1.8 C 0 km/h
85 28-03-2020 07:00:00 1.9 C 5.13 g/m*3 1.9 C 0 km/h
86 28-03-2020 07:05:00 2 C 5.17 g/m*3 2 C 0 km/h
87 28-03-2020 07:10:00 2.1 C 5.2 g/m*3 2.1 C 0 km/h
88 28-03-2020 07:15:00 2.3 C 5.33 g/m*3 2.3 C 0 km/h
89 28-03-2020 07:20:00 2.4 C 5.31 g/m*3 2.4 C 0 km/h
90 28-03-2020 07:25:00 2.5 C 5.35 g/m*3 2.5 C 0 km/h
91 28-03-2020 07:30:00 2.6 C 5.38 g/m*3 2.6 C 0 km/h
92 28-03-2020 07:35:00 2.6 C 5.38 g/m*3 2.6 C 0 km/h
93 28-03-2020 07:40:00 2.6 C 5.38 g/m*3 2.6 C 0 km/h
94 28-03-2020 07:45:00 2.6 C 5.38 g/m*3 2.6 C 0 km/h
95 28-03-2020 07:50:00 2.7 C 5.42 g/m*3 2.7 C 0 km/h
96 28-03-2020 07:55:00 2.7 C 5.42 g/m*3 2.7 C 0 km/h
97 28-03-2020 08:00:00 2.8 C 5.46 g/m*3 2.8 C 0 km/h
98 28-03-2020 08:05:00 2.8 C 5.46 g/m*3 2.8 C 0 km/h
99 28-03-2020 08:10:00 2.9 C 5.49 g/m*3 2.9 C 0 km/h
100 28-03-2020 08:15:00 3 C 5.53 g/m*3 3 C 0 km/h
Sensor: Nr:Datum:Temp:Abs-Feuchte:Windchill:Wind:
Aussen-T/F 101 28-03-2020 08:20:00 3.2 C 5.6 g/m*3 3.2 C 0 km/h
102 28-03-2020 08:25:00 3.3 C 5.64 g/m*3 3.3 C 0 km/h
103 28-03-2020 08:30:00 3.4 C 5.68 g/m*3 3.4 C 0 km/h
104 28-03-2020 08:35:00 3.6 C 5.76 g/m*3 3.6 C 0 km/h
105 28-03-2020 08:40:00 3.7 C 5.8 g/m*3 3.7 C 0 km/h
106 28-03-2020 08:45:00 3.9 C 5.87 g/m*3 3.9 C 0 km/h
107 28-03-2020 08:50:00 4.1 C 5.95 g/m*3 4.1 C 0 km/h
108 28-03-2020 08:55:00 4.2 C 5.99 g/m*3 4.2 C 0 km/h
109 28-03-2020 09:00:00 4.5 C 6.11 g/m*3 4.5 C 0 km/h
110 28-03-2020 09:05:00 4.7 C 6.19 g/m*3 4.7 C 0 km/h
111 28-03-2020 09:10:00 5 C 6.32 g/m*3 5 C 0 km/h
112 28-03-2020 09:15:00 5.3 C 6.45 g/m*3 5.3 C 0 km/h
113 28-03-2020 09:20:00 5.6 C 6.5 g/m*3 5.6 C 0 km/h
114 28-03-2020 09:25:00 5.8 C 6.59 g/m*3 5.8 C 0 km/h
115 28-03-2020 09:30:00 6.2 C 6.69 g/m*3 6.2 C 0 km/h
116 28-03-2020 09:35:00 6.4 C 6.71 g/m*3 6.4 C 0 km/h
117 28-03-2020 09:40:00 6.8 C 6.81 g/m*3 6.8 C 0 km/h
118 28-03-2020 09:45:00 7.1 C 6.86 g/m*3 7.1 C 0 km/h
119 28-03-2020 09:50:00 7.4 C 6.84 g/m*3 7.4 C 0 km/h
120 28-03-2020 09:55:00 7.8 C 6.94 g/m*3 7.8 C 0 km/h
121 28-03-2020 10:00:00 8.2 C 6.95 g/m*3 8.2 C 0 km/h
122 28-03-2020 10:05:00 8.6 C 6.96 g/m*3 8.6 C 0 km/h
123 28-03-2020 10:10:00 8.9 C 6.92 g/m*3 8.9 C 0 km/h
124 28-03-2020 10:15:00 9.2 C 6.97 g/m*3 9.2 C 0 km/h
125 28-03-2020 10:20:00 9.4 C 6.78 g/m*3 9.4 C 1.6 km/h
Sensor: Nr:Datum:Temp:Abs-Feuchte:Windchill:Wind:
Aussen-T/F 126 28-03-2020 10:25:00 9.8 C 6.87 g/m*3 9.8 C 0 km/h
127 28-03-2020 10:30:00 10.1 C 6.9 g/m*3 10.1 C 0 km/h
128 28-03-2020 10:35:00 10.3 C 6.9 g/m*3 10.3 C 0 km/h
129 28-03-2020 10:40:00 10.6 C 6.83 g/m*3 10.6 C 0 km/h
130 28-03-2020 10:45:00 10.8 C 6.82 g/m*3 10.8 C 1.6 km/h
131 28-03-2020 10:50:00 11.1 C 6.95 g/m*3 11.1 C 0 km/h
132 28-03-2020 10:55:00 11.3 C 7.04 g/m*3 11.3 C 1.6 km/h
133 28-03-2020 11:00:00 11.7 C 7.11 g/m*3 11.7 C 0 km/h
134 28-03-2020 11:05:00 12.1 C 7.08 g/m*3 12.1 C 1.6 km/h
135 28-03-2020 11:10:00 12.3 C 6.73 g/m*3 12.3 C 1.6 km/h
136 28-03-2020 11:15:00 12.7 C 7.12 g/m*3 12.7 C 1.6 km/h
137 28-03-2020 11:20:00 13.1 C 7.07 g/m*3 13.1 C 0 km/h
138 28-03-2020 11:25:00 13.3 C 6.93 g/m*3 13.3 C 3.2 km/h
139 28-03-2020 11:30:00 13.6 C 6.94 g/m*3 13.6 C 1.6 km/h
140 28-03-2020 11:35:00 13.8 C 6.91 g/m*3 13.8 C 1.6 km/h
141 28-03-2020 11:40:00 14.2 C 6.84 g/m*3 14.2 C 1.6 km/h
142 28-03-2020 11:45:00 14.4 C 6.92 g/m*3 14.4 C 1.6 km/h
143 28-03-2020 11:50:00 14.6 C 6.88 g/m*3 14.6 C 3.2 km/h
144 28-03-2020 11:55:00 14.8 C 6.71 g/m*3 14.8 C 1.6 km/h
145 28-03-2020 12:00:00 14.9 C 6.88 g/m*3 14.9 C 4.8 km/h
146 28-03-2020 12:05:00 15.2 C 6.75 g/m*3 15.2 C 3.2 km/h
147 28-03-2020 12:10:00 15.3 C 6.79 g/m*3 15.3 C 1.6 km/h
148 28-03-2020 12:15:00 15.6 C 6.65 g/m*3 15.6 C 0 km/h
149 28-03-2020 12:20:00 15.8 C 6.6 g/m*3 15.8 C 3.2 km/h
150 28-03-2020 12:25:00 16.1 C 6.58 g/m*3 16.1 C 6.4 km/h
Sensor: Nr:Datum:Temp:Abs-Feuchte:Windchill:Wind:
Aussen-T/F 151 28-03-2020 12:30:00 16.2 C 6.62 g/m*3 16.2 C 6.4 km/h
152 28-03-2020 12:35:00 16.4 C 6.84 g/m*3 16.4 C 4.8 km/h
153 28-03-2020 12:40:00 16.5 C 6.88 g/m*3 16.5 C 4.8 km/h
154 28-03-2020 12:45:00 16.7 C 6.68 g/m*3 16.7 C 3.2 km/h
155 28-03-2020 12:50:00 16.8 C 6.72 g/m*3 16.8 C 3.2 km/h
156 28-03-2020 12:55:00 16.9 C 6.76 g/m*3 16.9 C 6.4 km/h
157 28-03-2020 13:00:00 17 C 6.51 g/m*3 17 C 8.1 km/h
158 28-03-2020 13:05:00 17.2 C 6.44 g/m*3 17.2 C 6.4 km/h
159 28-03-2020 13:10:00 17.2 C 6.3 g/m*3 17.2 C 9.7 km/h
160 28-03-2020 13:15:00 17.3 C 6.63 g/m*3 17.3 C 6.4 km/h
161 28-03-2020 13:20:00 17.5 C 6.56 g/m*3 17.5 C 3.2 km/h
162 28-03-2020 13:25:00 17.7 C 6.49 g/m*3 17.7 C 3.2 km/h
163 28-03-2020 13:30:00 17.8 C 6.68 g/m*3 17.8 C 6.4 km/h
164 28-03-2020 13:35:00 17.9 C 6.57 g/m*3 17.9 C 8.1 km/h
165 28-03-2020 13:40:00 18 C 6.6 g/m*3 18 C 12.9 km/h
166 28-03-2020 13:45:00 18.1 C 6.64 g/m*3 18.1 C 12.9 km/h
167 28-03-2020 13:50:00 18.2 C 6.84 g/m*3 18.2 C 17.7 km/h
168 28-03-2020 13:55:00 18.1 C 6.8 g/m*3 18.1 C 17.7 km/h
169 28-03-2020 14:00:00 18.1 C 6.8 g/m*3 18.1 C 9.7 km/h
170 28-03-2020 14:05:00 18.2 C 6.84 g/m*3 18.2 C 9.7 km/h
171 28-03-2020 14:10:00 18.2 C 6.53 g/m*3 18.2 C 12.9 km/h
172 28-03-2020 14:15:00 18.2 C 6.53 g/m*3 18.2 C 8.1 km/h
173 28-03-2020 14:20:00 18.2 C 6.68 g/m*3 18.2 C 14.5 km/h
174 28-03-2020 14:25:00 18.2 C 6.68 g/m*3 18.2 C 11.3 km/h
175 28-03-2020 14:30:00 18.2 C 6.68 g/m*3 18.2 C 9.7 km/h
Sensor: Nr:Datum:Temp:Abs-Feuchte:Windchill:Wind:
Aussen-T/F 176 28-03-2020 14:35:00 18.3 C 6.72 g/m*3 18.3 C 9.7 km/h
177 28-03-2020 14:40:00 18.3 C 6.57 g/m*3 18.3 C 11.3 km/h
178 28-03-2020 14:45:00 18.3 C 6.72 g/m*3 18.3 C 11.3 km/h
179 28-03-2020 14:50:00 18.4 C 6.45 g/m*3 18.4 C 11.3 km/h
180 28-03-2020 14:55:00 18.4 C 6.45 g/m*3 18.4 C 11.3 km/h
181 28-03-2020 15:00:00 18.4 C 6.29 g/m*3 18.4 C 12.9 km/h
182 28-03-2020 15:05:00 18.6 C 6.21 g/m*3 18.6 C 14.5 km/h
183 28-03-2020 15:10:00 18.5 C 5.85 g/m*3 18.5 C 9.7 km/h
184 28-03-2020 15:15:00 18.4 C 5.82 g/m*3 18.4 C 8.1 km/h
185 28-03-2020 15:20:00 18.2 C 6.22 g/m*3 18.2 C 11.3 km/h
186 28-03-2020 15:25:00 18 C 6.45 g/m*3 18 C 14.5 km/h
187 28-03-2020 15:30:00 18.1 C 6.18 g/m*3 18.1 C 12.9 km/h
188 28-03-2020 15:35:00 18.1 C 6.49 g/m*3 18.1 C 16.1 km/h
189 28-03-2020 15:40:00 18.3 C 6.57 g/m*3 18.3 C 16.1 km/h
190 28-03-2020 15:45:00 18.5 C 6.33 g/m*3 18.5 C 12.9 km/h
191 28-03-2020 15:50:00 18.4 C 6.45 g/m*3 18.4 C 16.1 km/h
192 28-03-2020 15:55:00 18.4 C 6.61 g/m*3 18.4 C 20.9 km/h
193 28-03-2020 16:00:00 18.3 C 6.41 g/m*3 18.3 C 20.9 km/h
194 28-03-2020 16:05:00 18.2 C 6.37 g/m*3 18.2 C 14.5 km/h
195 28-03-2020 16:10:00 18.3 C 6.25 g/m*3 18.3 C 12.9 km/h
196 28-03-2020 16:15:00 18.4 C 6.29 g/m*3 18.4 C 12.9 km/h
197 28-03-2020 16:20:00 18.3 C 6.1 g/m*3 18.3 C 22.5 km/h
198 28-03-2020 16:25:00 18.2 C 5.91 g/m*3 18.2 C 22.5 km/h
199 28-03-2020 16:30:00 18.1 C 5.87 g/m*3 18.1 C 19.3 km/h
200 28-03-2020 16:35:00 17.9 C 5.65 g/m*3 17.9 C 22.5 km/h
Sensor: Nr:Datum:Temp:Abs-Feuchte:Windchill:Wind:
Aussen-T/F 201 28-03-2020 16:40:00 17.8 C 5.77 g/m*3 17.8 C 14.5 km/h
202 28-03-2020 16:45:00 17.8 C 5.46 g/m*3 17.8 C 14.5 km/h
203 28-03-2020 16:50:00 17.7 C 5.43 g/m*3 17.7 C 17.7 km/h
204 28-03-2020 16:55:00 17.6 C 5.4 g/m*3 17.6 C 14.5 km/h
205 28-03-2020 17:00:00 17.6 C 5.4 g/m*3 17.6 C 20.9 km/h
206 28-03-2020 17:05:00 17.5 C 5.22 g/m*3 17.5 C 16.1 km/h
207 28-03-2020 17:10:00 17.4 C 5.19 g/m*3 17.4 C 19.3 km/h
208 28-03-2020 17:15:00 17.3 C 5.16 g/m*3 17.3 C 22.5 km/h
209 28-03-2020 17:20:00 17 C 5.06 g/m*3 17 C 16.1 km/h
210 28-03-2020 17:25:00 16.9 C 5.03 g/m*3 16.9 C 14.5 km/h
211 28-03-2020 17:30:00 16.8 C 5 g/m*3 16.8 C 14.5 km/h
212 28-03-2020 17:35:00 16.6 C 4.94 g/m*3 16.6 C 22.5 km/h
213 28-03-2020 17:40:00 16.4 C 4.89 g/m*3 16.4 C 11.3 km/h
214 28-03-2020 17:45:00 16.3 C 4.99 g/m*3 16.3 C 11.3 km/h
215 28-03-2020 17:50:00 16.2 C 4.96 g/m*3 16.2 C 11.3 km/h
216 28-03-2020 17:55:00 15.9 C 4.74 g/m*3 15.9 C 16.1 km/h
217 28-03-2020 18:00:00 15.7 C 4.82 g/m*3 15.7 C 14.5 km/h
218 28-03-2020 18:05:00 15.5 C 4.89 g/m*3 15.5 C 11.3 km/h
219 28-03-2020 18:10:00 15.3 C 4.7 g/m*3 15.3 C 14.5 km/h
220 28-03-2020 18:15:00 15.1 C 4.9 g/m*3 15.1 C 14.5 km/h
221 28-03-2020 18:20:00 14.9 C 4.97 g/m*3 14.9 C 11.3 km/h
222 28-03-2020 18:25:00 14.7 C 5.04 g/m*3 14.7 C 12.9 km/h
223 28-03-2020 18:30:00 14.4 C 5.07 g/m*3 14.4 C 6.4 km/h
224 28-03-2020 18:35:00 14.2 C 5.01 g/m*3 14.2 C 16.1 km/h
225 28-03-2020 18:40:00 13.9 C 5.04 g/m*3 13.9 C 8.1 km/h
Sensor: Nr:Datum:Temp:Abs-Feuchte:Windchill:Wind:
Aussen-T/F 226 28-03-2020 18:45:00 13.7 C 4.97 g/m*3 13.7 C 11.3 km/h
227 28-03-2020 18:50:00 13.6 C 5.06 g/m*3 13.6 C 14.5 km/h
228 28-03-2020 18:55:00 13.3 C 5.08 g/m*3 13.3 C 8.1 km/h
229 28-03-2020 19:00:00 13.2 C 5.05 g/m*3 13.2 C 14.5 km/h
230 28-03-2020 19:05:00 13 C 5.1 g/m*3 13 C 11.3 km/h
231 28-03-2020 19:10:00 12.8 C 5.15 g/m*3 12.8 C 9.7 km/h
232 28-03-2020 19:15:00 12.7 C 5.12 g/m*3 12.7 C 11.3 km/h
233 28-03-2020 19:20:00 12.5 C 5.06 g/m*3 12.5 C 12.9 km/h
234 28-03-2020 19:25:00 12.4 C 5.14 g/m*3 12.4 C 8.1 km/h
235 28-03-2020 19:30:00 12.2 C 5.07 g/m*3 12.2 C 8.1 km/h
236 28-03-2020 19:35:00 12.1 C 5.15 g/m*3 12.1 C 12.9 km/h
237 28-03-2020 19:40:00 12 C 5.01 g/m*3 12 C 11.3 km/h
238 28-03-2020 19:45:00 11.9 C 4.98 g/m*3 11.9 C 14.5 km/h
239 28-03-2020 19:50:00 11.8 C 5.05 g/m*3 11.8 C 6.4 km/h
240 28-03-2020 19:55:00 11.7 C 5.02 g/m*3 11.7 C 8.1 km/h
241 28-03-2020 20:00:00 11.6 C 5.09 g/m*3 11.6 C 11.3 km/h
242 28-03-2020 20:05:00 11.4 C 5.03 g/m*3 11.4 C 4.8 km/h
243 28-03-2020 20:10:00 11.4 C 5.03 g/m*3 11.4 C 6.4 km/h
244 28-03-2020 20:15:00 11.3 C 5.1 g/m*3 11.3 C 6.4 km/h
245 28-03-2020 20:20:00 11.2 C 5.07 g/m*3 11.2 C 11.3 km/h
246 28-03-2020 20:25:00 11.2 C 5.17 g/m*3 11.2 C 4.8 km/h
247 28-03-2020 20:30:00 11.1 C 5.14 g/m*3 11.1 C 9.7 km/h
248 28-03-2020 20:35:00 10.9 C 5.17 g/m*3 10.9 C 4.8 km/h
249 28-03-2020 20:40:00 10.7 C 5.21 g/m*3 10.7 C 4.8 km/h
250 28-03-2020 20:45:00 10.4 C 5.2 g/m*3 10.4 C 1.6 km/h
Sensor: Nr:Datum:Temp:Abs-Feuchte:Windchill:Wind:
Aussen-T/F 251 28-03-2020 20:50:00 10.2 C 5.23 g/m*3 10.2 C 3.2 km/h
252 28-03-2020 20:55:00 9.9 C 5.23 g/m*3 9.25 C 6.4 km/h
253 28-03-2020 21:00:00 9.8 C 5.29 g/m*3 9.8 C 1.6 km/h
254 28-03-2020 21:05:00 9.8 C 5.2 g/m*3 9.14 C 6.4 km/h
255 28-03-2020 21:10:00 9.8 C 5.29 g/m*3 9.8 C 1.6 km/h
256 28-03-2020 21:15:00 9.8 C 5.29 g/m*3 9.8 C 4.8 km/h
257 28-03-2020 21:20:00 9.8 C 5.38 g/m*3 9.8 C 1.6 km/h
258 28-03-2020 21:25:00 9.6 C 5.31 g/m*3 9.6 C 0 km/h
259 28-03-2020 21:30:00 9.3 C 5.21 g/m*3 9.3 C 3.2 km/h
260 28-03-2020 21:35:00 9.2 C 5.27 g/m*3 9.2 C 3.2 km/h
261 28-03-2020 21:40:00 9.2 C 5.27 g/m*3 9.2 C 3.2 km/h
262 28-03-2020 21:45:00 9.1 C 5.32 g/m*3 7.93 C 8.1 km/h
263 28-03-2020 21:50:00 8.8 C 5.22 g/m*3 8.8 C 1.6 km/h
264 28-03-2020 21:55:00 8.7 C 5.19 g/m*3 7.87 C 6.4 km/h
265 28-03-2020 22:00:00 8.9 C 5.26 g/m*3 7.69 C 8.1 km/h
266 28-03-2020 22:05:00 9.1 C 5.23 g/m*3 7.93 C 8.1 km/h
267 28-03-2020 22:10:00 9.2 C 5.18 g/m*3 7.46 C 11.3 km/h
268 28-03-2020 22:15:00 9.2 C 5.27 g/m*3 8.45 C 6.4 km/h
269 28-03-2020 22:20:00 9.3 C 5.3 g/m*3 7.85 C 9.7 km/h
270 28-03-2020 22:25:00 9.2 C 5.45 g/m*3 7.73 C 9.7 km/h
271 28-03-2020 22:30:00 9.2 C 5.63 g/m*3 6.99 C 14.5 km/h
272 28-03-2020 22:35:00 9.1 C 5.59 g/m*3 6.87 C 14.5 km/h
273 28-03-2020 22:40:00 9 C 5.55 g/m*3 7.49 C 9.7 km/h
274 28-03-2020 22:45:00 8.9 C 5.61 g/m*3 8.1 C 6.4 km/h
275 28-03-2020 22:50:00 8.7 C 5.62 g/m*3 8.7 C 4.8 km/h
Sensor: Nr:Datum:Temp:Abs-Feuchte:Windchill:Wind:
Aussen-T/F 276 28-03-2020 22:55:00 8.6 C 5.67 g/m*3 7.75 C 6.4 km/h
277 28-03-2020 23:00:00 8.4 C 5.68 g/m*3 7.11 C 8.1 km/h
278 28-03-2020 23:05:00 8.4 C 5.77 g/m*3 6.01 C 14.5 km/h
279 28-03-2020 23:10:00 8.3 C 5.73 g/m*3 6.99 C 8.1 km/h
280 28-03-2020 23:15:00 8.3 C 5.82 g/m*3 8.3 C 4.8 km/h
281 28-03-2020 23:20:00 8.2 C 5.86 g/m*3 6.54 C 9.7 km/h
282 28-03-2020 23:25:00 8.1 C 5.91 g/m*3 5.87 C 12.9 km/h
283 28-03-2020 23:30:00 8.1 C 5.91 g/m*3 6.42 C 9.7 km/h
284 28-03-2020 23:35:00 7.9 C 5.83 g/m*3 5.39 C 14.5 km/h
285 28-03-2020 23:40:00 7.8 C 5.88 g/m*3 6.83 C 6.4 km/h
286 28-03-2020 23:45:00 7.7 C 5.84 g/m*3 5.38 C 12.9 km/h
287 28-03-2020 23:50:00 7.7 C 5.92 g/m*3 6.28 C 8.1 km/h
288 28-03-2020 23:55:00 7.6 C 5.88 g/m*3 5.53 C 11.3 km/h
289 29-03-2020 00:00:00 7.4 C 5.81 g/m*3 5.58 C 9.7 km/h
290 29-03-2020 00:05:00 7.3 C 5.85 g/m*3 7.3 C 4.8 km/h
291 29-03-2020 00:10:00 7.2 C 5.81 g/m*3 5.35 C 9.7 km/h
292 29-03-2020 00:15:00 7.2 C 5.81 g/m*3 5.69 C 8.1 km/h
293 29-03-2020 00:20:00 7.1 C 5.77 g/m*3 6.02 C 6.4 km/h
294 29-03-2020 00:25:00 7.1 C 5.77 g/m*3 5.23 C 9.7 km/h
295 29-03-2020 00:30:00 7.1 C 5.77 g/m*3 5.23 C 9.7 km/h
296 29-03-2020 00:35:00 7.1 C 5.77 g/m*3 3.98 C 17.7 km/h
297 29-03-2020 00:40:00 7.1 C 5.77 g/m*3 6.02 C 6.4 km/h
298 29-03-2020 00:45:00 7.1 C 5.77 g/m*3 4.92 C 11.3 km/h
299 29-03-2020 00:50:00 7 C 5.66 g/m*3 5.11 C 9.7 km/h
300 29-03-2020 00:55:00 7 C 5.66 g/m*3 4.8 C 11.3 km/h
Sensor: Nr:Datum:Temp:Abs-Feuchte:Windchill:Wind:
Aussen-T/F 301 29-03-2020 01:00:00 6.9 C 5.62 g/m*3 4.68 C 11.3 km/h
302 29-03-2020 01:05:00 6.8 C 5.58 g/m*3 3.82 C 16.1 km/h
303 29-03-2020 01:10:00 6.8 C 5.58 g/m*3 4.29 C 12.9 km/h
304 29-03-2020 01:15:00 6.7 C 5.55 g/m*3 3.69 C 16.1 km/h
305 29-03-2020 01:20:00 6.7 C 5.55 g/m*3 4.17 C 12.9 km/h
306 29-03-2020 01:25:00 6.6 C 5.44 g/m*3 3.36 C 17.7 km/h
307 29-03-2020 01:30:00 6.6 C 5.44 g/m*3 4.63 C 9.7 km/h
308 29-03-2020 01:35:00 6.5 C 5.4 g/m*3 4.2 C 11.3 km/h
309 29-03-2020 01:40:00 6.4 C 5.36 g/m*3 3.8 C 12.9 km/h
310 29-03-2020 01:45:00 6.4 C 5.29 g/m*3 3.11 C 17.7 km/h
311 29-03-2020 01:50:00 6.4 C 5.29 g/m*3 4.39 C 9.7 km/h
312 29-03-2020 01:55:00 6.3 C 5.18 g/m*3 3.96 C 11.3 km/h
313 29-03-2020 02:00:00 6.3 C 5.18 g/m*3 3.43 C 14.5 km/h
314 29-03-2020 02:05:00 6.2 C 5.15 g/m*3 2.86 C 17.7 km/h
315 29-03-2020 02:10:00 6.2 C 5.07 g/m*3 3.84 C 11.3 km/h
316 29-03-2020 02:15:00 6.1 C 5.11 g/m*3 3.43 C 12.9 km/h
317 29-03-2020 02:20:00 5.9 C 5.05 g/m*3 3.19 C 12.9 km/h
318 29-03-2020 02:25:00 5.8 C 5.01 g/m*3 2.16 C 19.3 km/h
319 29-03-2020 02:30:00 5.7 C 5.05 g/m*3 2.03 C 19.3 km/h
320 29-03-2020 02:35:00 5.6 C 5.02 g/m*3 2.57 C 14.5 km/h
321 29-03-2020 02:40:00 5.4 C 5.02 g/m*3 3.58 C 8.1 km/h
322 29-03-2020 02:45:00 5.3 C 4.99 g/m*3 3.46 C 8.1 km/h
323 29-03-2020 02:50:00 5.2 C 4.89 g/m*3 2.63 C 11.3 km/h
324 29-03-2020 02:55:00 5.2 C 4.82 g/m*3 2.07 C 14.5 km/h
325 29-03-2020 04:00:00 5.2 C 4.82 g/m*3 2.63 C 11.3 km/h
Sensor: Nr:Datum:Temp:Abs-Feuchte:Windchill:Wind:
Aussen-T/F 326 29-03-2020 04:05:00 5.1 C 4.79 g/m*3 2.51 C 11.3 km/h
327 29-03-2020 04:10:00 5 C 4.76 g/m*3 2.39 C 11.3 km/h
328 29-03-2020 04:15:00 4.9 C 4.66 g/m*3 1.97 C 12.9 km/h
329 29-03-2020 04:20:00 4.8 C 4.63 g/m*3 1.34 C 16.1 km/h
330 29-03-2020 04:25:00 4.8 C 4.63 g/m*3 2.49 C 9.7 km/h
331 29-03-2020 04:30:00 4.8 C 4.63 g/m*3 1.85 C 12.9 km/h
332 29-03-2020 04:35:00 4.8 C 4.69 g/m*3 1.58 C 14.5 km/h
333 29-03-2020 04:40:00 4.8 C 4.69 g/m*3 4.8 C 4.8 km/h
334 29-03-2020 04:45:00 4.8 C 4.69 g/m*3 4.8 C 3.2 km/h
335 29-03-2020 04:50:00 4.8 C 4.76 g/m*3 2.87 C 8.1 km/h
336 29-03-2020 04:55:00 4.8 C 4.76 g/m*3 3.36 C 6.4 km/h
337 29-03-2020 05:00:00 4.8 C 4.83 g/m*3 2.15 C 11.3 km/h
338 29-03-2020 05:05:00 4.8 C 4.83 g/m*3 2.49 C 9.7 km/h
339 29-03-2020 05:10:00 4.8 C 4.9 g/m*3 2.49 C 9.7 km/h
340 29-03-2020 05:15:00 4.8 C 4.83 g/m*3 1.34 C 16.1 km/h
341 29-03-2020 05:20:00 4.7 C 4.73 g/m*3 0.99 C 17.7 km/h
342 29-03-2020 05:25:00 4.7 C 4.73 g/m*3 0.99 C 17.7 km/h
343 29-03-2020 05:30:00 4.6 C 4.63 g/m*3 0.65 C 19.3 km/h
344 29-03-2020 05:35:00 4.5 C 4.6 g/m*3 1.79 C 11.3 km/h
345 29-03-2020 05:40:00 4.4 C 4.57 g/m*3 1.09 C 14.5 km/h
346 29-03-2020 05:45:00 4.3 C 4.48 g/m*3 0.97 C 14.5 km/h
347 29-03-2020 05:50:00 4.3 C 4.54 g/m*3 1.55 C 11.3 km/h
348 29-03-2020 05:55:00 4.2 C 4.51 g/m*3 2.17 C 8.1 km/h
349 29-03-2020 06:00:00 4.1 C 4.48 g/m*3 2.05 C 8.1 km/h
350 29-03-2020 06:05:00 4 C 4.45 g/m*3 1.93 C 8.1 km/h
Sensor: Nr:Datum:Temp:Abs-Feuchte:Windchill:Wind:
Aussen-T/F 351 29-03-2020 06:10:00 3.9 C 4.42 g/m*3 1.06 C 11.3 km/h
352 29-03-2020 06:15:00 3.8 C 4.39 g/m*3 3.8 C 4.8 km/h
353 29-03-2020 06:20:00 3.8 C 4.45 g/m*3 3.8 C 4.8 km/h
354 29-03-2020 06:25:00 3.7 C 4.42 g/m*3 3.7 C 3.2 km/h
355 29-03-2020 06:30:00 3.7 C 4.49 g/m*3 3.7 C 1.6 km/h
356 29-03-2020 06:35:00 3.7 C 4.49 g/m*3 3.7 C 4.8 km/h
357 29-03-2020 06:40:00 3.7 C 4.55 g/m*3 3.7 C 1.6 km/h
358 29-03-2020 06:45:00 3.7 C 4.55 g/m*3 2.09 C 6.4 km/h
359 29-03-2020 06:50:00 3.7 C 4.61 g/m*3 3.7 C 3.2 km/h
360 29-03-2020 06:55:00 3.8 C 4.71 g/m*3 1.29 C 9.7 km/h
361 29-03-2020 07:00:00 3.8 C 4.71 g/m*3 2.21 C 6.4 km/h
362 29-03-2020 07:05:00 3.9 C 4.8 g/m*3 1.06 C 11.3 km/h
363 29-03-2020 07:10:00 3.9 C 4.8 g/m*3 1.82 C 8.1 km/h
364 29-03-2020 07:15:00 4 C 4.9 g/m*3 2.44 C 6.4 km/h
365 29-03-2020 07:20:00 4 C 4.9 g/m*3 2.44 C 6.4 km/h
366 29-03-2020 07:25:00 4 C 4.9 g/m*3 2.44 C 6.4 km/h
367 29-03-2020 07:30:00 4.1 C 4.93 g/m*3 1.31 C 11.3 km/h
368 29-03-2020 07:35:00 4.1 C 4.93 g/m*3 1.65 C 9.7 km/h
369 29-03-2020 07:40:00 4.1 C 4.93 g/m*3 1.31 C 11.3 km/h
370 29-03-2020 07:45:00 4.2 C 4.96 g/m*3 1.43 C 11.3 km/h
371 29-03-2020 07:50:00 4.2 C 4.96 g/m*3 1.77 C 9.7 km/h
372 29-03-2020 07:55:00 4.2 C 4.96 g/m*3 1.77 C 9.7 km/h
373 29-03-2020 08:00:00 4.2 C 4.96 g/m*3 1.12 C 12.9 km/h
374 29-03-2020 08:05:00 4.2 C 4.96 g/m*3 1.43 C 11.3 km/h
375 29-03-2020 08:10:00 4.2 C 4.96 g/m*3 2.17 C 8.1 km/h
Sensor: Nr:Datum:Temp:Abs-Feuchte:Windchill:Wind:
Aussen-T/F 376 29-03-2020 08:15:00 4.3 C 4.99 g/m*3 2.78 C 6.4 km/h
377 29-03-2020 08:20:00 4.3 C 4.99 g/m*3 1.89 C 9.7 km/h
378 29-03-2020 08:25:00 4.3 C 4.99 g/m*3 1.24 C 12.9 km/h
379 29-03-2020 08:30:00 4.4 C 4.96 g/m*3 1.67 C 11.3 km/h
380 29-03-2020 08:35:00 4.4 C 4.96 g/m*3 1.67 C 11.3 km/h
381 29-03-2020 08:40:00 4.5 C 5 g/m*3 1.21 C 14.5 km/h
382 29-03-2020 08:45:00 4.6 C 4.96 g/m*3 1.61 C 12.9 km/h
383 29-03-2020 08:50:00 4.5 C 4.93 g/m*3 0.74 C 17.7 km/h
384 29-03-2020 08:55:00 4.5 C 4.93 g/m*3 1.21 C 14.5 km/h
385 29-03-2020 09:00:00 4.5 C 5 g/m*3 0.96 C 16.1 km/h
386 29-03-2020 09:05:00 4.5 C 4.93 g/m*3 0.96 C 16.1 km/h
387 29-03-2020 09:10:00 4.5 C 4.93 g/m*3 0.96 C 16.1 km/h
388 29-03-2020 09:15:00 4.5 C 4.93 g/m*3 0.74 C 17.7 km/h
389 29-03-2020 09:20:00 4.5 C 4.93 g/m*3 0.96 C 16.1 km/h
390 29-03-2020 09:25:00 4.5 C 4.93 g/m*3 1.48 C 12.9 km/h
391 29-03-2020 09:30:00 4.6 C 4.96 g/m*3 0.86 C 17.7 km/h
392 29-03-2020 09:35:00 4.7 C 5 g/m*3 2.37 C 9.7 km/h
393 29-03-2020 09:40:00 4.7 C 4.93 g/m*3 2.03 C 11.3 km/h
394 29-03-2020 09:45:00 4.8 C 4.96 g/m*3 1.58 C 14.5 km/h
395 29-03-2020 09:50:00 4.9 C 4.93 g/m*3 1.46 C 16.1 km/h
396 29-03-2020 09:55:00 5 C 4.96 g/m*3 1.83 C 14.5 km/h
397 29-03-2020 10:00:00 5.1 C 4.99 g/m*3 1.28 C 19.3 km/h
398 29-03-2020 10:05:00 5.2 C 5.03 g/m*3 2.34 C 12.9 km/h
399 29-03-2020 10:10:00 5.3 C 4.99 g/m*3 1.74 C 17.7 km/h
400 29-03-2020 10:15:00 5.3 C 4.99 g/m*3 1.53 C 19.3 km/h
Sensor: Nr:Datum:Temp:Abs-Feuchte:Windchill:Wind:
Aussen-T/F 401 29-03-2020 10:20:00 5.4 C 4.95 g/m*3 1.66 C 19.3 km/h
402 29-03-2020 10:25:00 5.6 C 4.95 g/m*3 1.91 C 19.3 km/h
403 29-03-2020 10:30:00 5.6 C 4.95 g/m*3 2.33 C 16.1 km/h
404 29-03-2020 10:35:00 5.8 C 4.94 g/m*3 2.58 C 16.1 km/h
405 29-03-2020 10:40:00 6 C 5.01 g/m*3 2.61 C 17.7 km/h
406 29-03-2020 10:45:00 6.1 C 4.82 g/m*3 2.18 C 22.5 km/h
407 29-03-2020 10:50:00 6.1 C 4.75 g/m*3 2.18 C 22.5 km/h
408 29-03-2020 10:55:00 6.2 C 4.85 g/m*3 3.07 C 16.1 km/h
409 29-03-2020 11:00:00 6.4 C 4.62 g/m*3 2.91 C 19.3 km/h
410 29-03-2020 11:05:00 6.5 C 4.57 g/m*3 3.23 C 17.7 km/h
411 29-03-2020 11:10:00 6.6 C 4.53 g/m*3 2.82 C 22.5 km/h
412 29-03-2020 11:15:00 6.5 C 4.57 g/m*3 3.04 C 19.3 km/h
413 29-03-2020 11:20:00 6.4 C 4.55 g/m*3 1.58 C 33.8 km/h
414 29-03-2020 11:25:00 6.4 C 4.47 g/m*3 1.58 C 33.8 km/h
415 29-03-2020 11:30:00 6.3 C 4.44 g/m*3 2.27 C 24.1 km/h
416 29-03-2020 11:35:00 6.4 C 4.55 g/m*3 2.91 C 19.3 km/h
417 29-03-2020 11:40:00 6.4 C 4.55 g/m*3 2.91 C 19.3 km/h
418 29-03-2020 11:45:00 6.5 C 4.57 g/m*3 3.44 C 16.1 km/h
419 29-03-2020 11:50:00 6.4 C 4.62 g/m*3 3.11 C 17.7 km/h
420 29-03-2020 11:55:00 6.5 C 4.65 g/m*3 3.23 C 17.7 km/h
421 29-03-2020 12:00:00 6.4 C 4.55 g/m*3 3.11 C 17.7 km/h
422 29-03-2020 12:05:00 6.3 C 4.74 g/m*3 2.79 C 19.3 km/h
423 29-03-2020 12:10:00 6.1 C 4.82 g/m*3 2.18 C 22.5 km/h
424 29-03-2020 12:15:00 5.9 C 4.69 g/m*3 1.76 C 24.1 km/h
425 29-03-2020 12:20:00 5.9 C 4.69 g/m*3 1.61 C 25.7 km/h
Sensor: Nr:Datum:Temp:Abs-Feuchte:Windchill:Wind:
Aussen-T/F 426 29-03-2020 12:25:00 5.9 C 4.76 g/m*3 1.76 C 24.1 km/h
427 29-03-2020 12:30:00 5.9 C 4.69 g/m*3 2.48 C 17.7 km/h
428 29-03-2020 12:35:00 5.9 C 4.76 g/m*3 2.48 C 17.7 km/h
429 29-03-2020 12:40:00 5.9 C 4.69 g/m*3 2.93 C 14.5 km/h
430 29-03-2020 12:45:00 6 C 4.72 g/m*3 3.31 C 12.9 km/h
431 29-03-2020 12:50:00 6.1 C 4.68 g/m*3 2.95 C 16.1 km/h
432 29-03-2020 12:55:00 6.2 C 4.63 g/m*3 2.31 C 22.5 km/h
433 29-03-2020 13:00:00 6.3 C 4.59 g/m*3 2.79 C 19.3 km/h
434 29-03-2020 13:05:00 6.3 C 4.52 g/m*3 2.79 C 19.3 km/h
435 29-03-2020 13:10:00 6.3 C 4.44 g/m*3 2.43 C 22.5 km/h
436 29-03-2020 13:15:00 6.3 C 4.37 g/m*3 2.12 C 25.7 km/h
437 29-03-2020 13:20:00 6.4 C 4.4 g/m*3 2.73 C 20.9 km/h
438 29-03-2020 13:25:00 6.5 C 4.35 g/m*3 2.86 C 20.9 km/h
439 29-03-2020 13:30:00 6.6 C 4.3 g/m*3 3.57 C 16.1 km/h
440 29-03-2020 13:35:00 6.7 C 4.26 g/m*3 3.48 C 17.7 km/h
441 29-03-2020 13:40:00 6.8 C 4.28 g/m*3 4.29 C 12.9 km/h
442 29-03-2020 13:45:00 7.1 C 4.21 g/m*3 4.65 C 12.9 km/h
443 29-03-2020 13:50:00 7.3 C 4.35 g/m*3 4.23 C 17.7 km/h
444 29-03-2020 13:55:00 7.6 C 4.27 g/m*3 5.02 C 14.5 km/h
445 29-03-2020 14:00:00 7.5 C 4.24 g/m*3 5.14 C 12.9 km/h
446 29-03-2020 14:05:00 7.3 C 4.19 g/m*3 4.44 C 16.1 km/h
447 29-03-2020 14:10:00 7.3 C 4.19 g/m*3 4.05 C 19.3 km/h
448 29-03-2020 14:15:00 7.3 C 4.19 g/m*3 4.05 C 19.3 km/h
449 29-03-2020 14:20:00 7.2 C 4.4 g/m*3 3.92 C 19.3 km/h
450 29-03-2020 14:25:00 6.8 C 4.44 g/m*3 3.24 C 20.9 km/h
Sensor: Nr:Datum:Temp:Abs-Feuchte:Windchill:Wind:
Aussen-T/F 451 29-03-2020 14:30:00 6.6 C 4.45 g/m*3 2.99 C 20.9 km/h
452 29-03-2020 14:35:00 6.6 C 4.45 g/m*3 3.79 C 14.5 km/h
453 29-03-2020 14:40:00 6.5 C 4.42 g/m*3 3.67 C 14.5 km/h
454 29-03-2020 14:45:00 6.5 C 4.42 g/m*3 3.23 C 17.7 km/h
455 29-03-2020 14:50:00 6.6 C 4.53 g/m*3 3.79 C 14.5 km/h
456 29-03-2020 14:55:00 6.6 C 4.53 g/m*3 2.82 C 22.5 km/h
457 29-03-2020 15:00:00 6.7 C 4.64 g/m*3 3.69 C 16.1 km/h
458 29-03-2020 15:05:00 6.8 C 4.67 g/m*3 3.42 C 19.3 km/h
459 29-03-2020 15:10:00 6.9 C 4.39 g/m*3 3.2 C 22.5 km/h
460 29-03-2020 15:15:00 6.9 C 4.31 g/m*3 3.73 C 17.7 km/h
461 29-03-2020 15:20:00 7 C 4.34 g/m*3 3.67 C 19.3 km/h
462 29-03-2020 15:25:00 7.1 C 4.37 g/m*3 4.41 C 14.5 km/h
463 29-03-2020 15:30:00 7.2 C 4.4 g/m*3 3.92 C 19.3 km/h
464 29-03-2020 15:35:00 7.3 C 4.5 g/m*3 4.05 C 19.3 km/h
465 29-03-2020 15:40:00 7.4 C 4.45 g/m*3 4.17 C 19.3 km/h
466 29-03-2020 15:45:00 7.3 C 4.58 g/m*3 4.44 C 16.1 km/h
467 29-03-2020 15:50:00 7.3 C 4.58 g/m*3 4.66 C 14.5 km/h
468 29-03-2020 15:55:00 7.3 C 4.5 g/m*3 4.9 C 12.9 km/h
469 29-03-2020 16:00:00 7.3 C 4.5 g/m*3 4.05 C 19.3 km/h
470 29-03-2020 16:05:00 7.2 C 4.4 g/m*3 4.11 C 17.7 km/h
471 29-03-2020 16:10:00 7.2 C 4.32 g/m*3 5.04 C 11.3 km/h
472 29-03-2020 16:15:00 7 C 4.26 g/m*3 3.67 C 19.3 km/h
473 29-03-2020 16:20:00 6.9 C 4.23 g/m*3 3.94 C 16.1 km/h
474 29-03-2020 16:25:00 6.8 C 4.21 g/m*3 3.61 C 17.7 km/h
475 29-03-2020 16:30:00 6.8 C 4.44 g/m*3 3.42 C 19.3 km/h
Sensor: Nr:Datum:Temp:Abs-Feuchte:Windchill:Wind:
Aussen-T/F 476 29-03-2020 16:35:00 6.7 C 4.48 g/m*3 3.69 C 16.1 km/h
477 29-03-2020 16:40:00 6.7 C 4.56 g/m*3 4.17 C 12.9 km/h
478 29-03-2020 16:45:00 6.7 C 4.56 g/m*3 3.92 C 14.5 km/h
479 29-03-2020 16:50:00 6.8 C 4.44 g/m*3 3.24 C 20.9 km/h
480 29-03-2020 16:55:00 6.8 C 4.44 g/m*3 3.42 C 19.3 km/h
481 29-03-2020 17:00:00 6.8 C 4.51 g/m*3 4.29 C 12.9 km/h
482 29-03-2020 17:05:00 6.9 C 4.54 g/m*3 3.54 C 19.3 km/h
483 29-03-2020 17:10:00 7.1 C 4.6 g/m*3 3.3 C 24.1 km/h
484 29-03-2020 17:15:00 6.9 C 4.54 g/m*3 3.37 C 20.9 km/h
485 29-03-2020 17:20:00 6.9 C 4.7 g/m*3 3.54 C 19.3 km/h
486 29-03-2020 17:25:00 6.9 C 4.85 g/m*3 3.73 C 17.7 km/h
487 29-03-2020 17:30:00 6.8 C 4.74 g/m*3 3.42 C 19.3 km/h
488 29-03-2020 17:35:00 6.9 C 4.85 g/m*3 3.54 C 19.3 km/h
489 29-03-2020 17:40:00 7 C 4.88 g/m*3 3.49 C 20.9 km/h
490 29-03-2020 17:45:00 6.9 C 4.85 g/m*3 3.73 C 17.7 km/h
491 29-03-2020 17:50:00 6.8 C 4.89 g/m*3 3.82 C 16.1 km/h
492 29-03-2020 17:55:00 6.8 C 4.97 g/m*3 3.82 C 16.1 km/h
493 29-03-2020 18:00:00 6.9 C 5 g/m*3 3.73 C 17.7 km/h
494 29-03-2020 18:05:00 7 C 5.04 g/m*3 4.06 C 16.1 km/h
495 29-03-2020 18:10:00 6.9 C 4.85 g/m*3 2.61 C 29 km/h
496 29-03-2020 18:15:00 6.7 C 4.79 g/m*3 3.29 C 19.3 km/h
497 29-03-2020 18:20:00 6.6 C 4.83 g/m*3 2.51 C 25.7 km/h
498 29-03-2020 18:25:00 6.4 C 4.84 g/m*3 2.4 C 24.1 km/h
499 29-03-2020 18:30:00 6.2 C 5 g/m*3 2.15 C 24.1 km/h
500 29-03-2020 18:35:00 5.8 C 5.16 g/m*3 1.63 C 24.1 km/h
Sensor: Nr:Datum:Temp:Abs-Feuchte:Windchill:Wind:
Aussen-T/F 501 29-03-2020 18:40:00 5.4 C 5.23 g/m*3 1.66 C 19.3 km/h
502 29-03-2020 18:45:00 5.1 C 5.34 g/m*3 1.95 C 14.5 km/h
503 29-03-2020 18:50:00 4.9 C 5.33 g/m*3 2.61 C 9.7 km/h
504 29-03-2020 18:55:00 4.9 C 5.33 g/m*3 0.83 C 20.9 km/h
505 29-03-2020 19:00:00 4.9 C 5.33 g/m*3 0.48 C 24.1 km/h
506 29-03-2020 19:05:00 4.8 C 5.36 g/m*3 0.52 C 22.5 km/h
507 29-03-2020 19:10:00 4.6 C 5.43 g/m*3 0.86 C 17.7 km/h
508 29-03-2020 19:15:00 4.4 C 5.42 g/m*3 1.09 C 14.5 km/h
509 29-03-2020 19:20:00 4.4 C 5.42 g/m*3 1.09 C 14.5 km/h
510 29-03-2020 19:25:00 4.3 C 5.45 g/m*3 0.97 C 14.5 km/h
511 29-03-2020 19:30:00 4.3 C 5.45 g/m*3 0.07 C 20.9 km/h
512 29-03-2020 19:35:00 4.3 C 5.51 g/m*3 0.97 C 14.5 km/h
513 29-03-2020 19:40:00 4.2 C 5.48 g/m*3 0.36 C 17.7 km/h
514 29-03-2020 19:45:00 4.1 C 5.44 g/m*3 -0.18 C 20.9 km/h
515 29-03-2020 19:50:00 4 C 5.47 g/m*3 0.6 C 14.5 km/h
516 29-03-2020 19:55:00 3.9 C 5.43 g/m*3 3.9 C 4.8 km/h
517 29-03-2020 20:00:00 3.9 C 5.43 g/m*3 2.32 C 6.4 km/h
518 29-03-2020 20:05:00 3.8 C 5.46 g/m*3 3.8 C 3.2 km/h
519 29-03-2020 20:10:00 3.8 C 5.46 g/m*3 2.21 C 6.4 km/h
520 29-03-2020 20:15:00 3.8 C 5.46 g/m*3 3.8 C 3.2 km/h
521 29-03-2020 20:20:00 3.8 C 5.46 g/m*3 3.8 C 3.2 km/h
522 29-03-2020 20:25:00 3.8 C 5.46 g/m*3 3.8 C 3.2 km/h
523 29-03-2020 20:30:00 3.8 C 5.46 g/m*3 3.8 C 1.6 km/h
524 29-03-2020 20:35:00 3.8 C 5.46 g/m*3 3.8 C 4.8 km/h
525 29-03-2020 20:40:00 3.9 C 5.43 g/m*3 3.9 C 4.8 km/h
Sensor: Nr:Datum:Temp:Abs-Feuchte:Windchill:Wind:
Aussen-T/F 526 29-03-2020 20:45:00 3.9 C 5.37 g/m*3 3.9 C 4.8 km/h
527 29-03-2020 20:50:00 4.1 C 5.38 g/m*3 2.05 C 8.1 km/h
528 29-03-2020 20:55:00 4.2 C 5.35 g/m*3 2.67 C 6.4 km/h
529 29-03-2020 21:00:00 4.2 C 5.28 g/m*3 2.67 C 6.4 km/h
530 29-03-2020 21:05:00 4.2 C 5.22 g/m*3 2.17 C 8.1 km/h
531 29-03-2020 21:10:00 4.3 C 5.19 g/m*3 1.89 C 9.7 km/h
532 29-03-2020 21:15:00 4.3 C 5.12 g/m*3 2.29 C 8.1 km/h
533 29-03-2020 21:20:00 4.3 C 5.06 g/m*3 1.55 C 11.3 km/h
534 29-03-2020 21:25:00 4.4 C 5.09 g/m*3 2.4 C 8.1 km/h
535 29-03-2020 21:30:00 4.4 C 5.03 g/m*3 2.01 C 9.7 km/h
536 29-03-2020 21:35:00 4.4 C 5.03 g/m*3 1.67 C 11.3 km/h
537 29-03-2020 21:40:00 4.4 C 4.96 g/m*3 1.09 C 14.5 km/h
538 29-03-2020 21:45:00 4.4 C 4.9 g/m*3 1.36 C 12.9 km/h
539 29-03-2020 21:50:00 4.4 C 4.9 g/m*3 1.67 C 11.3 km/h
540 29-03-2020 21:55:00 4.4 C 4.96 g/m*3 1.36 C 12.9 km/h
541 29-03-2020 22:00:00 4.4 C 4.9 g/m*3 1.36 C 12.9 km/h
542 29-03-2020 22:05:00 4.3 C 4.86 g/m*3 0.27 C 19.3 km/h
543 29-03-2020 22:10:00 4.3 C 4.86 g/m*3 0.07 C 20.9 km/h
544 29-03-2020 22:15:00 4.3 C 4.86 g/m*3 0.07 C 20.9 km/h
545 29-03-2020 22:20:00 4.3 C 4.8 g/m*3 1.24 C 12.9 km/h
546 29-03-2020 22:25:00 4.3 C 4.8 g/m*3 1.24 C 12.9 km/h
547 29-03-2020 22:30:00 4.3 C 4.74 g/m*3 0.97 C 14.5 km/h
548 29-03-2020 22:35:00 4.2 C 4.7 g/m*3 1.43 C 11.3 km/h
549 29-03-2020 22:40:00 4.2 C 4.7 g/m*3 0.59 C 16.1 km/h
550 29-03-2020 22:45:00 4.2 C 4.64 g/m*3 0.59 C 16.1 km/h
Sensor: Nr:Datum:Temp:Abs-Feuchte:Windchill:Wind:
Aussen-T/F 551 29-03-2020 22:50:00 4.2 C 4.7 g/m*3 0.59 C 16.1 km/h
552 29-03-2020 22:55:00 4.2 C 4.64 g/m*3 0.59 C 16.1 km/h
553 29-03-2020 23:00:00 4.2 C 4.57 g/m*3 0.36 C 17.7 km/h
554 29-03-2020 23:05:00 4.2 C 4.57 g/m*3 1.12 C 12.9 km/h
555 29-03-2020 23:10:00 4.2 C 4.57 g/m*3 1.12 C 12.9 km/h
556 29-03-2020 23:15:00 4.1 C 4.48 g/m*3 0.47 C 16.1 km/h
557 29-03-2020 23:20:00 4.1 C 4.42 g/m*3 0.72 C 14.5 km/h
558 29-03-2020 23:25:00 4.1 C 4.48 g/m*3 0.47 C 16.1 km/h
559 29-03-2020 23:30:00 4.1 C 4.42 g/m*3 0.72 C 14.5 km/h
560 29-03-2020 23:35:00 4 C 4.32 g/m*3 -0.5 C 22.5 km/h
561 29-03-2020 23:40:00 3.9 C 4.23 g/m*3 0.75 C 12.9 km/h
562 29-03-2020 23:45:00 3.9 C 4.23 g/m*3 -0.01 C 17.7 km/h
563 29-03-2020 23:50:00 3.8 C 4.2 g/m*3 0.63 C 12.9 km/h
564 29-03-2020 23:55:00 3.7 C 4.18 g/m*3 1.18 C 9.7 km/h
565 30-03-2020 00:00:00 3.6 C 4.15 g/m*3 0.7 C 11.3 km/h
566 30-03-2020 00:05:00 3.4 C 4.09 g/m*3 0.46 C 11.3 km/h
567 30-03-2020 00:10:00 3.3 C 4.06 g/m*3 1.11 C 8.1 km/h
568 30-03-2020 00:15:00 3.3 C 4 g/m*3 0.7 C 9.7 km/h
569 30-03-2020 00:20:00 3.3 C 4 g/m*3 0.7 C 9.7 km/h
570 30-03-2020 00:25:00 3.3 C 4.06 g/m*3 1.11 C 8.1 km/h
571 30-03-2020 00:30:00 3.1 C 4.07 g/m*3 3.1 C 4.8 km/h
572 30-03-2020 00:35:00 2.9 C 4.07 g/m*3 2.9 C 3.2 km/h
573 30-03-2020 00:40:00 2.7 C 4.08 g/m*3 0.94 C 6.4 km/h
574 30-03-2020 00:45:00 2.4 C 4 g/m*3 2.4 C 4.8 km/h
575 30-03-2020 00:50:00 2.2 C 4.06 g/m*3 2.2 C 3.2 km/h
Sensor: Nr:Datum:Temp:Abs-Feuchte:Windchill:Wind:
Aussen-T/F 576 30-03-2020 00:55:00 1.9 C 4.03 g/m*3 1.9 C 3.2 km/h
577 30-03-2020 01:00:00 1.7 C 4.03 g/m*3 1.7 C 3.2 km/h
578 30-03-2020 01:05:00 1.5 C 3.97 g/m*3 1.5 C 3.2 km/h
579 30-03-2020 01:10:00 1.4 C 3.95 g/m*3 1.4 C 4.8 km/h
580 30-03-2020 01:15:00 1.4 C 3.95 g/m*3 1.4 C 4.8 km/h
581 30-03-2020 01:20:00 1.4 C 3.89 g/m*3 1.4 C 3.2 km/h
582 30-03-2020 01:25:00 1.4 C 3.89 g/m*3 -0.56 C 6.4 km/h
583 30-03-2020 01:30:00 1.5 C 3.81 g/m*3 1.5 C 3.2 km/h
584 30-03-2020 01:35:00 1.4 C 3.89 g/m*3 1.4 C 4.8 km/h
585 30-03-2020 01:40:00 1.3 C 3.92 g/m*3 1.3 C 1.6 km/h
586 30-03-2020 01:45:00 1.1 C 3.92 g/m*3 1.1 C 1.6 km/h
587 30-03-2020 01:50:00 0.8 C 3.84 g/m*3 0.8 C 1.6 km/h
588 30-03-2020 01:55:00 0.6 C 3.84 g/m*3 0.6 C 3.2 km/h
589 30-03-2020 02:00:00 0.4 C 3.84 g/m*3 0.4 C 1.6 km/h
590 30-03-2020 02:05:00 0.3 C 3.76 g/m*3 -1.84 C 6.4 km/h
591 30-03-2020 02:10:00 0.3 C 3.81 g/m*3 0.3 C 0 km/h
592 30-03-2020 02:15:00 0.2 C 3.78 g/m*3 0.2 C 0 km/h
593 30-03-2020 02:20:00 -0.1 C 3.75 g/m*3 -0.1 C 1.6 km/h
594 30-03-2020 02:25:00 -0.3 C 3.7 g/m*3 -0.3 C 0 km/h
595 30-03-2020 02:30:00 -0.5 C 3.7 g/m*3 -0.5 C 0 km/h
596 30-03-2020 02:35:00 -0.7 C 3.69 g/m*3 -0.7 C 1.6 km/h
597 30-03-2020 02:40:00 -0.7 C 3.69 g/m*3 -0.7 C 1.6 km/h
598 30-03-2020 02:45:00 -0.8 C 3.71 g/m*3 -0.8 C 1.6 km/h
599 30-03-2020 02:50:00 -0.8 C 3.71 g/m*3 -0.8 C 0 km/h
600 30-03-2020 02:55:00 -0.9 C 3.69 g/m*3 -0.9 C 1.6 km/h
Sensor: Nr:Datum:Temp:Abs-Feuchte:Windchill:Wind:
Aussen-T/F 601 30-03-2020 03:00:00 -0.9 C 3.69 g/m*3 -0.9 C 3.2 km/h
602 30-03-2020 03:05:00 -1 C 3.62 g/m*3 -1 C 4.8 km/h
603 30-03-2020 03:10:00 -1 C 3.62 g/m*3 -1 C 3.2 km/h
604 30-03-2020 03:15:00 -1 C 3.66 g/m*3 -1 C 3.2 km/h
605 30-03-2020 03:20:00 -1.1 C 3.64 g/m*3 -1.1 C 3.2 km/h
606 30-03-2020 03:25:00 -1.1 C 3.64 g/m*3 -1.1 C 0 km/h
607 30-03-2020 03:30:00 -1.2 C 3.66 g/m*3 -1.2 C 1.6 km/h
608 30-03-2020 03:35:00 -1.3 C 3.63 g/m*3 -1.3 C 0 km/h
609 30-03-2020 03:40:00 -1.4 C 3.6 g/m*3 -1.4 C 3.2 km/h
610 30-03-2020 03:45:00 -1.4 C 3.6 g/m*3 -1.4 C 3.2 km/h
611 30-03-2020 03:50:00 -1.5 C 3.62 g/m*3 -1.5 C 3.2 km/h
612 30-03-2020 03:55:00 -1.6 C 3.6 g/m*3 -1.6 C 0 km/h
613 30-03-2020 04:00:00 -1.6 C 3.6 g/m*3 -1.6 C 3.2 km/h
614 30-03-2020 04:05:00 -1.6 C 3.6 g/m*3 -1.6 C 4.8 km/h
615 30-03-2020 04:10:00 -1.6 C 3.6 g/m*3 -1.6 C 0 km/h
616 30-03-2020 04:15:00 -1.6 C 3.64 g/m*3 -1.6 C 0 km/h
617 30-03-2020 04:20:00 -1.6 C 3.6 g/m*3 -1.6 C 1.6 km/h
618 30-03-2020 04:25:00 -1.7 C 3.57 g/m*3 -1.7 C 4.8 km/h
619 30-03-2020 04:30:00 -1.7 C 3.57 g/m*3 -1.7 C 0 km/h
620 30-03-2020 04:35:00 -1.8 C 3.55 g/m*3 -1.8 C 0 km/h
621 30-03-2020 04:40:00 -1.8 C 3.55 g/m*3 -1.8 C 0 km/h
622 30-03-2020 04:45:00 -1.9 C 3.52 g/m*3 -1.9 C 0 km/h
623 30-03-2020 04:50:00 -2 C 3.5 g/m*3 -2 C 3.2 km/h
624 30-03-2020 04:55:00 -2 C 3.5 g/m*3 -2 C 0 km/h
625 30-03-2020 05:00:00 -1.9 C 3.52 g/m*3 -1.9 C 3.2 km/h
Sensor: Nr:Datum:Temp:Abs-Feuchte:Windchill:Wind:
Aussen-T/F 626 30-03-2020 05:05:00 -1.8 C 3.51 g/m*3 -1.8 C 3.2 km/h
627 30-03-2020 05:10:00 -1.8 C 3.51 g/m*3 -1.8 C 1.6 km/h
628 30-03-2020 05:15:00 -1.8 C 3.46 g/m*3 -1.8 C 0 km/h
629 30-03-2020 05:20:00 -1.9 C 3.44 g/m*3 -1.9 C 1.6 km/h
630 30-03-2020 05:25:00 -1.9 C 3.44 g/m*3 -1.9 C 3.2 km/h
631 30-03-2020 05:30:00 -2 C 3.41 g/m*3 -2 C 0 km/h
632 30-03-2020 05:35:00 -2.1 C 3.39 g/m*3 -2.1 C 3.2 km/h
633 30-03-2020 05:40:00 -2.2 C 3.37 g/m*3 -2.2 C 0 km/h
634 30-03-2020 05:45:00 -2.3 C 3.38 g/m*3 -2.3 C 0 km/h
635 30-03-2020 05:50:00 -2.4 C 3.36 g/m*3 -2.4 C 0 km/h
636 30-03-2020 05:55:00 -2.5 C 3.34 g/m*3 -2.5 C 0 km/h
637 30-03-2020 06:00:00 -2.6 C 3.31 g/m*3 -2.6 C 0 km/h
638 30-03-2020 06:05:00 -2.7 C 3.29 g/m*3 -2.7 C 0 km/h
639 30-03-2020 06:10:00 -2.7 C 3.29 g/m*3 -2.7 C 0 km/h
640 30-03-2020 06:15:00 -2.8 C 3.31 g/m*3 -2.8 C 0 km/h
641 30-03-2020 06:20:00 -2.9 C 3.28 g/m*3 -2.9 C 0 km/h
642 30-03-2020 06:25:00 -3 C 3.3 g/m*3 -3 C 0 km/h
643 30-03-2020 06:30:00 -3 C 3.3 g/m*3 -3 C 0 km/h
644 30-03-2020 06:35:00 -3.1 C 3.28 g/m*3 -3.1 C 0 km/h
645 30-03-2020 06:40:00 -3.1 C 3.28 g/m*3 -5.76 C 6.4 km/h
646 30-03-2020 06:45:00 -3.1 C 3.28 g/m*3 -3.1 C 3.2 km/h
647 30-03-2020 06:50:00 -2.9 C 3.36 g/m*3 -2.9 C 1.6 km/h
648 30-03-2020 06:55:00 -2.9 C 3.36 g/m*3 -2.9 C 0 km/h
649 30-03-2020 07:00:00 -2.8 C 3.35 g/m*3 -2.8 C 0 km/h
650 30-03-2020 07:05:00 -2.9 C 3.32 g/m*3 -2.9 C 1.6 km/h
Sensor: Nr:Datum:Temp:Abs-Feuchte:Windchill:Wind:
Aussen-T/F 651 30-03-2020 07:10:00 -2.9 C 3.32 g/m*3 -2.9 C 1.6 km/h
652 30-03-2020 07:15:00 -2.9 C 3.32 g/m*3 -2.9 C 3.2 km/h
653 30-03-2020 07:20:00 -2.9 C 3.32 g/m*3 -2.9 C 1.6 km/h
654 30-03-2020 07:25:00 -2.9 C 3.28 g/m*3 -2.9 C 0 km/h
655 30-03-2020 07:30:00 -3 C 3.26 g/m*3 -3 C 0 km/h
656 30-03-2020 07:35:00 -3.1 C 3.24 g/m*3 -3.1 C 0 km/h
657 30-03-2020 07:40:00 -3.2 C 3.25 g/m*3 -3.2 C 0 km/h
658 30-03-2020 07:45:00 -3.3 C 3.23 g/m*3 -3.3 C 1.6 km/h
659 30-03-2020 07:50:00 -3.3 C 3.23 g/m*3 -3.3 C 0 km/h
660 30-03-2020 07:55:00 -3.4 C 3.21 g/m*3 -3.4 C 0 km/h
661 30-03-2020 08:00:00 -3.4 C 3.21 g/m*3 -3.4 C 0 km/h
662 30-03-2020 08:05:00 -3.4 C 3.25 g/m*3 -3.4 C 0 km/h
663 30-03-2020 08:10:00 -3.4 C 3.25 g/m*3 -3.4 C 0 km/h
664 30-03-2020 08:15:00 -3.3 C 3.27 g/m*3 -3.3 C 0 km/h
665 30-03-2020 08:20:00 -3.3 C 3.27 g/m*3 -3.3 C 0 km/h
666 30-03-2020 08:25:00 -3.3 C 3.27 g/m*3 -3.3 C 0 km/h
667 30-03-2020 08:30:00 -3.3 C 3.27 g/m*3 -3.3 C 1.6 km/h
668 30-03-2020 08:35:00 -3.2 C 3.29 g/m*3 -3.2 C 3.2 km/h
669 30-03-2020 08:40:00 -3.1 C 3.32 g/m*3 -3.1 C 0 km/h
670 30-03-2020 08:45:00 -3.1 C 3.32 g/m*3 -3.1 C 0 km/h
671 30-03-2020 08:50:00 -3 C 3.34 g/m*3 -3 C 0 km/h
672 30-03-2020 08:55:00 -2.9 C 3.32 g/m*3 -2.9 C 0 km/h
673 30-03-2020 09:00:00 -2.8 C 3.35 g/m*3 -2.8 C 0 km/h
674 30-03-2020 09:05:00 -2.7 C 3.33 g/m*3 -2.7 C 0 km/h
675 30-03-2020 09:10:00 -2.6 C 3.35 g/m*3 -2.6 C 1.6 km/h
Sensor: Nr:Datum:Temp:Abs-Feuchte:Windchill:Wind:
Aussen-T/F 676 30-03-2020 09:15:00 -2.5 C 3.34 g/m*3 -2.5 C 0 km/h
677 30-03-2020 09:20:00 -2.4 C 3.32 g/m*3 -2.4 C 3.2 km/h
678 30-03-2020 09:25:00 -2.3 C 3.34 g/m*3 -2.3 C 1.6 km/h
679 30-03-2020 09:30:00 -2.2 C 3.33 g/m*3 -2.2 C 1.6 km/h
680 30-03-2020 09:35:00 -2.1 C 3.35 g/m*3 -2.1 C 1.6 km/h
681 30-03-2020 09:40:00 -1.9 C 3.35 g/m*3 -1.9 C 3.2 km/h
682 30-03-2020 09:45:00 -1.8 C 3.38 g/m*3 -1.8 C 0 km/h
683 30-03-2020 09:50:00 -1.7 C 3.44 g/m*3 -1.7 C 0 km/h
684 30-03-2020 09:55:00 -1.7 C 3.44 g/m*3 -1.7 C 3.2 km/h
685 30-03-2020 10:00:00 -1.6 C 3.47 g/m*3 -1.6 C 3.2 km/h
686 30-03-2020 10:05:00 -1.5 C 3.45 g/m*3 -1.5 C 0 km/h
687 30-03-2020 10:10:00 -1.4 C 3.52 g/m*3 -1.4 C 0 km/h
688 30-03-2020 10:15:00 -1.3 C 3.54 g/m*3 -1.3 C 1.6 km/h
689 30-03-2020 10:20:00 -1.2 C 3.57 g/m*3 -1.2 C 1.6 km/h
690 30-03-2020 10:25:00 -1.1 C 3.5 g/m*3 -1.1 C 1.6 km/h
691 30-03-2020 10:30:00 -0.9 C 3.51 g/m*3 -0.9 C 1.6 km/h
692 30-03-2020 10:35:00 -0.7 C 3.46 g/m*3 -2.99 C 6.4 km/h
693 30-03-2020 10:40:00 -0.3 C 3.37 g/m*3 -4.69 C 14.5 km/h
694 30-03-2020 10:45:00 0.2 C 3.44 g/m*3 -1.95 C 6.4 km/h
695 30-03-2020 10:50:00 0.8 C 3.12 g/m*3 -2.67 C 11.3 km/h
696 30-03-2020 10:55:00 1.3 C 3.5 g/m*3 1.3 C 1.6 km/h
697 30-03-2020 11:00:00 1.4 C 3.2 g/m*3 -2.6 C 14.5 km/h
698 30-03-2020 11:05:00 1.9 C 3.04 g/m*3 -0.54 C 8.1 km/h
699 30-03-2020 11:10:00 2.2 C 3.04 g/m*3 2.2 C 3.2 km/h
700 30-03-2020 11:15:00 2.3 C 3.12 g/m*3 2.3 C 1.6 km/h
Sensor: Nr:Datum:Temp:Abs-Feuchte:Windchill:Wind:
Aussen-T/F 701 30-03-2020 11:20:00 2.4 C 2.97 g/m*3 -0.74 C 11.3 km/h
702 30-03-2020 11:25:00 2.7 C 2.91 g/m*3 2.7 C 4.8 km/h
703 30-03-2020 11:30:00 2.8 C 2.93 g/m*3 1.05 C 6.4 km/h
704 30-03-2020 11:35:00 3.1 C 2.93 g/m*3 0.87 C 8.1 km/h
705 30-03-2020 11:40:00 3.3 C 2.85 g/m*3 0.7 C 9.7 km/h
706 30-03-2020 11:45:00 3.3 C 2.79 g/m*3 1.63 C 6.4 km/h
707 30-03-2020 11:50:00 3.4 C 2.87 g/m*3 3.4 C 4.8 km/h
708 30-03-2020 11:55:00 3.6 C 2.72 g/m*3 1.46 C 8.1 km/h
709 30-03-2020 12:00:00 3.7 C 2.8 g/m*3 0.82 C 11.3 km/h
710 30-03-2020 12:05:00 3.8 C 2.7 g/m*3 3.8 C 4.8 km/h
711 30-03-2020 12:10:00 4 C 2.67 g/m*3 1.53 C 9.7 km/h
712 30-03-2020 12:15:00 4.1 C 2.69 g/m*3 4.1 C 4.8 km/h
713 30-03-2020 12:20:00 4.2 C 2.58 g/m*3 4.2 C 4.8 km/h
714 30-03-2020 12:25:00 4.3 C 2.46 g/m*3 4.3 C 4.8 km/h
715 30-03-2020 12:30:00 4.4 C 2.48 g/m*3 2.4 C 8.1 km/h
716 30-03-2020 12:35:00 4.6 C 2.51 g/m*3 1.91 C 11.3 km/h
717 30-03-2020 12:40:00 4.8 C 2.48 g/m*3 2.87 C 8.1 km/h
718 30-03-2020 12:45:00 4.9 C 2.5 g/m*3 4.9 C 3.2 km/h
719 30-03-2020 12:50:00 5.1 C 2.6 g/m*3 2.51 C 11.3 km/h
720 30-03-2020 12:55:00 5.1 C 2.46 g/m*3 5.1 C 4.8 km/h
721 30-03-2020 13:00:00 5.3 C 2.5 g/m*3 5.3 C 4.8 km/h
722 30-03-2020 13:05:00 5.5 C 2.6 g/m*3 3.7 C 8.1 km/h
723 30-03-2020 13:10:00 5.7 C 2.7 g/m*3 4.4 C 6.4 km/h
724 30-03-2020 13:15:00 5.9 C 2.74 g/m*3 4.63 C 6.4 km/h
725 30-03-2020 13:20:00 5.9 C 2.67 g/m*3 3.48 C 11.3 km/h
Sensor: Nr:Datum:Temp:Abs-Feuchte:Windchill:Wind:
Aussen-T/F 726 30-03-2020 13:25:00 5.9 C 2.6 g/m*3 3.8 C 9.7 km/h
727 30-03-2020 13:30:00 6 C 2.76 g/m*3 3.92 C 9.7 km/h
728 30-03-2020 13:35:00 6.2 C 2.72 g/m*3 4.15 C 9.7 km/h
729 30-03-2020 13:40:00 6.3 C 2.66 g/m*3 3.96 C 11.3 km/h
730 30-03-2020 13:45:00 6.4 C 2.68 g/m*3 6.4 C 3.2 km/h
731 30-03-2020 13:50:00 6.3 C 2.66 g/m*3 3.2 C 16.1 km/h
732 30-03-2020 13:55:00 6.4 C 2.68 g/m*3 4.75 C 8.1 km/h
733 30-03-2020 14:00:00 6.6 C 2.64 g/m*3 6.6 C 4.8 km/h
734 30-03-2020 14:05:00 6.7 C 2.66 g/m*3 5.56 C 6.4 km/h
735 30-03-2020 14:10:00 6.8 C 2.52 g/m*3 5.22 C 8.1 km/h
736 30-03-2020 14:15:00 6.8 C 2.52 g/m*3 5.67 C 6.4 km/h
737 30-03-2020 14:20:00 7.1 C 2.57 g/m*3 4.41 C 14.5 km/h
738 30-03-2020 14:25:00 7.3 C 2.61 g/m*3 4.23 C 17.7 km/h
739 30-03-2020 14:30:00 7.3 C 2.77 g/m*3 4.66 C 14.5 km/h
740 30-03-2020 14:35:00 7.3 C 2.69 g/m*3 5.47 C 9.7 km/h
741 30-03-2020 14:40:00 7.4 C 2.62 g/m*3 5.02 C 12.9 km/h
742 30-03-2020 14:45:00 7.6 C 2.82 g/m*3 5.53 C 11.3 km/h
743 30-03-2020 14:50:00 7.7 C 2.84 g/m*3 5.94 C 9.7 km/h
744 30-03-2020 14:55:00 7.9 C 2.96 g/m*3 5.89 C 11.3 km/h
745 30-03-2020 15:00:00 8.1 C 2.91 g/m*3 6.75 C 8.1 km/h
746 30-03-2020 15:05:00 7.9 C 2.87 g/m*3 5.18 C 16.1 km/h
747 30-03-2020 15:10:00 7.8 C 2.94 g/m*3 5.77 C 11.3 km/h
748 30-03-2020 15:15:00 7.8 C 2.94 g/m*3 5.06 C 16.1 km/h
749 30-03-2020 15:20:00 8 C 2.98 g/m*3 5.75 C 12.9 km/h
750 30-03-2020 15:25:00 8 C 2.98 g/m*3 5.3 C 16.1 km/h
Sensor: Nr:Datum:Temp:Abs-Feuchte:Windchill:Wind:
Aussen-T/F 751 30-03-2020 15:30:00 8 C 3.14 g/m*3 6.64 C 8.1 km/h
752 30-03-2020 15:35:00 8.2 C 3.18 g/m*3 5.99 C 12.9 km/h
753 30-03-2020 15:40:00 8.2 C 3.1 g/m*3 5.99 C 12.9 km/h
754 30-03-2020 15:45:00 8.3 C 3.12 g/m*3 5.68 C 16.1 km/h
755 30-03-2020 15:50:00 8.3 C 3.2 g/m*3 6.37 C 11.3 km/h
756 30-03-2020 15:55:00 8.3 C 3.12 g/m*3 6.12 C 12.9 km/h
757 30-03-2020 16:00:00 8.4 C 3.14 g/m*3 6.01 C 14.5 km/h
758 30-03-2020 16:05:00 8.6 C 3.35 g/m*3 6.48 C 12.9 km/h
759 30-03-2020 16:10:00 8.8 C 3.31 g/m*3 6.5 C 14.5 km/h
760 30-03-2020 16:15:00 9.2 C 3.3 g/m*3 6.99 C 14.5 km/h
761 30-03-2020 16:20:00 9.2 C 3.39 g/m*3 6.99 C 14.5 km/h
762 30-03-2020 16:25:00 9.3 C 3.42 g/m*3 7.33 C 12.9 km/h
763 30-03-2020 16:30:00 9 C 3.35 g/m*3 7.21 C 11.3 km/h
764 30-03-2020 16:35:00 8.8 C 3.39 g/m*3 6.97 C 11.3 km/h
765 30-03-2020 16:40:00 9.1 C 3.55 g/m*3 7.33 C 11.3 km/h
766 30-03-2020 16:45:00 9.4 C 3.62 g/m*3 7.97 C 9.7 km/h
767 30-03-2020 16:50:00 9.5 C 3.55 g/m*3 7.58 C 12.9 km/h
768 30-03-2020 16:55:00 9.4 C 3.62 g/m*3 7.46 C 12.9 km/h
769 30-03-2020 17:00:00 9.1 C 3.55 g/m*3 6.87 C 14.5 km/h
770 30-03-2020 17:05:00 9.2 C 3.75 g/m*3 6.99 C 14.5 km/h
771 30-03-2020 17:10:00 9.8 C 3.71 g/m*3 7.54 C 16.1 km/h
772 30-03-2020 17:15:00 9.9 C 3.73 g/m*3 7.48 C 17.7 km/h
773 30-03-2020 17:20:00 9.8 C 3.62 g/m*3 7.54 C 16.1 km/h
774 30-03-2020 17:25:00 9.9 C 3.64 g/m*3 7.85 C 14.5 km/h
775 30-03-2020 17:30:00 9.6 C 3.66 g/m*3 7.29 C 16.1 km/h
Sensor: Nr:Datum:Temp:Abs-Feuchte:Windchill:Wind:
Aussen-T/F 776 30-03-2020 17:35:00 9.7 C 3.78 g/m*3 7.41 C 16.1 km/h
777 30-03-2020 17:40:00 9.7 C 3.87 g/m*3 7.23 C 17.7 km/h
778 30-03-2020 17:45:00 9.4 C 3.89 g/m*3 7.24 C 14.5 km/h
779 30-03-2020 17:50:00 9.2 C 3.93 g/m*3 6.61 C 17.7 km/h
780 30-03-2020 17:55:00 8.9 C 3.94 g/m*3 6.85 C 12.9 km/h
781 30-03-2020 18:00:00 8.8 C 4 g/m*3 5.34 C 25.7 km/h
782 30-03-2020 18:05:00 8.5 C 3.93 g/m*3 6.36 C 12.9 km/h
783 30-03-2020 18:10:00 8.2 C 3.94 g/m*3 6.25 C 11.3 km/h
784 30-03-2020 18:15:00 7.9 C 4.02 g/m*3 6.18 C 9.7 km/h
785 30-03-2020 18:20:00 8.1 C 4.16 g/m*3 6.13 C 11.3 km/h
786 30-03-2020 18:25:00 8.4 C 4.16 g/m*3 6.24 C 12.9 km/h
787 30-03-2020 18:30:00 8.7 C 4.15 g/m*3 6.85 C 11.3 km/h
788 30-03-2020 18:35:00 8.9 C 4.2 g/m*3 7.09 C 11.3 km/h
789 30-03-2020 18:40:00 8.8 C 4.09 g/m*3 6.3 C 16.1 km/h
790 30-03-2020 18:45:00 8.7 C 4.15 g/m*3 6.6 C 12.9 km/h
791 30-03-2020 18:50:00 8.7 C 4.24 g/m*3 7.46 C 8.1 km/h
792 30-03-2020 18:55:00 8.8 C 4.26 g/m*3 6.97 C 11.3 km/h
793 30-03-2020 19:00:00 8.6 C 4.21 g/m*3 6.73 C 11.3 km/h
794 30-03-2020 19:05:00 8.5 C 4.27 g/m*3 6.36 C 12.9 km/h
795 30-03-2020 19:10:00 8.3 C 4.21 g/m*3 5.89 C 14.5 km/h
796 30-03-2020 19:15:00 8.1 C 4.24 g/m*3 6.42 C 9.7 km/h
797 30-03-2020 19:20:00 7.8 C 4.24 g/m*3 7.8 C 4.8 km/h
798 30-03-2020 19:25:00 7.6 C 4.19 g/m*3 6.16 C 8.1 km/h
799 30-03-2020 19:30:00 7.4 C 4.21 g/m*3 5.58 C 9.7 km/h
800 30-03-2020 19:35:00 7.3 C 4.27 g/m*3 5.81 C 8.1 km/h
Sensor: Nr:Datum:Temp:Abs-Feuchte:Windchill:Wind:
Aussen-T/F 801 30-03-2020 19:40:00 7.2 C 4.24 g/m*3 7.2 C 4.8 km/h
802 30-03-2020 19:45:00 7 C 4.26 g/m*3 7 C 3.2 km/h
803 30-03-2020 19:50:00 6.8 C 4.28 g/m*3 6.8 C 1.6 km/h
804 30-03-2020 19:55:00 6.4 C 4.32 g/m*3 6.4 C 0 km/h
805 30-03-2020 20:00:00 5.9 C 4.25 g/m*3 5.9 C 0 km/h
806 30-03-2020 20:05:00 5.4 C 4.26 g/m*3 5.4 C 0 km/h
807 30-03-2020 20:10:00 4.9 C 4.19 g/m*3 4.9 C 0 km/h
808 30-03-2020 20:15:00 4.6 C 4.23 g/m*3 4.6 C 0 km/h
809 30-03-2020 20:20:00 4.3 C 4.22 g/m*3 4.3 C 1.6 km/h
810 30-03-2020 20:25:00 4.2 C 4.32 g/m*3 4.2 C 1.6 km/h
811 30-03-2020 20:30:00 4.1 C 4.35 g/m*3 4.1 C 3.2 km/h
812 30-03-2020 20:35:00 3.9 C 4.36 g/m*3 3.9 C 4.8 km/h
813 30-03-2020 20:40:00 3.8 C 4.33 g/m*3 3.8 C 4.8 km/h
814 30-03-2020 20:45:00 3.7 C 4.3 g/m*3 3.7 C 1.6 km/h
815 30-03-2020 20:50:00 3.6 C 4.33 g/m*3 3.6 C 4.8 km/h
816 30-03-2020 20:55:00 3.6 C 4.39 g/m*3 3.6 C 4.8 km/h
817 30-03-2020 21:00:00 3.5 C 4.43 g/m*3 1.86 C 6.4 km/h
818 30-03-2020 21:05:00 3.6 C 4.52 g/m*3 3.6 C 4.8 km/h
819 30-03-2020 21:10:00 3.6 C 4.52 g/m*3 3.6 C 4.8 km/h
820 30-03-2020 21:15:00 3.7 C 4.55 g/m*3 3.7 C 4.8 km/h
821 30-03-2020 21:20:00 3.7 C 4.61 g/m*3 3.7 C 4.8 km/h
822 30-03-2020 21:25:00 3.8 C 4.64 g/m*3 3.8 C 4.8 km/h
823 30-03-2020 21:30:00 3.8 C 4.64 g/m*3 3.8 C 3.2 km/h
824 30-03-2020 21:35:00 3.9 C 4.67 g/m*3 3.9 C 1.6 km/h
825 30-03-2020 21:40:00 4 C 4.7 g/m*3 4 C 0 km/h
Sensor: Nr:Datum:Temp:Abs-Feuchte:Windchill:Wind:
Aussen-T/F 826 30-03-2020 21:45:00 4 C 4.7 g/m*3 4 C 3.2 km/h
827 30-03-2020 21:50:00 4 C 4.7 g/m*3 4 C 3.2 km/h
828 30-03-2020 21:55:00 4.1 C 4.74 g/m*3 4.1 C 1.6 km/h
829 30-03-2020 22:00:00 4 C 4.7 g/m*3 4 C 0 km/h
830 30-03-2020 22:05:00 4 C 4.77 g/m*3 4 C 0 km/h
831 30-03-2020 22:10:00 3.9 C 4.74 g/m*3 3.9 C 0 km/h
832 30-03-2020 22:15:00 4 C 4.7 g/m*3 4 C 3.2 km/h
833 30-03-2020 22:20:00 4 C 4.7 g/m*3 4 C 0 km/h
834 30-03-2020 22:25:00 4.1 C 4.8 g/m*3 4.1 C 0 km/h
835 30-03-2020 22:30:00 4.1 C 4.67 g/m*3 4.1 C 3.2 km/h
836 30-03-2020 22:35:00 4.1 C 4.67 g/m*3 4.1 C 0 km/h
837 30-03-2020 22:40:00 4.2 C 4.7 g/m*3 4.2 C 0 km/h
838 30-03-2020 22:45:00 4.2 C 4.64 g/m*3 4.2 C 3.2 km/h
839 30-03-2020 22:50:00 4.3 C 4.67 g/m*3 4.3 C 1.6 km/h
840 30-03-2020 22:55:00 4.3 C 4.74 g/m*3 4.3 C 0 km/h
841 30-03-2020 23:00:00 4.3 C 4.67 g/m*3 4.3 C 4.8 km/h
842 30-03-2020 23:05:00 4.3 C 4.67 g/m*3 4.3 C 0 km/h
843 30-03-2020 23:10:00 4.3 C 4.67 g/m*3 4.3 C 3.2 km/h
844 30-03-2020 23:15:00 4.4 C 4.7 g/m*3 4.4 C 0 km/h
845 30-03-2020 23:20:00 4.4 C 4.77 g/m*3 4.4 C 0 km/h
846 30-03-2020 23:25:00 4.4 C 4.7 g/m*3 4.4 C 1.6 km/h
847 30-03-2020 23:30:00 4.4 C 4.7 g/m*3 4.4 C 0 km/h
848 30-03-2020 23:35:00 4.4 C 4.7 g/m*3 4.4 C 3.2 km/h
849 30-03-2020 23:40:00 4.4 C 4.77 g/m*3 4.4 C 1.6 km/h
850 30-03-2020 23:45:00 4.4 C 4.77 g/m*3 4.4 C 1.6 km/h
Sensor: Nr:Datum:Temp:Abs-Feuchte:Windchill:Wind:
Aussen-T/F 851 30-03-2020 23:50:00 4.4 C 4.77 g/m*3 4.4 C 0 km/h
852 30-03-2020 23:55:00 4.4 C 4.7 g/m*3 4.4 C 1.6 km/h
853 31-03-2020 00:00:00 4.4 C 4.7 g/m*3 4.4 C 1.6 km/h
854 31-03-2020 00:05:00 4.4 C 4.7 g/m*3 4.4 C 0 km/h
855 31-03-2020 00:10:00 4.4 C 4.7 g/m*3 4.4 C 0 km/h
856 31-03-2020 00:15:00 4.5 C 4.73 g/m*3 4.5 C 3.2 km/h
857 31-03-2020 00:20:00 4.5 C 4.73 g/m*3 4.5 C 3.2 km/h
858 31-03-2020 00:25:00 4.5 C 4.8 g/m*3 4.5 C 3.2 km/h
859 31-03-2020 00:30:00 4.5 C 4.8 g/m*3 4.5 C 1.6 km/h
860 31-03-2020 00:35:00 4.4 C 4.77 g/m*3 4.4 C 0 km/h
861 31-03-2020 00:40:00 4.5 C 4.8 g/m*3 4.5 C 0 km/h
862 31-03-2020 00:45:00 4.5 C 4.8 g/m*3 4.5 C 0 km/h
863 31-03-2020 00:50:00 4.6 C 4.83 g/m*3 4.6 C 0 km/h
864 31-03-2020 00:55:00 4.6 C 4.96 g/m*3 4.6 C 4.8 km/h
865 31-03-2020 01:00:00 4.7 C 5 g/m*3 4.7 C 0 km/h
866 31-03-2020 01:05:00 4.7 C 5.06 g/m*3 4.7 C 1.6 km/h
867 31-03-2020 01:10:00 4.7 C 5.06 g/m*3 4.7 C 1.6 km/h
868 31-03-2020 01:15:00 4.7 C 5.06 g/m*3 4.7 C 1.6 km/h
869 31-03-2020 01:20:00 4.7 C 5.13 g/m*3 4.7 C 1.6 km/h
870 31-03-2020 01:25:00 4.6 C 5.16 g/m*3 4.6 C 1.6 km/h
871 31-03-2020 01:30:00 4.5 C 5.19 g/m*3 4.5 C 3.2 km/h
872 31-03-2020 01:35:00 4.5 C 5.26 g/m*3 4.5 C 0 km/h
873 31-03-2020 01:40:00 4.5 C 5.26 g/m*3 3.02 C 6.4 km/h
874 31-03-2020 01:45:00 4.5 C 5.32 g/m*3 4.5 C 1.6 km/h
875 31-03-2020 01:50:00 4.6 C 5.36 g/m*3 4.6 C 1.6 km/h
Sensor: Nr:Datum:Temp:Abs-Feuchte:Windchill:Wind:
Aussen-T/F 876 31-03-2020 01:55:00 4.6 C 5.43 g/m*3 4.6 C 4.8 km/h
877 31-03-2020 02:00:00 4.6 C 5.43 g/m*3 4.6 C 3.2 km/h
878 31-03-2020 02:05:00 4.5 C 5.32 g/m*3 4.5 C 0 km/h
879 31-03-2020 02:10:00 4.4 C 5.35 g/m*3 4.4 C 4.8 km/h
880 31-03-2020 02:15:00 4.3 C 5.32 g/m*3 4.3 C 4.8 km/h
881 31-03-2020 02:20:00 4.2 C 5.35 g/m*3 4.2 C 3.2 km/h
882 31-03-2020 02:25:00 4.1 C 5.31 g/m*3 4.1 C 0 km/h
883 31-03-2020 02:30:00 4.1 C 5.38 g/m*3 4.1 C 0 km/h
884 31-03-2020 02:35:00 4.1 C 5.38 g/m*3 4.1 C 0 km/h
885 31-03-2020 02:40:00 4 C 5.34 g/m*3 4 C 0 km/h
886 31-03-2020 02:45:00 3.9 C 5.31 g/m*3 3.9 C 0 km/h
887 31-03-2020 02:50:00 3.8 C 5.27 g/m*3 3.8 C 0 km/h
888 31-03-2020 02:55:00 3.6 C 5.2 g/m*3 3.6 C 0 km/h
889 31-03-2020 03:00:00 3.4 C 5.19 g/m*3 3.4 C 1.6 km/h
890 31-03-2020 03:05:00 3.4 C 5.25 g/m*3 3.4 C 0 km/h
891 31-03-2020 03:10:00 3.3 C 5.22 g/m*3 3.3 C 0 km/h
892 31-03-2020 03:15:00 3.2 C 5.18 g/m*3 3.2 C 3.2 km/h
893 31-03-2020 03:20:00 3.2 C 5.24 g/m*3 3.2 C 3.2 km/h
894 31-03-2020 03:25:00 3.1 C 5.21 g/m*3 3.1 C 1.6 km/h
895 31-03-2020 03:30:00 3.1 C 5.27 g/m*3 3.1 C 1.6 km/h
896 31-03-2020 03:35:00 3.1 C 5.27 g/m*3 3.1 C 1.6 km/h
897 31-03-2020 03:40:00 3.1 C 5.27 g/m*3 3.1 C 0 km/h
898 31-03-2020 03:45:00 3 C 5.23 g/m*3 3 C 0 km/h
899 31-03-2020 03:50:00 2.9 C 5.2 g/m*3 2.9 C 0 km/h
900 31-03-2020 03:55:00 2.9 C 5.26 g/m*3 2.9 C 0 km/h
Sensor: Nr:Datum:Temp:Abs-Feuchte:Windchill:Wind:
Aussen-T/F 901 31-03-2020 04:00:00 3 C 5.29 g/m*3 3 C 0 km/h
902 31-03-2020 04:05:00 3.1 C 5.39 g/m*3 3.1 C 0 km/h
903 31-03-2020 04:10:00 3.2 C 5.42 g/m*3 3.2 C 0 km/h
904 31-03-2020 04:15:00 3.2 C 5.42 g/m*3 3.2 C 0 km/h
905 31-03-2020 04:20:00 3.3 C 5.46 g/m*3 3.3 C 1.6 km/h
906 31-03-2020 04:25:00 3.4 C 5.5 g/m*3 3.4 C 0 km/h
907 31-03-2020 04:30:00 3.4 C 5.5 g/m*3 3.4 C 0 km/h
908 31-03-2020 04:35:00 3.4 C 5.5 g/m*3 3.4 C 0 km/h
909 31-03-2020 04:40:00 3.5 C 5.53 g/m*3 3.5 C 0 km/h
910 31-03-2020 04:45:00 3.5 C 5.53 g/m*3 3.5 C 0 km/h
911 31-03-2020 04:50:00 3.6 C 5.57 g/m*3 3.6 C 1.6 km/h
912 31-03-2020 04:55:00 3.6 C 5.57 g/m*3 3.6 C 0 km/h
913 31-03-2020 05:00:00 3.7 C 5.61 g/m*3 3.7 C 0 km/h
914 31-03-2020 05:05:00 3.7 C 5.61 g/m*3 3.7 C 0 km/h
915 31-03-2020 05:10:00 3.7 C 5.55 g/m*3 3.7 C 0 km/h
916 31-03-2020 05:15:00 3.7 C 5.55 g/m*3 3.7 C 0 km/h
917 31-03-2020 05:20:00 3.6 C 5.51 g/m*3 3.6 C 0 km/h
918 31-03-2020 05:25:00 3.4 C 5.44 g/m*3 3.4 C 0 km/h
919 31-03-2020 05:30:00 3.3 C 5.4 g/m*3 3.3 C 0 km/h
920 31-03-2020 05:35:00 3.2 C 5.36 g/m*3 3.2 C 1.6 km/h
921 31-03-2020 05:40:00 3.1 C 5.27 g/m*3 3.1 C 1.6 km/h
922 31-03-2020 05:45:00 2.8 C 5.16 g/m*3 2.8 C 1.6 km/h
923 31-03-2020 05:50:00 2.7 C 5.13 g/m*3 2.7 C 0 km/h
924 31-03-2020 05:55:00 2.4 C 5.02 g/m*3 2.4 C 3.2 km/h
925 31-03-2020 06:00:00 2.3 C 4.99 g/m*3 2.3 C 3.2 km/h
Sensor: Nr:Datum:Temp:Abs-Feuchte:Windchill:Wind:
Aussen-T/F 926 31-03-2020 06:05:00 2.2 C 5.01 g/m*3 2.2 C 1.6 km/h
927 31-03-2020 06:10:00 2.1 C 4.98 g/m*3 2.1 C 1.6 km/h
928 31-03-2020 06:15:00 1.9 C 4.91 g/m*3 1.9 C 0 km/h
929 31-03-2020 06:20:00 1.9 C 4.97 g/m*3 1.9 C 0 km/h
930 31-03-2020 06:25:00 1.9 C 4.97 g/m*3 1.9 C 0 km/h
931 31-03-2020 06:30:00 2 C 5.06 g/m*3 2 C 0 km/h
932 31-03-2020 06:35:00 2.2 C 5.18 g/m*3 2.2 C 0 km/h
933 31-03-2020 06:40:00 2.3 C 5.22 g/m*3 2.3 C 0 km/h
934 31-03-2020 06:45:00 2.3 C 5.22 g/m*3 2.3 C 0 km/h
935 31-03-2020 06:50:00 2.4 C 5.25 g/m*3 2.4 C 0 km/h
936 31-03-2020 06:55:00 2.5 C 5.29 g/m*3 2.5 C 0 km/h
937 31-03-2020 07:00:00 2.6 C 5.32 g/m*3 2.6 C 0 km/h
938 31-03-2020 07:05:00 2.6 C 5.32 g/m*3 2.6 C 0 km/h
939 31-03-2020 07:10:00 2.7 C 5.36 g/m*3 2.7 C 0 km/h
940 31-03-2020 07:15:00 2.7 C 5.36 g/m*3 2.7 C 0 km/h
941 31-03-2020 07:20:00 2.7 C 5.36 g/m*3 2.7 C 0 km/h
942 31-03-2020 07:25:00 2.7 C 5.36 g/m*3 2.7 C 0 km/h
943 31-03-2020 07:30:00 2.7 C 5.36 g/m*3 2.7 C 0 km/h
944 31-03-2020 07:35:00 2.7 C 5.36 g/m*3 2.7 C 0 km/h
945 31-03-2020 07:40:00 2.7 C 5.36 g/m*3 2.7 C 0 km/h
946 31-03-2020 07:45:00 2.6 C 5.27 g/m*3 2.6 C 0 km/h
947 31-03-2020 07:50:00 2.6 C 5.32 g/m*3 2.6 C 0 km/h
948 31-03-2020 07:55:00 2.6 C 5.32 g/m*3 2.6 C 0 km/h
949 31-03-2020 08:00:00 2.7 C 5.36 g/m*3 2.7 C 0 km/h
950 31-03-2020 08:05:00 2.8 C 5.4 g/m*3 2.8 C 0 km/h
Sensor: Nr:Datum:Temp:Abs-Feuchte:Windchill:Wind:
Aussen-T/F 951 31-03-2020 08:10:00 2.9 C 5.43 g/m*3 2.9 C 0 km/h
952 31-03-2020 08:15:00 3.1 C 5.57 g/m*3 3.1 C 0 km/h
953 31-03-2020 08:20:00 3.3 C 5.58 g/m*3 3.3 C 0 km/h
954 31-03-2020 08:25:00 3.4 C 5.62 g/m*3 3.4 C 0 km/h
955 31-03-2020 08:30:00 3.6 C 5.63 g/m*3 3.6 C 0 km/h
956 31-03-2020 08:35:00 3.7 C 5.67 g/m*3 3.7 C 1.6 km/h
957 31-03-2020 08:40:00 3.8 C 5.58 g/m*3 2.21 C 6.4 km/h
958 31-03-2020 08:45:00 3.9 C 5.49 g/m*3 1.82 C 8.1 km/h
959 31-03-2020 08:50:00 4.1 C 5.44 g/m*3 2.05 C 8.1 km/h
960 31-03-2020 08:55:00 4.2 C 5.35 g/m*3 2.67 C 6.4 km/h
961 31-03-2020 09:00:00 4.3 C 5.25 g/m*3 1.55 C 11.3 km/h
962 31-03-2020 09:05:00 4.4 C 5.22 g/m*3 2.4 C 8.1 km/h
963 31-03-2020 09:10:00 4.4 C 5.09 g/m*3 4.4 C 4.8 km/h
964 31-03-2020 09:15:00 4.4 C 5.09 g/m*3 2.9 C 6.4 km/h
965 31-03-2020 09:20:00 4.4 C 5.03 g/m*3 2.01 C 9.7 km/h
966 31-03-2020 09:25:00 4.5 C 5.06 g/m*3 2.52 C 8.1 km/h
967 31-03-2020 09:30:00 4.5 C 5.06 g/m*3 4.5 C 4.8 km/h
968 31-03-2020 09:35:00 4.6 C 5.03 g/m*3 2.64 C 8.1 km/h
969 31-03-2020 09:40:00 4.6 C 4.96 g/m*3 3.13 C 6.4 km/h
970 31-03-2020 09:45:00 4.6 C 5.03 g/m*3 4.6 C 4.8 km/h
971 31-03-2020 09:50:00 4.7 C 4.86 g/m*3 1.73 C 12.9 km/h
972 31-03-2020 09:55:00 4.8 C 5.03 g/m*3 4.8 C 4.8 km/h
973 31-03-2020 10:00:00 4.9 C 5 g/m*3 3.48 C 6.4 km/h
974 31-03-2020 10:05:00 4.9 C 4.86 g/m*3 2.27 C 11.3 km/h
975 31-03-2020 10:10:00 4.9 C 4.93 g/m*3 2.27 C 11.3 km/h
Sensor: Nr:Datum:Temp:Abs-Feuchte:Windchill:Wind:
Aussen-T/F 976 31-03-2020 10:15:00 4.9 C 4.93 g/m*3 2.99 C 8.1 km/h
977 31-03-2020 10:20:00 4.9 C 4.93 g/m*3 2.27 C 11.3 km/h
978 31-03-2020 10:25:00 4.9 C 4.86 g/m*3 4.9 C 4.8 km/h
979 31-03-2020 10:30:00 4.8 C 4.83 g/m*3 4.8 C 4.8 km/h
980 31-03-2020 10:35:00 4.8 C 4.83 g/m*3 1.58 C 14.5 km/h
981 31-03-2020 10:40:00 4.8 C 4.76 g/m*3 2.49 C 9.7 km/h
982 31-03-2020 10:45:00 4.8 C 4.76 g/m*3 2.49 C 9.7 km/h
983 31-03-2020 10:50:00 4.8 C 4.69 g/m*3 2.87 C 8.1 km/h
984 31-03-2020 10:55:00 4.8 C 4.69 g/m*3 2.49 C 9.7 km/h
985 31-03-2020 11:00:00 4.8 C 4.69 g/m*3 2.49 C 9.7 km/h
986 31-03-2020 11:05:00 4.8 C 4.69 g/m*3 2.87 C 8.1 km/h
987 31-03-2020 11:10:00 4.8 C 4.63 g/m*3 1.11 C 17.7 km/h
988 31-03-2020 11:15:00 4.9 C 4.59 g/m*3 2.61 C 9.7 km/h
989 31-03-2020 11:20:00 5.1 C 4.65 g/m*3 2.84 C 9.7 km/h
990 31-03-2020 11:25:00 5.2 C 4.61 g/m*3 2.96 C 9.7 km/h
991 31-03-2020 11:30:00 5.4 C 4.6 g/m*3 4.06 C 6.4 km/h
992 31-03-2020 11:35:00 5.5 C 4.57 g/m*3 3.32 C 9.7 km/h
993 31-03-2020 11:40:00 5.6 C 4.52 g/m*3 2.83 C 12.9 km/h
994 31-03-2020 11:45:00 5.6 C 4.52 g/m*3 2.83 C 12.9 km/h
995 31-03-2020 11:50:00 5.6 C 4.52 g/m*3 2.33 C 16.1 km/h
996 31-03-2020 11:55:00 5.7 C 4.41 g/m*3 2.95 C 12.9 km/h
997 31-03-2020 12:00:00 5.8 C 4.44 g/m*3 4.52 C 6.4 km/h
998 31-03-2020 12:05:00 5.9 C 4.4 g/m*3 4.17 C 8.1 km/h
999 31-03-2020 12:10:00 6 C 4.43 g/m*3 6 C 3.2 km/h
1000 31-03-2020 12:15:00 6.3 C 4.29 g/m*3 3.68 C 12.9 km/h
Sensor: Nr:Datum:Temp:Abs-Feuchte:Windchill:Wind:
Aussen-T/F 1001 31-03-2020 12:20:00 6.6 C 4.23 g/m*3 4.32 C 11.3 km/h
1002 31-03-2020 12:25:00 6.6 C 4.15 g/m*3 3.57 C 16.1 km/h
1003 31-03-2020 12:30:00 6.8 C 4.21 g/m*3 4.29 C 12.9 km/h
1004 31-03-2020 12:35:00 6.9 C 4.08 g/m*3 4.68 C 11.3 km/h
1005 31-03-2020 12:40:00 7.2 C 4.24 g/m*3 4.31 C 16.1 km/h
1006 31-03-2020 12:45:00 7.2 C 4.16 g/m*3 4.77 C 12.9 km/h
1007 31-03-2020 12:50:00 7.2 C 4.16 g/m*3 5.04 C 11.3 km/h
1008 31-03-2020 12:55:00 7.2 C 4.24 g/m*3 5.35 C 9.7 km/h
1009 31-03-2020 13:00:00 7.2 C 4.08 g/m*3 4.53 C 14.5 km/h
1010 31-03-2020 13:05:00 7.1 C 3.98 g/m*3 5.23 C 9.7 km/h
1011 31-03-2020 13:10:00 6.9 C 3.93 g/m*3 5.34 C 8.1 km/h
1012 31-03-2020 13:15:00 7 C 3.95 g/m*3 5.11 C 9.7 km/h
1013 31-03-2020 13:20:00 7 C 3.8 g/m*3 4.8 C 11.3 km/h
1014 31-03-2020 13:25:00 7.1 C 3.82 g/m*3 4.65 C 12.9 km/h
1015 31-03-2020 13:30:00 7.2 C 3.77 g/m*3 5.69 C 8.1 km/h
1016 31-03-2020 13:35:00 7.4 C 3.82 g/m*3 5.02 C 12.9 km/h
1017 31-03-2020 13:40:00 7.7 C 3.73 g/m*3 4.73 C 17.7 km/h
1018 31-03-2020 13:45:00 7.7 C 3.57 g/m*3 5.38 C 12.9 km/h
1019 31-03-2020 13:50:00 7.8 C 3.59 g/m*3 5.51 C 12.9 km/h
1020 31-03-2020 13:55:00 8 C 3.55 g/m*3 5.75 C 12.9 km/h
1021 31-03-2020 14:00:00 8.2 C 3.6 g/m*3 5.55 C 16.1 km/h
1022 31-03-2020 14:05:00 8.2 C 3.6 g/m*3 5.99 C 12.9 km/h
1023 31-03-2020 14:10:00 8.2 C 3.68 g/m*3 5.76 C 14.5 km/h
1024 31-03-2020 14:15:00 8.5 C 3.76 g/m*3 6.61 C 11.3 km/h
1025 31-03-2020 14:20:00 8.8 C 3.92 g/m*3 6.97 C 11.3 km/h
Sensor: Nr:Datum:Temp:Abs-Feuchte:Windchill:Wind:
Aussen-T/F 1026 31-03-2020 14:25:00 8.8 C 3.83 g/m*3 5.93 C 19.3 km/h
1027 31-03-2020 14:30:00 8.7 C 3.81 g/m*3 6.17 C 16.1 km/h
1028 31-03-2020 14:35:00 8.8 C 3.74 g/m*3 6.72 C 12.9 km/h
1029 31-03-2020 14:40:00 8.7 C 3.63 g/m*3 6.17 C 16.1 km/h
1030 31-03-2020 14:45:00 8.8 C 3.66 g/m*3 6.72 C 12.9 km/h
1031 31-03-2020 14:50:00 8.8 C 3.66 g/m*3 6.5 C 14.5 km/h
1032 31-03-2020 14:55:00 8.8 C 3.66 g/m*3 6.97 C 11.3 km/h
1033 31-03-2020 15:00:00 8.9 C 3.68 g/m*3 6.85 C 12.9 km/h
1034 31-03-2020 15:05:00 8.9 C 3.42 g/m*3 7.09 C 11.3 km/h
1035 31-03-2020 15:10:00 8.8 C 3.66 g/m*3 6.3 C 16.1 km/h
1036 31-03-2020 15:15:00 8.9 C 3.59 g/m*3 6.62 C 14.5 km/h
1037 31-03-2020 15:20:00 8.9 C 3.59 g/m*3 6.62 C 14.5 km/h
1038 31-03-2020 15:25:00 9 C 3.61 g/m*3 8.21 C 6.4 km/h
1039 31-03-2020 15:30:00 9.1 C 3.64 g/m*3 7.33 C 11.3 km/h
1040 31-03-2020 15:35:00 9.1 C 3.55 g/m*3 7.33 C 11.3 km/h
1041 31-03-2020 15:40:00 9.1 C 3.55 g/m*3 6.31 C 19.3 km/h
1042 31-03-2020 15:45:00 9.2 C 3.57 g/m*3 7.21 C 12.9 km/h
1043 31-03-2020 15:50:00 9.3 C 3.5 g/m*3 7.12 C 14.5 km/h
1044 31-03-2020 15:55:00 9.3 C 3.5 g/m*3 7.33 C 12.9 km/h
1045 31-03-2020 16:00:00 9.5 C 3.64 g/m*3 7.58 C 12.9 km/h
1046 31-03-2020 16:05:00 9.6 C 3.57 g/m*3 7.94 C 11.3 km/h
1047 31-03-2020 16:10:00 9.6 C 3.48 g/m*3 6.94 C 19.3 km/h
1048 31-03-2020 16:15:00 9.6 C 3.57 g/m*3 8.52 C 8.1 km/h
1049 31-03-2020 16:20:00 9.7 C 3.6 g/m*3 7.41 C 16.1 km/h
1050 31-03-2020 16:25:00 9.8 C 3.43 g/m*3 7.54 C 16.1 km/h
Sensor: Nr:Datum:Temp:Abs-Feuchte:Windchill:Wind:
Aussen-T/F 1051 31-03-2020 16:30:00 9.9 C 3.45 g/m*3 7.66 C 16.1 km/h
1052 31-03-2020 16:35:00 10 C 3.66 g/m*3 8.19 C 12.9 km/h
1053 31-03-2020 16:40:00 10.1 C 3.5 g/m*3 7.42 C 20.9 km/h
1054 31-03-2020 16:45:00 9.9 C 3.36 g/m*3 8.06 C 12.9 km/h
1055 31-03-2020 16:50:00 10 C 3.57 g/m*3 7.61 C 17.7 km/h
1056 31-03-2020 16:55:00 10.1 C 3.5 g/m*3 7.57 C 19.3 km/h
1057 31-03-2020 17:00:00 10 C 3.38 g/m*3 8.42 C 11.3 km/h
1058 31-03-2020 17:05:00 10.2 C 3.71 g/m*3 9.22 C 8.1 km/h
1059 31-03-2020 17:10:00 10.6 C 3.51 g/m*3 9.69 C 8.1 km/h
1060 31-03-2020 17:15:00 10.9 C 3.58 g/m*3 10.04 C 8.1 km/h
1061 31-03-2020 17:20:00 11.2 C 3.65 g/m*3 11.2 C 9.7 km/h
1062 31-03-2020 17:25:00 11.3 C 3.67 g/m*3 11.3 C 9.7 km/h
1063 31-03-2020 17:30:00 11.3 C 3.47 g/m*3 11.3 C 6.4 km/h
1064 31-03-2020 17:35:00 11.1 C 3.53 g/m*3 11.1 C 16.1 km/h
1065 31-03-2020 17:40:00 11.1 C 3.53 g/m*3 11.1 C 6.4 km/h
1066 31-03-2020 17:45:00 11 C 3.6 g/m*3 9.4 C 12.9 km/h
1067 31-03-2020 17:50:00 10.9 C 3.38 g/m*3 8.9 C 16.1 km/h
1068 31-03-2020 17:55:00 10.5 C 3.39 g/m*3 8.59 C 14.5 km/h
1069 31-03-2020 18:00:00 10.5 C 3.39 g/m*3 8.8 C 12.9 km/h
1070 31-03-2020 18:05:00 10.7 C 3.44 g/m*3 8.65 C 16.1 km/h
1071 31-03-2020 18:10:00 10.8 C 3.56 g/m*3 10.8 C 4.8 km/h
1072 31-03-2020 18:15:00 11.2 C 3.65 g/m*3 11.2 C 3.2 km/h
1073 31-03-2020 18:20:00 11.3 C 3.57 g/m*3 11.3 C 16.1 km/h
1074 31-03-2020 18:25:00 10.9 C 3.48 g/m*3 9.28 C 12.9 km/h
1075 31-03-2020 18:30:00 10.7 C 3.63 g/m*3 9.52 C 9.7 km/h
Sensor: Nr:Datum:Temp:Abs-Feuchte:Windchill:Wind:
Aussen-T/F 1076 31-03-2020 18:35:00 10.7 C 3.54 g/m*3 9.81 C 8.1 km/h
1077 31-03-2020 18:40:00 10.6 C 3.51 g/m*3 9.14 C 11.3 km/h
1078 31-03-2020 18:45:00 10.6 C 3.61 g/m*3 10.6 C 4.8 km/h
1079 31-03-2020 18:50:00 10.7 C 3.44 g/m*3 10.18 C 6.4 km/h
1080 31-03-2020 18:55:00 10.6 C 3.51 g/m*3 10.6 C 4.8 km/h
1081 31-03-2020 19:00:00 10.6 C 3.51 g/m*3 9.69 C 8.1 km/h
1082 31-03-2020 19:05:00 10.3 C 3.54 g/m*3 8.78 C 11.3 km/h
1083 31-03-2020 19:10:00 10.1 C 3.4 g/m*3 8.8 C 9.7 km/h
1084 31-03-2020 19:15:00 10.1 C 3.5 g/m*3 10.1 C 3.2 km/h
1085 31-03-2020 19:20:00 10.1 C 3.5 g/m*3 9.1 C 8.1 km/h
1086 31-03-2020 19:25:00 9.9 C 3.45 g/m*3 9.9 C 3.2 km/h
1087 31-03-2020 19:30:00 9.8 C 3.53 g/m*3 9.8 C 4.8 km/h
1088 31-03-2020 19:35:00 9.7 C 3.78 g/m*3 9.7 C 1.6 km/h
1089 31-03-2020 19:40:00 9.4 C 3.71 g/m*3 9.4 C 1.6 km/h
1090 31-03-2020 19:45:00 9.2 C 3.93 g/m*3 9.2 C 1.6 km/h
1091 31-03-2020 19:50:00 8.7 C 4.06 g/m*3 8.7 C 3.2 km/h
1092 31-03-2020 19:55:00 8.2 C 4.02 g/m*3 8.2 C 3.2 km/h
1093 31-03-2020 20:00:00 7.6 C 4.11 g/m*3 7.6 C 4.8 km/h
1094 31-03-2020 20:05:00 7 C 4.03 g/m*3 7 C 4.8 km/h
1095 31-03-2020 20:10:00 6.5 C 4.05 g/m*3 6.5 C 3.2 km/h
1096 31-03-2020 20:15:00 6.1 C 4.09 g/m*3 6.1 C 3.2 km/h
1097 31-03-2020 20:20:00 5.7 C 3.99 g/m*3 5.7 C 4.8 km/h
1098 31-03-2020 20:25:00 5.3 C 4.02 g/m*3 5.3 C 4.8 km/h
1099 31-03-2020 20:30:00 5.1 C 4.04 g/m*3 5.1 C 4.8 km/h
1100 31-03-2020 20:35:00 4.8 C 4.02 g/m*3 4.8 C 3.2 km/h
Sensor: Nr:Datum:Temp:Abs-Feuchte:Windchill:Wind:
Aussen-T/F 1101 31-03-2020 20:40:00 4.6 C 4.04 g/m*3 4.6 C 3.2 km/h
1102 31-03-2020 20:45:00 4.4 C 3.98 g/m*3 4.4 C 3.2 km/h
1103 31-03-2020 20:50:00 4.2 C 3.99 g/m*3 4.2 C 4.8 km/h
1104 31-03-2020 20:55:00 4.1 C 4.03 g/m*3 4.1 C 4.8 km/h
1105 31-03-2020 21:00:00 3.9 C 3.98 g/m*3 3.9 C 4.8 km/h
1106 31-03-2020 21:05:00 3.8 C 4.02 g/m*3 3.8 C 3.2 km/h
1107 31-03-2020 21:10:00 3.7 C 3.99 g/m*3 3.7 C 1.6 km/h
1108 31-03-2020 21:15:00 3.6 C 3.96 g/m*3 3.6 C 3.2 km/h
1109 31-03-2020 21:20:00 3.5 C 3.94 g/m*3 3.5 C 4.8 km/h
1110 31-03-2020 21:25:00 3.4 C 3.97 g/m*3 3.4 C 4.8 km/h
1111 31-03-2020 21:30:00 3.3 C 3.88 g/m*3 3.3 C 3.2 km/h
1112 31-03-2020 21:35:00 3.3 C 3.94 g/m*3 3.3 C 3.2 km/h
1113 31-03-2020 21:40:00 3.2 C 3.98 g/m*3 3.2 C 3.2 km/h
1114 31-03-2020 21:45:00 3.1 C 3.95 g/m*3 1.4 C 6.4 km/h
1115 31-03-2020 21:50:00 3 C 3.92 g/m*3 3 C 4.8 km/h
1116 31-03-2020 21:55:00 2.9 C 3.9 g/m*3 2.9 C 3.2 km/h
1117 31-03-2020 22:00:00 2.8 C 3.87 g/m*3 2.8 C 4.8 km/h
1118 31-03-2020 22:05:00 2.8 C 3.93 g/m*3 2.8 C 3.2 km/h
1119 31-03-2020 22:10:00 2.7 C 3.9 g/m*3 2.7 C 4.8 km/h
1120 31-03-2020 22:15:00 2.6 C 3.94 g/m*3 2.6 C 4.8 km/h
1121 31-03-2020 22:20:00 2.5 C 3.91 g/m*3 2.5 C 4.8 km/h
1122 31-03-2020 22:25:00 2.4 C 3.88 g/m*3 2.4 C 4.8 km/h
1123 31-03-2020 22:30:00 2.3 C 3.86 g/m*3 2.3 C 4.8 km/h
1124 31-03-2020 22:35:00 2.3 C 3.91 g/m*3 2.3 C 4.8 km/h
1125 31-03-2020 22:40:00 2.2 C 3.89 g/m*3 2.2 C 4.8 km/h
Sensor: Nr:Datum:Temp:Abs-Feuchte:Windchill:Wind:
Aussen-T/F 1126 31-03-2020 22:45:00 2.2 C 3.94 g/m*3 2.2 C 4.8 km/h
1127 31-03-2020 22:50:00 2.1 C 3.86 g/m*3 2.1 C 4.8 km/h
1128 31-03-2020 22:55:00 2 C 3.89 g/m*3 2 C 3.2 km/h
1129 31-03-2020 23:00:00 1.9 C 3.86 g/m*3 1.9 C 4.8 km/h
1130 31-03-2020 23:05:00 1.8 C 3.89 g/m*3 1.8 C 3.2 km/h
1131 31-03-2020 23:10:00 1.7 C 3.87 g/m*3 1.7 C 4.8 km/h
1132 31-03-2020 23:15:00 1.7 C 3.92 g/m*3 1.7 C 4.8 km/h
1133 31-03-2020 23:20:00 1.6 C 3.89 g/m*3 1.6 C 3.2 km/h
1134 31-03-2020 23:25:00 1.4 C 3.89 g/m*3 1.4 C 3.2 km/h
1135 31-03-2020 23:30:00 1.3 C 3.87 g/m*3 1.3 C 4.8 km/h
1136 31-03-2020 23:35:00 1.2 C 3.84 g/m*3 1.2 C 4.8 km/h
1137 31-03-2020 23:40:00 1.2 C 3.89 g/m*3 1.2 C 4.8 km/h
1138 31-03-2020 23:45:00 1.1 C 3.87 g/m*3 1.1 C 3.2 km/h
1139 31-03-2020 23:50:00 1.1 C 3.87 g/m*3 1.1 C 3.2 km/h
1140 31-03-2020 23:55:00 1.1 C 3.87 g/m*3 1.1 C 3.2 km/h
1141 01-04-2020 00:00:00 1 C 3.84 g/m*3 1 C 3.2 km/h
1142 01-04-2020 00:05:00 0.9 C 3.81 g/m*3 0.9 C 1.6 km/h
1143 01-04-2020 00:10:00 0.8 C 3.84 g/m*3 0.8 C 1.6 km/h
1144 01-04-2020 00:15:00 0.8 C 3.84 g/m*3 0.8 C 3.2 km/h
1145 01-04-2020 00:20:00 0.7 C 3.81 g/m*3 0.7 C 3.2 km/h
1146 01-04-2020 00:25:00 0.6 C 3.79 g/m*3 0.6 C 4.8 km/h
1147 01-04-2020 00:30:00 0.6 C 3.79 g/m*3 0.6 C 4.8 km/h
1148 01-04-2020 00:35:00 0.4 C 3.74 g/m*3 0.4 C 1.6 km/h
1149 01-04-2020 00:40:00 0.4 C 3.74 g/m*3 0.4 C 3.2 km/h
1150 01-04-2020 00:45:00 0.3 C 3.76 g/m*3 0.3 C 4.8 km/h
Sensor: Nr:Datum:Temp:Abs-Feuchte:Windchill:Wind:
Aussen-T/F 1151 01-04-2020 00:50:00 0.3 C 3.71 g/m*3 0.3 C 0 km/h
1152 01-04-2020 00:55:00 0.3 C 3.76 g/m*3 0.3 C 3.2 km/h
1153 01-04-2020 01:00:00 0.2 C 3.73 g/m*3 0.2 C 3.2 km/h
1154 01-04-2020 01:05:00 0.2 C 3.78 g/m*3 0.2 C 3.2 km/h
1155 01-04-2020 01:10:00 0.1 C 3.76 g/m*3 0.1 C 3.2 km/h
1156 01-04-2020 01:15:00 0.1 C 3.81 g/m*3 0.1 C 0 km/h
1157 01-04-2020 01:20:00 0 C 3.78 g/m*3 0 C 0 km/h
1158 01-04-2020 01:25:00 -0.1 C 3.75 g/m*3 -0.1 C 0 km/h
1159 01-04-2020 01:30:00 -0.2 C 3.73 g/m*3 -0.2 C 0 km/h
1160 01-04-2020 01:35:00 -0.2 C 3.73 g/m*3 -0.2 C 1.6 km/h
1161 01-04-2020 01:40:00 -0.3 C 3.75 g/m*3 -0.3 C 0 km/h
1162 01-04-2020 01:45:00 -0.4 C 3.72 g/m*3 -0.4 C 0 km/h
1163 01-04-2020 01:50:00 -0.5 C 3.7 g/m*3 -0.5 C 0 km/h
1164 01-04-2020 01:55:00 -0.6 C 3.67 g/m*3 -0.6 C 0 km/h
1165 01-04-2020 02:00:00 -0.7 C 3.65 g/m*3 -0.7 C 0 km/h
1166 01-04-2020 02:05:00 -0.8 C 3.62 g/m*3 -0.8 C 0 km/h
1167 01-04-2020 02:10:00 -0.8 C 3.67 g/m*3 -0.8 C 0 km/h
1168 01-04-2020 02:15:00 -0.9 C 3.64 g/m*3 -0.9 C 0 km/h
1169 01-04-2020 02:20:00 -0.9 C 3.64 g/m*3 -0.9 C 0 km/h
1170 01-04-2020 02:25:00 -1 C 3.62 g/m*3 -1 C 0 km/h
1171 01-04-2020 02:30:00 -1.1 C 3.59 g/m*3 -1.1 C 0 km/h
1172 01-04-2020 02:35:00 -1.1 C 3.59 g/m*3 -1.1 C 0 km/h
1173 01-04-2020 02:40:00 -1.2 C 3.57 g/m*3 -1.2 C 0 km/h
1174 01-04-2020 02:45:00 -1.2 C 3.61 g/m*3 -1.2 C 0 km/h
1175 01-04-2020 02:50:00 -1.3 C 3.59 g/m*3 -1.3 C 0 km/h
Sensor: Nr:Datum:Temp:Abs-Feuchte:Windchill:Wind:
Aussen-T/F 1176 01-04-2020 02:55:00 -1.3 C 3.59 g/m*3 -1.3 C 0 km/h
1177 01-04-2020 03:00:00 -1.3 C 3.59 g/m*3 -1.3 C 0 km/h
1178 01-04-2020 03:05:00 -1.4 C 3.52 g/m*3 -1.4 C 0 km/h
1179 01-04-2020 03:10:00 -1.4 C 3.52 g/m*3 -1.4 C 0 km/h
1180 01-04-2020 03:15:00 -1.5 C 3.49 g/m*3 -1.5 C 0 km/h
1181 01-04-2020 03:20:00 -1.6 C 3.51 g/m*3 -1.6 C 0 km/h
1182 01-04-2020 03:25:00 -1.7 C 3.49 g/m*3 -1.7 C 0 km/h
1183 01-04-2020 03:30:00 -1.7 C 3.49 g/m*3 -1.7 C 0 km/h
1184 01-04-2020 03:35:00 -1.7 C 3.49 g/m*3 -1.7 C 0 km/h
1185 01-04-2020 03:40:00 -1.8 C 3.46 g/m*3 -1.8 C 0 km/h
1186 01-04-2020 03:45:00 -1.8 C 3.42 g/m*3 -1.8 C 0 km/h
1187 01-04-2020 03:50:00 -1.9 C 3.44 g/m*3 -1.9 C 0 km/h
1188 01-04-2020 03:55:00 -1.9 C 3.44 g/m*3 -1.9 C 0 km/h
1189 01-04-2020 04:00:00 -1.9 C 3.44 g/m*3 -1.9 C 0 km/h
1190 01-04-2020 04:05:00 -1.9 C 3.44 g/m*3 -1.9 C 0 km/h
1191 01-04-2020 04:10:00 -2 C 3.41 g/m*3 -2 C 0 km/h
1192 01-04-2020 04:15:00 -2.1 C 3.39 g/m*3 -2.1 C 0 km/h
1193 01-04-2020 04:20:00 -2.1 C 3.39 g/m*3 -2.1 C 0 km/h
1194 01-04-2020 04:25:00 -2.2 C 3.33 g/m*3 -2.2 C 0 km/h
1195 01-04-2020 04:30:00 -2.2 C 3.37 g/m*3 -2.2 C 0 km/h
1196 01-04-2020 04:35:00 -2.3 C 3.34 g/m*3 -2.3 C 0 km/h
1197 01-04-2020 04:40:00 -2.3 C 3.34 g/m*3 -2.3 C 0 km/h
1198 01-04-2020 04:45:00 -2.3 C 3.34 g/m*3 -2.3 C 0 km/h
1199 01-04-2020 04:50:00 -2.4 C 3.32 g/m*3 -2.4 C 0 km/h
1200 01-04-2020 04:55:00 -2.4 C 3.32 g/m*3 -2.4 C 0 km/h
Sensor: Nr:Datum:Temp:Abs-Feuchte:Windchill:Wind:
Aussen-T/F 1201 01-04-2020 05:00:00 -2.4 C 3.36 g/m*3 -2.4 C 0 km/h
1202 01-04-2020 05:05:00 -2.5 C 3.34 g/m*3 -2.5 C 0 km/h
1203 01-04-2020 05:10:00 -2.6 C 3.31 g/m*3 -2.6 C 0 km/h
1204 01-04-2020 05:15:00 -2.6 C 3.31 g/m*3 -2.6 C 0 km/h
1205 01-04-2020 05:20:00 -2.7 C 3.29 g/m*3 -2.7 C 0 km/h
1206 01-04-2020 05:25:00 -2.7 C 3.33 g/m*3 -2.7 C 0 km/h
1207 01-04-2020 05:30:00 -2.7 C 3.33 g/m*3 -2.7 C 0 km/h
1208 01-04-2020 05:35:00 -2.7 C 3.33 g/m*3 -2.7 C 0 km/h
1209 01-04-2020 05:40:00 -2.7 C 3.33 g/m*3 -2.7 C 0 km/h
1210 01-04-2020 05:45:00 -2.8 C 3.31 g/m*3 -2.8 C 0 km/h
1211 01-04-2020 05:50:00 -2.8 C 3.31 g/m*3 -2.8 C 0 km/h
1212 01-04-2020 05:55:00 -2.8 C 3.31 g/m*3 -2.8 C 0 km/h
1213 01-04-2020 06:00:00 -2.9 C 3.28 g/m*3 -2.9 C 0 km/h
1214 01-04-2020 06:05:00 -2.9 C 3.28 g/m*3 -2.9 C 0 km/h
1215 01-04-2020 06:10:00 -2.9 C 3.32 g/m*3 -2.9 C 0 km/h
1216 01-04-2020 06:15:00 -3 C 3.3 g/m*3 -3 C 0 km/h
1217 01-04-2020 06:20:00 -3 C 3.3 g/m*3 -3 C 0 km/h
1218 01-04-2020 06:25:00 -3.1 C 3.28 g/m*3 -3.1 C 0 km/h
1219 01-04-2020 06:30:00 -3.1 C 3.28 g/m*3 -3.1 C 0 km/h
1220 01-04-2020 06:35:00 -3.1 C 3.32 g/m*3 -3.1 C 0 km/h
1221 01-04-2020 06:40:00 -3.1 C 3.32 g/m*3 -3.1 C 0 km/h
1222 01-04-2020 06:45:00 -3.1 C 3.32 g/m*3 -3.1 C 0 km/h
1223 01-04-2020 06:50:00 -3.2 C 3.29 g/m*3 -3.2 C 0 km/h
1224 01-04-2020 06:55:00 -3.2 C 3.29 g/m*3 -3.2 C 0 km/h
1225 01-04-2020 07:00:00 -3.2 C 3.29 g/m*3 -3.2 C 0 km/h
Sensor: Nr:Datum:Temp:Abs-Feuchte:Windchill:Wind:
Aussen-T/F 1226 01-04-2020 07:05:00 -3.3 C 3.27 g/m*3 -3.3 C 0 km/h
1227 01-04-2020 07:10:00 -3.3 C 3.27 g/m*3 -3.3 C 0 km/h
1228 01-04-2020 07:15:00 -3.4 C 3.25 g/m*3 -3.4 C 0 km/h
1229 01-04-2020 07:20:00 -3.4 C 3.25 g/m*3 -3.4 C 0 km/h
1230 01-04-2020 07:25:00 -3.4 C 3.25 g/m*3 -3.4 C 0 km/h
1231 01-04-2020 07:30:00 -3.4 C 3.28 g/m*3 -3.4 C 0 km/h
1232 01-04-2020 07:35:00 -3.3 C 3.31 g/m*3 -3.3 C 0 km/h
1233 01-04-2020 07:40:00 -3.3 C 3.27 g/m*3 -3.3 C 0 km/h
1234 01-04-2020 07:45:00 -3.3 C 3.27 g/m*3 -3.3 C 0 km/h
1235 01-04-2020 07:50:00 -3.3 C 3.31 g/m*3 -3.3 C 0 km/h
1236 01-04-2020 07:55:00 -3.3 C 3.31 g/m*3 -3.3 C 0 km/h
1237 01-04-2020 08:00:00 -3.2 C 3.33 g/m*3 -3.2 C 0 km/h
1238 01-04-2020 08:05:00 -3.2 C 3.33 g/m*3 -3.2 C 0 km/h
1239 01-04-2020 08:10:00 -3.2 C 3.33 g/m*3 -3.2 C 0 km/h
1240 01-04-2020 08:15:00 -3.1 C 3.39 g/m*3 -3.1 C 0 km/h
1241 01-04-2020 08:20:00 -2.9 C 3.44 g/m*3 -2.9 C 0 km/h
1242 01-04-2020 08:25:00 -2.9 C 3.44 g/m*3 -2.9 C 0 km/h
1243 01-04-2020 08:30:00 -2.9 C 3.4 g/m*3 -2.9 C 0 km/h
1244 01-04-2020 08:35:00 -2.8 C 3.43 g/m*3 -2.8 C 0 km/h
1245 01-04-2020 08:40:00 -2.8 C 3.43 g/m*3 -2.8 C 0 km/h
1246 01-04-2020 08:45:00 -2.8 C 3.43 g/m*3 -2.8 C 0 km/h
1247 01-04-2020 08:50:00 -2.8 C 3.43 g/m*3 -2.8 C 0 km/h
1248 01-04-2020 08:55:00 -2.7 C 3.45 g/m*3 -2.7 C 0 km/h
1249 01-04-2020 09:00:00 -2.6 C 3.43 g/m*3 -2.6 C 0 km/h
1250 01-04-2020 09:05:00 -2.6 C 3.43 g/m*3 -2.6 C 0 km/h
Sensor: Nr:Datum:Temp:Abs-Feuchte:Windchill:Wind:
Aussen-T/F 1251 01-04-2020 09:10:00 -2.4 C 3.48 g/m*3 -2.4 C 0 km/h
1252 01-04-2020 09:15:00 -2.3 C 3.51 g/m*3 -2.3 C 0 km/h
1253 01-04-2020 09:20:00 -2.3 C 3.51 g/m*3 -2.3 C 0 km/h
1254 01-04-2020 09:25:00 -2.2 C 3.53 g/m*3 -2.2 C 0 km/h
1255 01-04-2020 09:30:00 -2.1 C 3.56 g/m*3 -2.1 C 0 km/h
1256 01-04-2020 09:35:00 -1.9 C 3.57 g/m*3 -1.9 C 0 km/h
1257 01-04-2020 09:40:00 -1.8 C 3.59 g/m*3 -1.8 C 0 km/h
1258 01-04-2020 09:45:00 -1.7 C 3.62 g/m*3 -1.7 C 1.6 km/h
1259 01-04-2020 09:50:00 -1.7 C 3.62 g/m*3 -1.7 C 1.6 km/h
1260 01-04-2020 09:55:00 -1.6 C 3.64 g/m*3 -1.6 C 0 km/h
1261 01-04-2020 10:00:00 -1.4 C 3.69 g/m*3 -1.4 C 1.6 km/h
1262 01-04-2020 10:05:00 -1.3 C 3.72 g/m*3 -1.3 C 0 km/h
1263 01-04-2020 10:10:00 -1.1 C 3.77 g/m*3 -1.1 C 0 km/h
1264 01-04-2020 10:15:00 -0.9 C 3.82 g/m*3 -0.9 C 0 km/h
1265 01-04-2020 10:20:00 -0.6 C 3.9 g/m*3 -0.6 C 0 km/h
1266 01-04-2020 10:25:00 -0.3 C 3.94 g/m*3 -0.3 C 0 km/h
1267 01-04-2020 10:30:00 -0.1 C 3.99 g/m*3 -0.1 C 0 km/h
1268 01-04-2020 10:35:00 0.2 C 4.03 g/m*3 0.2 C 0 km/h
1269 01-04-2020 10:40:00 0.6 C 4.14 g/m*3 0.6 C 0 km/h
1270 01-04-2020 10:45:00 0.9 C 4.18 g/m*3 0.9 C 0 km/h
1271 01-04-2020 10:50:00 1.3 C 4.19 g/m*3 1.3 C 0 km/h
1272 01-04-2020 10:55:00 1.8 C 4.28 g/m*3 1.8 C 0 km/h
1273 01-04-2020 11:00:00 2.3 C 4.31 g/m*3 2.3 C 0 km/h
1274 01-04-2020 11:05:00 2.6 C 4.34 g/m*3 2.6 C 0 km/h
1275 01-04-2020 11:10:00 2.8 C 4.34 g/m*3 2.8 C 0 km/h
Sensor: Nr:Datum:Temp:Abs-Feuchte:Windchill:Wind:
Aussen-T/F 1276 01-04-2020 11:15:00 3.1 C 4.25 g/m*3 3.1 C 0 km/h
1277 01-04-2020 11:20:00 3.3 C 4.19 g/m*3 3.3 C 0 km/h
1278 01-04-2020 11:25:00 3.7 C 3.99 g/m*3 3.7 C 0 km/h
1279 01-04-2020 11:30:00 3.9 C 3.92 g/m*3 3.9 C 3.2 km/h
1280 01-04-2020 11:35:00 4.3 C 3.76 g/m*3 4.3 C 1.6 km/h
1281 01-04-2020 11:40:00 4.7 C 3.93 g/m*3 4.7 C 3.2 km/h
1282 01-04-2020 11:45:00 5.1 C 3.9 g/m*3 5.1 C 3.2 km/h
1283 01-04-2020 11:50:00 5.4 C 3.77 g/m*3 5.4 C 0 km/h
1284 01-04-2020 11:55:00 5.7 C 3.56 g/m*3 5.7 C 3.2 km/h
1285 01-04-2020 12:00:00 6 C 3.63 g/m*3 6 C 1.6 km/h
1286 01-04-2020 12:05:00 6.3 C 3.55 g/m*3 6.3 C 1.6 km/h
1287 01-04-2020 12:10:00 6.7 C 3.65 g/m*3 5.56 C 6.4 km/h
1288 01-04-2020 12:15:00 6.8 C 3.59 g/m*3 6.8 C 4.8 km/h
1289 01-04-2020 12:20:00 7.1 C 3.59 g/m*3 5.23 C 9.7 km/h
1290 01-04-2020 12:25:00 7.3 C 3.71 g/m*3 5.47 C 9.7 km/h
1291 01-04-2020 12:30:00 7.6 C 3.63 g/m*3 6.6 C 6.4 km/h
1292 01-04-2020 12:35:00 7.7 C 3.65 g/m*3 7.7 C 4.8 km/h
1293 01-04-2020 12:40:00 7.8 C 3.59 g/m*3 6.83 C 6.4 km/h
1294 01-04-2020 12:45:00 7.9 C 3.53 g/m*3 7.9 C 4.8 km/h
1295 01-04-2020 12:50:00 8.1 C 3.66 g/m*3 7.17 C 6.4 km/h
1296 01-04-2020 12:55:00 8.2 C 3.6 g/m*3 7.29 C 6.4 km/h
1297 01-04-2020 13:00:00 8.3 C 3.71 g/m*3 7.41 C 6.4 km/h
1298 01-04-2020 13:05:00 8.6 C 3.61 g/m*3 7.75 C 6.4 km/h
1299 01-04-2020 13:10:00 8.6 C 3.61 g/m*3 8.6 C 4.8 km/h
1300 01-04-2020 13:15:00 8.7 C 3.63 g/m*3 8.7 C 4.8 km/h
Sensor: Nr:Datum:Temp:Abs-Feuchte:Windchill:Wind:
Aussen-T/F 1301 01-04-2020 13:20:00 8.8 C 3.57 g/m*3 6.72 C 12.9 km/h
1302 01-04-2020 13:25:00 8.7 C 3.46 g/m*3 6.6 C 12.9 km/h
1303 01-04-2020 13:30:00 8.7 C 3.55 g/m*3 7.46 C 8.1 km/h
1304 01-04-2020 13:35:00 8.8 C 3.57 g/m*3 8.8 C 3.2 km/h
1305 01-04-2020 13:40:00 8.9 C 3.59 g/m*3 8.9 C 3.2 km/h
1306 01-04-2020 13:45:00 9.2 C 3.57 g/m*3 9.2 C 4.8 km/h
1307 01-04-2020 13:50:00 9.2 C 3.57 g/m*3 8.45 C 6.4 km/h
1308 01-04-2020 13:55:00 9.2 C 3.57 g/m*3 8.05 C 8.1 km/h
1309 01-04-2020 14:00:00 9.2 C 3.57 g/m*3 7.73 C 9.7 km/h
1310 01-04-2020 14:05:00 9.3 C 3.59 g/m*3 8.16 C 8.1 km/h
1311 01-04-2020 14:10:00 9.4 C 3.62 g/m*3 8.68 C 6.4 km/h
1312 01-04-2020 14:15:00 9.5 C 3.55 g/m*3 8.79 C 6.4 km/h
1313 01-04-2020 14:20:00 9.8 C 3.71 g/m*3 8.45 C 9.7 km/h
1314 01-04-2020 14:25:00 9.9 C 3.73 g/m*3 8.87 C 8.1 km/h
1315 01-04-2020 14:30:00 10.1 C 3.59 g/m*3 10.1 C 4.8 km/h
1316 01-04-2020 14:35:00 10.3 C 3.54 g/m*3 8.34 C 14.5 km/h
1317 01-04-2020 14:40:00 10.3 C 3.45 g/m*3 9.34 C 8.1 km/h
1318 01-04-2020 14:45:00 10.3 C 3.54 g/m*3 9.72 C 6.4 km/h
1319 01-04-2020 14:50:00 10.3 C 3.26 g/m*3 9.04 C 9.7 km/h
1320 01-04-2020 14:55:00 10.3 C 3.26 g/m*3 9.72 C 6.4 km/h
1321 01-04-2020 15:00:00 10.3 C 3.26 g/m*3 9.34 C 8.1 km/h
1322 01-04-2020 15:05:00 10.2 C 3.24 g/m*3 10.2 C 4.8 km/h
1323 01-04-2020 15:10:00 10.3 C 3.35 g/m*3 9.72 C 6.4 km/h
1324 01-04-2020 15:15:00 10.4 C 3.47 g/m*3 9.46 C 8.1 km/h
1325 01-04-2020 15:20:00 10.7 C 3.34 g/m*3 10.18 C 6.4 km/h
Sensor: Nr:Datum:Temp:Abs-Feuchte:Windchill:Wind:
Aussen-T/F 1326 01-04-2020 15:25:00 10.8 C 3.26 g/m*3 9.64 C 9.7 km/h
1327 01-04-2020 15:30:00 10.7 C 3.24 g/m*3 10.18 C 6.4 km/h
1328 01-04-2020 15:35:00 10.7 C 3.24 g/m*3 10.7 C 3.2 km/h
1329 01-04-2020 15:40:00 10.8 C 3.26 g/m*3 9.93 C 8.1 km/h
1330 01-04-2020 15:45:00 10.9 C 3.08 g/m*3 9.76 C 9.7 km/h
1331 01-04-2020 15:50:00 11 C 3.1 g/m*3 10.52 C 6.4 km/h
1332 01-04-2020 15:55:00 11.1 C 3.12 g/m*3 11.1 C 4.8 km/h
1333 01-04-2020 16:00:00 11.1 C 3.32 g/m*3 11.1 C 6.4 km/h
1334 01-04-2020 16:05:00 11.1 C 3.32 g/m*3 11.1 C 3.2 km/h
1335 01-04-2020 16:10:00 11.2 C 3.45 g/m*3 11.2 C 4.8 km/h
1336 01-04-2020 16:15:00 11.4 C 3.39 g/m*3 11.4 C 8.1 km/h
1337 01-04-2020 16:20:00 11.5 C 3.31 g/m*3 11.5 C 8.1 km/h
1338 01-04-2020 16:25:00 11.6 C 3.22 g/m*3 11.6 C 4.8 km/h
1339 01-04-2020 16:30:00 11.6 C 3.22 g/m*3 11.6 C 6.4 km/h
1340 01-04-2020 16:35:00 11.7 C 3.14 g/m*3 11.7 C 4.8 km/h
1341 01-04-2020 16:40:00 11.8 C 3.47 g/m*3 11.8 C 3.2 km/h
1342 01-04-2020 16:45:00 12.2 C 3.45 g/m*3 12.2 C 3.2 km/h
1343 01-04-2020 16:50:00 12.6 C 3.54 g/m*3 12.6 C 9.7 km/h
1344 01-04-2020 16:55:00 12.6 C 3.65 g/m*3 12.6 C 8.1 km/h
1345 01-04-2020 17:00:00 12.6 C 3.54 g/m*3 12.6 C 8.1 km/h
1346 01-04-2020 17:05:00 12.4 C 3.5 g/m*3 12.4 C 9.7 km/h
1347 01-04-2020 17:10:00 12.9 C 4.06 g/m*3 12.9 C 3.2 km/h
1348 01-04-2020 17:15:00 13.2 C 3.79 g/m*3 13.2 C 6.4 km/h
1349 01-04-2020 17:20:00 13.2 C 3.67 g/m*3 13.2 C 6.4 km/h
1350 01-04-2020 17:25:00 13.3 C 3.81 g/m*3 13.3 C 8.1 km/h
Sensor: Nr:Datum:Temp:Abs-Feuchte:Windchill:Wind:
Aussen-T/F 1351 01-04-2020 17:30:00 13.2 C 3.56 g/m*3 13.2 C 6.4 km/h
1352 01-04-2020 17:35:00 13.3 C 3.58 g/m*3 13.3 C 3.2 km/h
1353 01-04-2020 17:40:00 13.3 C 3.58 g/m*3 13.3 C 8.1 km/h
1354 01-04-2020 17:45:00 13.2 C 3.67 g/m*3 13.2 C 6.4 km/h
1355 01-04-2020 17:50:00 13.2 C 3.67 g/m*3 13.2 C 4.8 km/h
1356 01-04-2020 17:55:00 13.1 C 3.65 g/m*3 13.1 C 9.7 km/h
1357 01-04-2020 18:00:00 12.9 C 3.61 g/m*3 12.9 C 8.1 km/h
1358 01-04-2020 18:05:00 12.6 C 3.65 g/m*3 12.6 C 9.7 km/h
1359 01-04-2020 18:10:00 12.5 C 3.63 g/m*3 12.5 C 8.1 km/h
1360 01-04-2020 18:15:00 12.6 C 3.65 g/m*3 12.6 C 8.1 km/h
1361 01-04-2020 18:20:00 12.7 C 3.67 g/m*3 12.7 C 6.4 km/h
1362 01-04-2020 18:25:00 12.9 C 3.72 g/m*3 12.9 C 6.4 km/h
1363 01-04-2020 18:30:00 12.9 C 3.61 g/m*3 12.9 C 4.8 km/h
1364 01-04-2020 18:35:00 13 C 3.74 g/m*3 13 C 4.8 km/h
1365 01-04-2020 18:40:00 13.1 C 3.77 g/m*3 13.1 C 4.8 km/h
1366 01-04-2020 18:45:00 13.2 C 3.67 g/m*3 13.2 C 4.8 km/h
1367 01-04-2020 18:50:00 13.2 C 3.67 g/m*3 13.2 C 4.8 km/h
1368 01-04-2020 18:55:00 13.2 C 3.79 g/m*3 13.2 C 3.2 km/h
1369 01-04-2020 19:00:00 13.3 C 3.7 g/m*3 13.3 C 6.4 km/h
1370 01-04-2020 19:05:00 13 C 3.74 g/m*3 13 C 4.8 km/h
1371 01-04-2020 19:10:00 12.8 C 3.7 g/m*3 12.8 C 6.4 km/h
1372 01-04-2020 19:15:00 12.7 C 3.67 g/m*3 12.7 C 6.4 km/h
1373 01-04-2020 19:20:00 12.4 C 3.71 g/m*3 12.4 C 6.4 km/h
1374 01-04-2020 19:25:00 12.2 C 3.67 g/m*3 12.2 C 6.4 km/h
1375 01-04-2020 19:30:00 11.8 C 3.58 g/m*3 11.8 C 9.7 km/h
Sensor: Nr:Datum:Temp:Abs-Feuchte:Windchill:Wind:
Aussen-T/F 1376 01-04-2020 19:35:00 11.5 C 3.62 g/m*3 11.5 C 4.8 km/h
1377 01-04-2020 19:40:00 11.2 C 3.55 g/m*3 11.2 C 4.8 km/h
1378 01-04-2020 19:45:00 10.9 C 3.58 g/m*3 10.04 C 8.1 km/h
1379 01-04-2020 19:50:00 10.7 C 3.54 g/m*3 10.7 C 4.8 km/h
1380 01-04-2020 19:55:00 10.4 C 3.76 g/m*3 10.4 C 1.6 km/h
1381 01-04-2020 20:00:00 10.1 C 3.59 g/m*3 9.48 C 6.4 km/h
1382 01-04-2020 20:05:00 9.7 C 3.69 g/m*3 9.7 C 4.8 km/h
1383 01-04-2020 20:10:00 9.4 C 3.8 g/m*3 9.4 C 1.6 km/h
1384 01-04-2020 20:15:00 9.2 C 3.48 g/m*3 7.46 C 11.3 km/h
1385 01-04-2020 20:20:00 9.1 C 3.46 g/m*3 8.33 C 6.4 km/h
1386 01-04-2020 20:25:00 9.1 C 3.64 g/m*3 9.1 C 4.8 km/h
1387 01-04-2020 20:30:00 8.8 C 3.83 g/m*3 8.8 C 1.6 km/h
1388 01-04-2020 20:35:00 8.4 C 3.9 g/m*3 8.4 C 0 km/h
1389 01-04-2020 20:40:00 7.8 C 4 g/m*3 6.83 C 6.4 km/h
1390 01-04-2020 20:45:00 7.4 C 4.06 g/m*3 7.4 C 4.8 km/h
1391 01-04-2020 20:50:00 6.9 C 4.16 g/m*3 5.79 C 6.4 km/h
1392 01-04-2020 20:55:00 6.6 C 4.08 g/m*3 5.44 C 6.4 km/h
1393 01-04-2020 21:00:00 6.3 C 4.07 g/m*3 5.1 C 6.4 km/h
1394 01-04-2020 21:05:00 6 C 4.06 g/m*3 6 C 4.8 km/h
1395 01-04-2020 21:10:00 5.7 C 4.06 g/m*3 4.4 C 6.4 km/h
1396 01-04-2020 21:15:00 5.6 C 4.03 g/m*3 4.29 C 6.4 km/h
1397 01-04-2020 21:20:00 5.4 C 4.12 g/m*3 5.4 C 4.8 km/h
1398 01-04-2020 21:25:00 5.3 C 4.09 g/m*3 5.3 C 4.8 km/h
1399 01-04-2020 21:30:00 5.2 C 4.06 g/m*3 5.2 C 4.8 km/h
1400 01-04-2020 21:35:00 5.1 C 4.1 g/m*3 5.1 C 4.8 km/h
Sensor: Nr:Datum:Temp:Abs-Feuchte:Windchill:Wind:
Aussen-T/F 1401 01-04-2020 21:40:00 5 C 4.08 g/m*3 3.59 C 6.4 km/h
1402 01-04-2020 21:45:00 4.9 C 4.12 g/m*3 4.9 C 1.6 km/h
1403 01-04-2020 21:50:00 4.7 C 4.13 g/m*3 4.7 C 3.2 km/h
1404 01-04-2020 21:55:00 4.6 C 4.17 g/m*3 4.6 C 4.8 km/h
1405 01-04-2020 22:00:00 4.4 C 4.05 g/m*3 4.4 C 4.8 km/h
1406 01-04-2020 22:05:00 4.3 C 4.09 g/m*3 4.3 C 4.8 km/h
1407 01-04-2020 22:10:00 4.2 C 4.12 g/m*3 4.2 C 4.8 km/h
1408 01-04-2020 22:15:00 4 C 4.07 g/m*3 4 C 4.8 km/h
1409 01-04-2020 22:20:00 3.9 C 4.11 g/m*3 3.9 C 3.2 km/h
1410 01-04-2020 22:25:00 3.7 C 4.11 g/m*3 3.7 C 1.6 km/h
1411 01-04-2020 22:30:00 3.6 C 4.09 g/m*3 3.6 C 3.2 km/h
1412 01-04-2020 22:35:00 3.5 C 4.06 g/m*3 3.5 C 3.2 km/h
1413 01-04-2020 22:40:00 3.5 C 4.06 g/m*3 3.5 C 0 km/h
1414 01-04-2020 22:45:00 3.4 C 4.03 g/m*3 3.4 C 1.6 km/h
1415 01-04-2020 22:50:00 3.3 C 4.06 g/m*3 3.3 C 0 km/h
1416 01-04-2020 22:55:00 3.2 C 4.1 g/m*3 3.2 C 0 km/h
1417 01-04-2020 23:00:00 3.1 C 4.13 g/m*3 3.1 C 1.6 km/h
1418 01-04-2020 23:05:00 2.9 C 4.13 g/m*3 2.9 C 1.6 km/h
1419 01-04-2020 23:10:00 2.7 C 4.08 g/m*3 2.7 C 1.6 km/h
1420 01-04-2020 23:15:00 2.7 C 4.14 g/m*3 2.7 C 0 km/h
1421 01-04-2020 23:20:00 2.7 C 4.14 g/m*3 2.7 C 0 km/h
1422 01-04-2020 23:25:00 2.6 C 4.17 g/m*3 2.6 C 0 km/h
1423 01-04-2020 23:30:00 2.4 C 4.05 g/m*3 2.4 C 0 km/h
1424 01-04-2020 23:35:00 2.3 C 4.03 g/m*3 2.3 C 0 km/h
1425 01-04-2020 23:40:00 2.2 C 4.06 g/m*3 2.2 C 0 km/h
Sensor: Nr:Datum:Temp:Abs-Feuchte:Windchill:Wind:
Aussen-T/F 1426 01-04-2020 23:45:00 2 C 4.06 g/m*3 2 C 1.6 km/h
1427 01-04-2020 23:50:00 1.9 C 4.03 g/m*3 1.9 C 1.6 km/h
1428 01-04-2020 23:55:00 1.8 C 4 g/m*3 1.8 C 3.2 km/h
1429 02-04-2020 00:00:00 1.8 C 4 g/m*3 1.8 C 1.6 km/h
1430 02-04-2020 00:05:00 1.6 C 4 g/m*3 1.6 C 0 km/h
1431 02-04-2020 00:10:00 1.4 C 3.95 g/m*3 1.4 C 0 km/h
1432 02-04-2020 00:15:00 1.3 C 3.92 g/m*3 1.3 C 0 km/h
1433 02-04-2020 00:20:00 1.3 C 3.92 g/m*3 1.3 C 0 km/h
1434 02-04-2020 00:25:00 1.2 C 3.89 g/m*3 1.2 C 0 km/h
1435 02-04-2020 00:30:00 1.1 C 3.92 g/m*3 1.1 C 3.2 km/h
1436 02-04-2020 00:35:00 1 C 3.89 g/m*3 1 C 1.6 km/h
1437 02-04-2020 00:40:00 1 C 3.94 g/m*3 1 C 3.2 km/h
1438 02-04-2020 00:45:00 1 C 3.94 g/m*3 1 C 3.2 km/h
1439 02-04-2020 00:50:00 1 C 3.94 g/m*3 1 C 0 km/h
1440 02-04-2020 00:55:00 0.9 C 3.92 g/m*3 0.9 C 1.6 km/h
1441 02-04-2020 01:00:00 0.8 C 3.94 g/m*3 0.8 C 0 km/h
1442 02-04-2020 01:05:00 0.8 C 3.94 g/m*3 0.8 C 0 km/h
1443 02-04-2020 01:10:00 0.7 C 3.92 g/m*3 0.7 C 0 km/h
1444 02-04-2020 01:15:00 0.6 C 3.94 g/m*3 0.6 C 0 km/h
1445 02-04-2020 01:20:00 0.5 C 3.91 g/m*3 0.5 C 0 km/h
1446 02-04-2020 01:25:00 0.3 C 3.91 g/m*3 0.3 C 0 km/h
1447 02-04-2020 01:30:00 0.3 C 3.91 g/m*3 0.3 C 0 km/h
1448 02-04-2020 01:35:00 0.2 C 3.88 g/m*3 0.2 C 0 km/h
1449 02-04-2020 01:40:00 0.2 C 3.88 g/m*3 0.2 C 0 km/h
1450 02-04-2020 01:45:00 0.2 C 3.88 g/m*3 0.2 C 0 km/h
Sensor: Nr:Datum:Temp:Abs-Feuchte:Windchill:Wind:
Aussen-T/F 1451 02-04-2020 01:50:00 0.1 C 3.9 g/m*3 0.1 C 0 km/h
1452 02-04-2020 01:55:00 0.1 C 3.9 g/m*3 0.1 C 0 km/h
1453 02-04-2020 02:00:00 0 C 3.88 g/m*3 0 C 0 km/h
1454 02-04-2020 02:05:00 0 C 3.88 g/m*3 0 C 0 km/h
1455 02-04-2020 02:10:00 0.1 C 3.9 g/m*3 0.1 C 0 km/h
1456 02-04-2020 02:15:00 0 C 3.88 g/m*3 0 C 0 km/h
1457 02-04-2020 02:20:00 -0.1 C 3.85 g/m*3 -0.1 C 0 km/h
1458 02-04-2020 02:25:00 -0.1 C 3.85 g/m*3 -0.1 C 0 km/h
1459 02-04-2020 02:30:00 -0.2 C 3.87 g/m*3 -0.2 C 0 km/h
1460 02-04-2020 02:35:00 -0.3 C 3.84 g/m*3 -0.3 C 0 km/h
1461 02-04-2020 02:40:00 -0.3 C 3.84 g/m*3 -0.3 C 0 km/h
1462 02-04-2020 02:45:00 -0.4 C 3.82 g/m*3 -0.4 C 0 km/h
1463 02-04-2020 02:50:00 -0.4 C 3.82 g/m*3 -0.4 C 0 km/h
1464 02-04-2020 02:55:00 -0.5 C 3.84 g/m*3 -0.5 C 0 km/h
1465 02-04-2020 03:00:00 -0.6 C 3.81 g/m*3 -0.6 C 0 km/h
1466 02-04-2020 03:05:00 -0.6 C 3.81 g/m*3 -0.6 C 0 km/h
1467 02-04-2020 03:10:00 -0.6 C 3.81 g/m*3 -0.6 C 0 km/h
1468 02-04-2020 03:15:00 -0.5 C 3.84 g/m*3 -0.5 C 1.6 km/h
1469 02-04-2020 03:20:00 -0.5 C 3.84 g/m*3 -0.5 C 0 km/h
1470 02-04-2020 03:25:00 -0.5 C 3.84 g/m*3 -0.5 C 0 km/h
1471 02-04-2020 03:30:00 -0.6 C 3.81 g/m*3 -0.6 C 0 km/h
1472 02-04-2020 03:35:00 -0.6 C 3.81 g/m*3 -0.6 C 0 km/h
1473 02-04-2020 03:40:00 -0.6 C 3.81 g/m*3 -0.6 C 0 km/h
1474 02-04-2020 03:45:00 -0.6 C 3.81 g/m*3 -0.6 C 0 km/h
1475 02-04-2020 03:50:00 -0.6 C 3.86 g/m*3 -0.6 C 0 km/h
Sensor: Nr:Datum:Temp:Abs-Feuchte:Windchill:Wind:
Aussen-T/F 1476 02-04-2020 03:55:00 -0.7 C 3.83 g/m*3 -0.7 C 0 km/h
1477 02-04-2020 04:00:00 -0.7 C 3.78 g/m*3 -0.7 C 0 km/h
1478 02-04-2020 04:05:00 -0.8 C 3.8 g/m*3 -0.8 C 0 km/h
1479 02-04-2020 04:10:00 -0.7 C 3.83 g/m*3 -0.7 C 1.6 km/h
1480 02-04-2020 04:15:00 -0.7 C 3.83 g/m*3 -0.7 C 0 km/h
1481 02-04-2020 04:20:00 -0.6 C 3.86 g/m*3 -0.6 C 0 km/h
1482 02-04-2020 04:25:00 -0.6 C 3.86 g/m*3 -0.6 C 0 km/h
1483 02-04-2020 04:30:00 -0.6 C 3.86 g/m*3 -0.6 C 0 km/h
1484 02-04-2020 04:35:00 -0.7 C 3.78 g/m*3 -0.7 C 0 km/h
1485 02-04-2020 04:40:00 -0.9 C 3.73 g/m*3 -0.9 C 0 km/h
1486 02-04-2020 04:45:00 -1.1 C 3.73 g/m*3 -1.1 C 1.6 km/h
1487 02-04-2020 04:50:00 -1.2 C 3.7 g/m*3 -1.2 C 0 km/h
1488 02-04-2020 04:55:00 -1.3 C 3.67 g/m*3 -1.3 C 0 km/h
1489 02-04-2020 05:00:00 -1.4 C 3.69 g/m*3 -1.4 C 0 km/h
1490 02-04-2020 05:05:00 -1.4 C 3.69 g/m*3 -1.4 C 0 km/h
1491 02-04-2020 05:10:00 -1.5 C 3.67 g/m*3 -1.5 C 0 km/h
1492 02-04-2020 05:15:00 -1.6 C 3.68 g/m*3 -1.6 C 0 km/h
1493 02-04-2020 05:20:00 -1.6 C 3.68 g/m*3 -1.6 C 0 km/h
1494 02-04-2020 05:25:00 -1.6 C 3.68 g/m*3 -1.6 C 0 km/h
1495 02-04-2020 05:30:00 -1.6 C 3.68 g/m*3 -1.6 C 0 km/h
1496 02-04-2020 05:35:00 -1.6 C 3.68 g/m*3 -1.6 C 0 km/h
1497 02-04-2020 05:40:00 -1.7 C 3.66 g/m*3 -1.7 C 0 km/h
1498 02-04-2020 05:45:00 -1.7 C 3.7 g/m*3 -1.7 C 0 km/h
1499 02-04-2020 05:50:00 -1.6 C 3.73 g/m*3 -1.6 C 0 km/h
1500 02-04-2020 05:55:00 -1.5 C 3.75 g/m*3 -1.5 C 0 km/h
Sensor: Nr:Datum:Temp:Abs-Feuchte:Windchill:Wind:
Aussen-T/F 1501 02-04-2020 06:00:00 -1.5 C 3.75 g/m*3 -1.5 C 0 km/h
1502 02-04-2020 06:05:00 -1.6 C 3.73 g/m*3 -1.6 C 0 km/h
1503 02-04-2020 06:10:00 -1.6 C 3.73 g/m*3 -1.6 C 0 km/h
1504 02-04-2020 06:15:00 -1.7 C 3.66 g/m*3 -1.7 C 0 km/h
1505 02-04-2020 06:20:00 -1.8 C 3.63 g/m*3 -1.8 C 0 km/h
1506 02-04-2020 06:25:00 -1.8 C 3.68 g/m*3 -1.8 C 0 km/h
1507 02-04-2020 06:30:00 -1.8 C 3.72 g/m*3 -1.8 C 0 km/h
1508 02-04-2020 06:35:00 -1.7 C 3.75 g/m*3 -1.7 C 0 km/h
1509 02-04-2020 06:40:00 -1.8 C 3.68 g/m*3 -1.8 C 0 km/h
1510 02-04-2020 06:45:00 -1.8 C 3.68 g/m*3 -1.8 C 0 km/h
1511 02-04-2020 06:50:00 -1.8 C 3.72 g/m*3 -1.8 C 0 km/h
1512 02-04-2020 06:55:00 -1.8 C 3.72 g/m*3 -1.8 C 0 km/h
1513 02-04-2020 07:00:00 -1.8 C 3.68 g/m*3 -1.8 C 0 km/h
1514 02-04-2020 07:05:00 -1.9 C 3.65 g/m*3 -1.9 C 0 km/h
1515 02-04-2020 07:10:00 -2 C 3.63 g/m*3 -2 C 0 km/h
1516 02-04-2020 07:15:00 -2 C 3.67 g/m*3 -2 C 0 km/h
1517 02-04-2020 07:20:00 -1.9 C 3.69 g/m*3 -1.9 C 0 km/h
1518 02-04-2020 07:25:00 -1.9 C 3.69 g/m*3 -1.9 C 0 km/h
1519 02-04-2020 07:30:00 -1.9 C 3.69 g/m*3 -1.9 C 0 km/h
1520 02-04-2020 07:35:00 -1.9 C 3.74 g/m*3 -1.9 C 1.6 km/h
1521 02-04-2020 07:40:00 -1.9 C 3.69 g/m*3 -1.9 C 1.6 km/h
1522 02-04-2020 07:45:00 -1.9 C 3.69 g/m*3 -1.9 C 0 km/h
1523 02-04-2020 07:50:00 -1.9 C 3.69 g/m*3 -1.9 C 1.6 km/h
1524 02-04-2020 07:55:00 -1.8 C 3.76 g/m*3 -1.8 C 0 km/h
1525 02-04-2020 08:00:00 -1.8 C 3.76 g/m*3 -1.8 C 0 km/h
Sensor: Nr:Datum:Temp:Abs-Feuchte:Windchill:Wind:
Aussen-T/F 1526 02-04-2020 08:05:00 -1.7 C 3.79 g/m*3 -1.7 C 0 km/h
1527 02-04-2020 08:10:00 -1.5 C 3.84 g/m*3 -1.5 C 1.6 km/h
1528 02-04-2020 08:15:00 -1.3 C 3.9 g/m*3 -1.3 C 0 km/h
1529 02-04-2020 08:20:00 -1.3 C 3.85 g/m*3 -1.3 C 0 km/h
1530 02-04-2020 08:25:00 -1.3 C 3.85 g/m*3 -1.3 C 0 km/h
1531 02-04-2020 08:30:00 -1.3 C 3.85 g/m*3 -1.3 C 0 km/h
1532 02-04-2020 08:35:00 -1.3 C 3.85 g/m*3 -1.3 C 0 km/h
1533 02-04-2020 08:40:00 -1.3 C 3.85 g/m*3 -1.3 C 0 km/h
1534 02-04-2020 08:45:00 -1.2 C 3.88 g/m*3 -1.2 C 0 km/h
1535 02-04-2020 08:50:00 -1.2 C 3.88 g/m*3 -1.2 C 0 km/h
1536 02-04-2020 08:55:00 -1.1 C 3.91 g/m*3 -1.1 C 0 km/h
1537 02-04-2020 09:00:00 -1.1 C 3.91 g/m*3 -1.1 C 0 km/h
1538 02-04-2020 09:05:00 -1 C 3.93 g/m*3 -1 C 1.6 km/h
1539 02-04-2020 09:10:00 -1 C 3.93 g/m*3 -1 C 0 km/h
1540 02-04-2020 09:15:00 -0.9 C 3.96 g/m*3 -0.9 C 0 km/h
1541 02-04-2020 09:20:00 -0.8 C 3.99 g/m*3 -0.8 C 0 km/h
1542 02-04-2020 09:25:00 -0.7 C 4.02 g/m*3 -0.7 C 0 km/h
1543 02-04-2020 09:30:00 -0.7 C 4.02 g/m*3 -0.7 C 0 km/h
1544 02-04-2020 09:35:00 -0.6 C 4.04 g/m*3 -0.6 C 0 km/h
1545 02-04-2020 09:40:00 -0.4 C 4.1 g/m*3 -0.4 C 0 km/h
1546 02-04-2020 09:45:00 -0.3 C 4.13 g/m*3 -0.3 C 0 km/h
1547 02-04-2020 09:50:00 -0.2 C 4.16 g/m*3 -0.2 C 0 km/h
1548 02-04-2020 09:55:00 0 C 4.22 g/m*3 0 C 0 km/h
1549 02-04-2020 10:00:00 0.2 C 4.27 g/m*3 0.2 C 0 km/h
1550 02-04-2020 10:05:00 0.3 C 4.3 g/m*3 0.3 C 0 km/h
Sensor: Nr:Datum:Temp:Abs-Feuchte:Windchill:Wind:
Aussen-T/F 1551 02-04-2020 10:10:00 0.5 C 4.36 g/m*3 0.5 C 0 km/h
1552 02-04-2020 10:15:00 0.7 C 4.42 g/m*3 0.7 C 0 km/h
1553 02-04-2020 10:20:00 0.8 C 4.45 g/m*3 0.8 C 0 km/h
1554 02-04-2020 10:25:00 1.1 C 4.55 g/m*3 1.1 C 0 km/h
1555 02-04-2020 10:30:00 1.3 C 4.56 g/m*3 1.3 C 0 km/h
1556 02-04-2020 10:35:00 1.6 C 4.65 g/m*3 1.6 C 0 km/h
1557 02-04-2020 10:40:00 1.9 C 4.69 g/m*3 1.9 C 0 km/h
1558 02-04-2020 10:45:00 2.3 C 4.76 g/m*3 2.3 C 0 km/h
1559 02-04-2020 10:50:00 2.8 C 4.81 g/m*3 2.8 C 0 km/h
1560 02-04-2020 10:55:00 3.2 C 4.82 g/m*3 3.2 C 0 km/h
1561 02-04-2020 11:00:00 3.7 C 4.92 g/m*3 3.7 C 0 km/h
1562 02-04-2020 11:05:00 4 C 4.96 g/m*3 4 C 0 km/h
1563 02-04-2020 11:10:00 4.3 C 4.93 g/m*3 4.3 C 0 km/h
1564 02-04-2020 11:15:00 4.6 C 4.9 g/m*3 4.6 C 0 km/h
1565 02-04-2020 11:20:00 4.9 C 4.86 g/m*3 4.9 C 0 km/h
1566 02-04-2020 11:25:00 5.3 C 4.92 g/m*3 5.3 C 3.2 km/h
1567 02-04-2020 11:30:00 5.6 C 4.88 g/m*3 5.6 C 3.2 km/h
1568 02-04-2020 11:35:00 5.9 C 4.98 g/m*3 5.9 C 1.6 km/h
1569 02-04-2020 11:40:00 6.3 C 4.89 g/m*3 6.3 C 3.2 km/h
1570 02-04-2020 11:45:00 6.6 C 4.91 g/m*3 6.6 C 1.6 km/h
1571 02-04-2020 11:50:00 6.9 C 5 g/m*3 6.9 C 3.2 km/h
1572 02-04-2020 11:55:00 7.2 C 4.95 g/m*3 7.2 C 1.6 km/h
1573 02-04-2020 12:00:00 7.5 C 5.04 g/m*3 7.5 C 3.2 km/h
1574 02-04-2020 12:05:00 7.8 C 4.9 g/m*3 6.83 C 6.4 km/h
1575 02-04-2020 12:10:00 8.1 C 4.99 g/m*3 8.1 C 3.2 km/h
Sensor: Nr:Datum:Temp:Abs-Feuchte:Windchill:Wind:
Aussen-T/F 1576 02-04-2020 12:15:00 8.3 C 4.97 g/m*3 8.3 C 3.2 km/h
1577 02-04-2020 12:20:00 8.6 C 4.9 g/m*3 8.6 C 4.8 km/h
1578 02-04-2020 12:25:00 8.8 C 4.96 g/m*3 8.8 C 4.8 km/h
1579 02-04-2020 12:30:00 9.1 C 4.97 g/m*3 9.1 C 1.6 km/h
1580 02-04-2020 12:35:00 9.2 C 4.91 g/m*3 9.2 C 1.6 km/h
1581 02-04-2020 12:40:00 9.4 C 4.52 g/m*3 9.4 C 3.2 km/h
1582 02-04-2020 12:45:00 9.6 C 4.76 g/m*3 8.91 C 6.4 km/h
1583 02-04-2020 12:50:00 9.7 C 4.79 g/m*3 9.7 C 3.2 km/h
1584 02-04-2020 12:55:00 9.9 C 4.67 g/m*3 8.87 C 8.1 km/h
1585 02-04-2020 13:00:00 10 C 4.6 g/m*3 10 C 4.8 km/h
1586 02-04-2020 13:05:00 10.1 C 4.63 g/m*3 8.8 C 9.7 km/h
1587 02-04-2020 13:10:00 10.2 C 4.76 g/m*3 8.92 C 9.7 km/h
1588 02-04-2020 13:15:00 10.5 C 4.66 g/m*3 9.95 C 6.4 km/h
1589 02-04-2020 13:20:00 10.7 C 4.52 g/m*3 10.18 C 6.4 km/h
1590 02-04-2020 13:25:00 10.8 C 4.45 g/m*3 10.29 C 6.4 km/h
1591 02-04-2020 13:30:00 10.8 C 4.15 g/m*3 9.38 C 11.3 km/h
1592 02-04-2020 13:35:00 11 C 4.4 g/m*3 11 C 4.8 km/h
1593 02-04-2020 13:40:00 11.2 C 4.56 g/m*3 11.2 C 12.9 km/h
1594 02-04-2020 13:45:00 11.3 C 4.59 g/m*3 11.3 C 12.9 km/h
1595 02-04-2020 13:50:00 11.4 C 4.31 g/m*3 11.4 C 6.4 km/h
1596 02-04-2020 13:55:00 11.4 C 4.41 g/m*3 11.4 C 8.1 km/h
1597 02-04-2020 14:00:00 11.6 C 4.57 g/m*3 11.6 C 9.7 km/h
1598 02-04-2020 14:05:00 11.7 C 4.6 g/m*3 11.7 C 9.7 km/h
1599 02-04-2020 14:10:00 11.8 C 4.53 g/m*3 11.8 C 6.4 km/h
1600 02-04-2020 14:15:00 11.9 C 4.55 g/m*3 11.9 C 8.1 km/h
Sensor: Nr:Datum:Temp:Abs-Feuchte:Windchill:Wind:
Aussen-T/F 1601 02-04-2020 14:20:00 12.1 C 4.61 g/m*3 12.1 C 11.3 km/h
1602 02-04-2020 14:25:00 12.3 C 4.67 g/m*3 12.3 C 6.4 km/h
1603 02-04-2020 14:30:00 12.6 C 4.65 g/m*3 12.6 C 4.8 km/h
1604 02-04-2020 14:35:00 12.7 C 4.68 g/m*3 12.7 C 8.1 km/h
1605 02-04-2020 14:40:00 12.8 C 4.82 g/m*3 12.8 C 8.1 km/h
1606 02-04-2020 14:45:00 12.8 C 4.7 g/m*3 12.8 C 11.3 km/h
1607 02-04-2020 14:50:00 12.8 C 4.7 g/m*3 12.8 C 8.1 km/h
1608 02-04-2020 14:55:00 12.7 C 4.79 g/m*3 12.7 C 11.3 km/h
1609 02-04-2020 15:00:00 12.8 C 4.7 g/m*3 12.8 C 6.4 km/h
1610 02-04-2020 15:05:00 12.9 C 4.85 g/m*3 12.9 C 9.7 km/h
1611 02-04-2020 15:10:00 13.1 C 4.79 g/m*3 13.1 C 9.7 km/h
1612 02-04-2020 15:15:00 13.2 C 4.59 g/m*3 13.2 C 8.1 km/h
1613 02-04-2020 15:20:00 13.2 C 4.59 g/m*3 13.2 C 8.1 km/h
1614 02-04-2020 15:25:00 13.2 C 4.59 g/m*3 13.2 C 9.7 km/h
1615 02-04-2020 15:30:00 13.3 C 4.74 g/m*3 13.3 C 16.1 km/h
1616 02-04-2020 15:35:00 13.3 C 4.74 g/m*3 13.3 C 8.1 km/h
1617 02-04-2020 15:40:00 13.4 C 4.65 g/m*3 13.4 C 8.1 km/h
1618 02-04-2020 15:45:00 13.5 C 4.68 g/m*3 13.5 C 9.7 km/h
1619 02-04-2020 15:50:00 13.6 C 4.71 g/m*3 13.6 C 9.7 km/h
1620 02-04-2020 15:55:00 13.6 C 4.83 g/m*3 13.6 C 8.1 km/h
1621 02-04-2020 16:00:00 13.6 C 4.71 g/m*3 13.6 C 6.4 km/h
1622 02-04-2020 16:05:00 13.8 C 4.89 g/m*3 13.8 C 4.8 km/h
1623 02-04-2020 16:10:00 13.9 C 4.92 g/m*3 13.9 C 6.4 km/h
1624 02-04-2020 16:15:00 13.8 C 4.89 g/m*3 13.8 C 14.5 km/h
1625 02-04-2020 16:20:00 13.4 C 4.88 g/m*3 13.4 C 11.3 km/h
Sensor: Nr:Datum:Temp:Abs-Feuchte:Windchill:Wind:
Aussen-T/F 1626 02-04-2020 16:25:00 13.2 C 5.05 g/m*3 13.2 C 9.7 km/h
1627 02-04-2020 16:30:00 13.3 C 4.97 g/m*3 13.3 C 12.9 km/h
1628 02-04-2020 16:35:00 13.3 C 4.97 g/m*3 13.3 C 14.5 km/h
1629 02-04-2020 16:40:00 13.5 C 5.03 g/m*3 13.5 C 11.3 km/h
1630 02-04-2020 16:45:00 13.6 C 5.06 g/m*3 13.6 C 11.3 km/h
1631 02-04-2020 16:50:00 13.7 C 4.97 g/m*3 13.7 C 16.1 km/h
1632 02-04-2020 16:55:00 13.7 C 5.09 g/m*3 13.7 C 11.3 km/h
1633 02-04-2020 17:00:00 13.8 C 5.12 g/m*3 13.8 C 14.5 km/h
1634 02-04-2020 17:05:00 13.9 C 5.27 g/m*3 13.9 C 11.3 km/h
1635 02-04-2020 17:10:00 13.9 C 5.15 g/m*3 13.9 C 12.9 km/h
1636 02-04-2020 17:15:00 14 C 5.31 g/m*3 14 C 9.7 km/h
1637 02-04-2020 17:20:00 14 C 5.19 g/m*3 14 C 14.5 km/h
1638 02-04-2020 17:25:00 13.7 C 5.21 g/m*3 13.7 C 17.7 km/h
1639 02-04-2020 17:30:00 13.4 C 5.35 g/m*3 13.4 C 12.9 km/h
1640 02-04-2020 17:35:00 13.4 C 5.35 g/m*3 13.4 C 14.5 km/h
1641 02-04-2020 17:40:00 13.4 C 5.35 g/m*3 13.4 C 9.7 km/h
1642 02-04-2020 17:45:00 13.3 C 5.31 g/m*3 13.3 C 16.1 km/h
1643 02-04-2020 17:50:00 13.2 C 5.51 g/m*3 13.2 C 12.9 km/h
1644 02-04-2020 17:55:00 13 C 5.56 g/m*3 13 C 12.9 km/h
1645 02-04-2020 18:00:00 12.8 C 5.6 g/m*3 12.8 C 16.1 km/h
1646 02-04-2020 18:05:00 12.7 C 5.57 g/m*3 12.7 C 14.5 km/h
1647 02-04-2020 18:10:00 12.5 C 5.5 g/m*3 12.5 C 14.5 km/h
1648 02-04-2020 18:15:00 12.4 C 5.57 g/m*3 12.4 C 11.3 km/h
1649 02-04-2020 18:20:00 12.4 C 5.57 g/m*3 12.4 C 14.5 km/h
1650 02-04-2020 18:25:00 12.3 C 5.43 g/m*3 12.3 C 9.7 km/h
Sensor: Nr:Datum:Temp:Abs-Feuchte:Windchill:Wind:
Aussen-T/F 1651 02-04-2020 18:30:00 12.2 C 5.5 g/m*3 12.2 C 17.7 km/h
1652 02-04-2020 18:35:00 12.1 C 5.36 g/m*3 12.1 C 9.7 km/h
1653 02-04-2020 18:40:00 11.9 C 5.4 g/m*3 11.9 C 14.5 km/h
1654 02-04-2020 18:45:00 11.8 C 5.26 g/m*3 11.8 C 14.5 km/h
1655 02-04-2020 18:50:00 11.7 C 5.33 g/m*3 11.7 C 9.7 km/h
1656 02-04-2020 18:55:00 11.6 C 5.3 g/m*3 11.6 C 9.7 km/h
1657 02-04-2020 19:00:00 11.4 C 5.13 g/m*3 11.4 C 11.3 km/h
1658 02-04-2020 19:05:00 11.3 C 5.2 g/m*3 11.3 C 12.9 km/h
1659 02-04-2020 19:10:00 11.3 C 5.2 g/m*3 11.3 C 6.4 km/h
1660 02-04-2020 19:15:00 11.1 C 5.14 g/m*3 11.1 C 8.1 km/h
1661 02-04-2020 19:20:00 10.9 C 5.07 g/m*3 10.04 C 8.1 km/h
1662 02-04-2020 19:25:00 10.8 C 5.14 g/m*3 10.29 C 6.4 km/h
1663 02-04-2020 19:30:00 10.7 C 5.11 g/m*3 9.04 C 12.9 km/h
1664 02-04-2020 19:35:00 10.5 C 5.04 g/m*3 9.28 C 9.7 km/h
1665 02-04-2020 19:40:00 10.3 C 5.08 g/m*3 10.3 C 4.8 km/h
1666 02-04-2020 19:45:00 10.1 C 5.01 g/m*3 9.48 C 6.4 km/h
1667 02-04-2020 19:50:00 10 C 4.98 g/m*3 9.37 C 6.4 km/h
1668 02-04-2020 19:55:00 9.8 C 4.92 g/m*3 9.14 C 6.4 km/h
1669 02-04-2020 20:00:00 9.6 C 5.04 g/m*3 9.6 C 4.8 km/h
1670 02-04-2020 20:05:00 9.4 C 4.97 g/m*3 9.4 C 3.2 km/h
1671 02-04-2020 20:10:00 9.2 C 5 g/m*3 7.73 C 9.7 km/h
1672 02-04-2020 20:15:00 9.1 C 4.97 g/m*3 7.33 C 11.3 km/h
1673 02-04-2020 20:20:00 9 C 5.03 g/m*3 7.21 C 11.3 km/h
1674 02-04-2020 20:25:00 8.9 C 5.08 g/m*3 8.9 C 1.6 km/h
1675 02-04-2020 20:30:00 8.7 C 5.02 g/m*3 7.46 C 8.1 km/h
Sensor: Nr:Datum:Temp:Abs-Feuchte:Windchill:Wind:
Aussen-T/F 1676 02-04-2020 20:35:00 8.6 C 5.07 g/m*3 6.73 C 11.3 km/h
1677 02-04-2020 20:40:00 8.5 C 5.04 g/m*3 8.5 C 1.6 km/h
1678 02-04-2020 20:45:00 8.3 C 5.06 g/m*3 8.3 C 3.2 km/h
1679 02-04-2020 20:50:00 8.2 C 5.02 g/m*3 7.29 C 6.4 km/h
1680 02-04-2020 20:55:00 8 C 5.04 g/m*3 8 C 3.2 km/h
1681 02-04-2020 21:00:00 7.7 C 5.03 g/m*3 7.7 C 1.6 km/h
1682 02-04-2020 21:05:00 7.4 C 5.01 g/m*3 7.4 C 3.2 km/h
1683 02-04-2020 21:10:00 7.3 C 5.06 g/m*3 7.3 C 3.2 km/h
1684 02-04-2020 21:15:00 7.1 C 5.07 g/m*3 7.1 C 3.2 km/h
1685 02-04-2020 21:20:00 6.8 C 5.05 g/m*3 6.8 C 4.8 km/h
1686 02-04-2020 21:25:00 6.6 C 5.06 g/m*3 6.6 C 4.8 km/h
1687 02-04-2020 21:30:00 6.4 C 5.07 g/m*3 6.4 C 4.8 km/h
1688 02-04-2020 21:35:00 6.2 C 5.07 g/m*3 6.2 C 4.8 km/h
1689 02-04-2020 21:40:00 6.2 C 5.07 g/m*3 6.2 C 4.8 km/h
1690 02-04-2020 21:45:00 6.1 C 5.04 g/m*3 6.1 C 4.8 km/h
1691 02-04-2020 21:50:00 6 C 5.08 g/m*3 6 C 3.2 km/h
1692 02-04-2020 21:55:00 5.9 C 5.05 g/m*3 5.9 C 4.8 km/h
1693 02-04-2020 22:00:00 5.8 C 5.01 g/m*3 5.8 C 3.2 km/h
1694 02-04-2020 22:05:00 5.9 C 5.05 g/m*3 5.9 C 4.8 km/h
1695 02-04-2020 22:10:00 5.9 C 5.05 g/m*3 5.9 C 3.2 km/h
1696 02-04-2020 22:15:00 6 C 5.08 g/m*3 6 C 3.2 km/h
1697 02-04-2020 22:20:00 6.1 C 5.11 g/m*3 6.1 C 3.2 km/h
1698 02-04-2020 22:25:00 6 C 5.08 g/m*3 6 C 3.2 km/h
1699 02-04-2020 22:30:00 5.9 C 5.12 g/m*3 5.9 C 3.2 km/h
1700 02-04-2020 22:35:00 5.9 C 5.12 g/m*3 5.9 C 3.2 km/h
Sensor: Nr:Datum:Temp:Abs-Feuchte:Windchill:Wind:
Aussen-T/F 1701 02-04-2020 22:40:00 5.8 C 5.09 g/m*3 5.8 C 4.8 km/h
1702 02-04-2020 22:45:00 5.7 C 5.12 g/m*3 5.7 C 4.8 km/h
1703 02-04-2020 22:50:00 5.7 C 5.12 g/m*3 5.7 C 4.8 km/h
1704 02-04-2020 22:55:00 5.7 C 5.12 g/m*3 5.7 C 3.2 km/h
1705 02-04-2020 23:00:00 5.6 C 5.16 g/m*3 5.6 C 4.8 km/h
1706 02-04-2020 23:05:00 5.6 C 5.16 g/m*3 5.6 C 4.8 km/h
1707 02-04-2020 23:10:00 5.6 C 5.16 g/m*3 5.6 C 4.8 km/h
1708 02-04-2020 23:15:00 5.6 C 5.16 g/m*3 5.6 C 4.8 km/h
1709 02-04-2020 23:20:00 5.6 C 5.23 g/m*3 5.6 C 4.8 km/h
1710 02-04-2020 23:25:00 5.5 C 5.2 g/m*3 5.5 C 4.8 km/h
1711 02-04-2020 23:30:00 5.4 C 5.16 g/m*3 5.4 C 4.8 km/h
1712 02-04-2020 23:35:00 5.3 C 5.2 g/m*3 5.3 C 4.8 km/h
1713 02-04-2020 23:40:00 5.1 C 5.13 g/m*3 5.1 C 3.2 km/h
1714 02-04-2020 23:45:00 4.9 C 5.06 g/m*3 4.9 C 0 km/h
1715 02-04-2020 23:50:00 4.6 C 5.03 g/m*3 4.6 C 1.6 km/h
1716 02-04-2020 23:55:00 4.3 C 4.99 g/m*3 4.3 C 1.6 km/h
1717 03-04-2020 00:00:00 4.2 C 5.03 g/m*3 4.2 C 1.6 km/h
1718 03-04-2020 00:05:00 3.9 C 4.93 g/m*3 3.9 C 0 km/h
1719 03-04-2020 00:10:00 3.7 C 4.92 g/m*3 3.7 C 0 km/h
1720 03-04-2020 00:15:00 3.4 C 4.89 g/m*3 3.4 C 0 km/h
1721 03-04-2020 00:20:00 3.3 C 4.85 g/m*3 3.3 C 1.6 km/h
1722 03-04-2020 00:25:00 3.3 C 4.91 g/m*3 3.3 C 3.2 km/h
1723 03-04-2020 00:30:00 3.3 C 4.97 g/m*3 3.3 C 1.6 km/h
1724 03-04-2020 00:35:00 3.3 C 4.91 g/m*3 3.3 C 0 km/h
1725 03-04-2020 00:40:00 3.3 C 4.91 g/m*3 3.3 C 3.2 km/h
Sensor: Nr:Datum:Temp:Abs-Feuchte:Windchill:Wind:
Aussen-T/F 1726 03-04-2020 00:45:00 3.4 C 5.01 g/m*3 3.4 C 3.2 km/h
1727 03-04-2020 00:50:00 3.4 C 4.95 g/m*3 3.4 C 1.6 km/h
1728 03-04-2020 00:55:00 3.2 C 4.88 g/m*3 1.51 C 6.4 km/h
1729 03-04-2020 01:00:00 3.2 C 4.88 g/m*3 3.2 C 1.6 km/h
1730 03-04-2020 01:05:00 3.1 C 4.85 g/m*3 3.1 C 3.2 km/h
1731 03-04-2020 01:10:00 2.9 C 4.84 g/m*3 2.9 C 3.2 km/h
1732 03-04-2020 01:15:00 3 C 4.88 g/m*3 1.28 C 6.4 km/h
1733 03-04-2020 01:20:00 2.9 C 4.84 g/m*3 2.9 C 1.6 km/h
1734 03-04-2020 01:25:00 2.9 C 4.9 g/m*3 0.64 C 8.1 km/h
1735 03-04-2020 01:30:00 3 C 4.93 g/m*3 0.76 C 8.1 km/h
1736 03-04-2020 01:35:00 3.1 C 4.97 g/m*3 0.87 C 8.1 km/h
1737 03-04-2020 01:40:00 3.2 C 4.94 g/m*3 0.58 C 9.7 km/h
1738 03-04-2020 01:45:00 3.1 C 4.91 g/m*3 3.1 C 3.2 km/h
1739 03-04-2020 01:50:00 3 C 4.88 g/m*3 0.76 C 8.1 km/h
1740 03-04-2020 01:55:00 2.9 C 4.84 g/m*3 2.9 C 4.8 km/h
1741 03-04-2020 02:00:00 2.9 C 4.9 g/m*3 2.9 C 1.6 km/h
1742 03-04-2020 02:05:00 2.8 C 4.87 g/m*3 2.8 C 1.6 km/h
1743 03-04-2020 02:10:00 2.8 C 4.87 g/m*3 2.8 C 1.6 km/h
1744 03-04-2020 02:15:00 2.8 C 4.87 g/m*3 1.05 C 6.4 km/h
1745 03-04-2020 02:20:00 2.9 C 4.96 g/m*3 2.9 C 4.8 km/h
1746 03-04-2020 02:25:00 3.1 C 4.97 g/m*3 3.1 C 4.8 km/h
1747 03-04-2020 02:30:00 3.2 C 5 g/m*3 3.2 C 4.8 km/h
1748 03-04-2020 02:35:00 3.3 C 5.04 g/m*3 3.3 C 1.6 km/h
1749 03-04-2020 02:40:00 3.4 C 5.01 g/m*3 3.4 C 3.2 km/h
1750 03-04-2020 02:45:00 3.3 C 4.97 g/m*3 3.3 C 0 km/h
Sensor: Nr:Datum:Temp:Abs-Feuchte:Windchill:Wind:
Aussen-T/F 1751 03-04-2020 02:50:00 3.3 C 4.97 g/m*3 3.3 C 1.6 km/h
1752 03-04-2020 02:55:00 3.4 C 5.01 g/m*3 3.4 C 3.2 km/h
1753 03-04-2020 03:00:00 3.4 C 5.07 g/m*3 3.4 C 0 km/h
1754 03-04-2020 03:05:00 3.6 C 5.14 g/m*3 3.6 C 1.6 km/h
1755 03-04-2020 03:10:00 3.7 C 5.17 g/m*3 3.7 C 1.6 km/h
1756 03-04-2020 03:15:00 3.8 C 5.14 g/m*3 3.8 C 1.6 km/h
1757 03-04-2020 03:20:00 3.9 C 5.18 g/m*3 3.9 C 0 km/h
1758 03-04-2020 03:25:00 4.1 C 5.25 g/m*3 4.1 C 4.8 km/h
1759 03-04-2020 03:30:00 4.2 C 5.28 g/m*3 4.2 C 1.6 km/h
1760 03-04-2020 03:35:00 4.4 C 5.29 g/m*3 2.9 C 6.4 km/h
1761 03-04-2020 03:40:00 4.7 C 5.26 g/m*3 2.76 C 8.1 km/h
1762 03-04-2020 03:45:00 4.8 C 5.3 g/m*3 3.36 C 6.4 km/h
1763 03-04-2020 03:50:00 4.9 C 5.33 g/m*3 3.48 C 6.4 km/h
1764 03-04-2020 03:55:00 4.9 C 5.33 g/m*3 4.9 C 3.2 km/h
1765 03-04-2020 04:00:00 4.9 C 5.33 g/m*3 4.9 C 4.8 km/h
1766 03-04-2020 04:05:00 5.1 C 5.4 g/m*3 3.71 C 6.4 km/h
1767 03-04-2020 04:10:00 5.3 C 5.41 g/m*3 5.3 C 3.2 km/h
1768 03-04-2020 04:15:00 5.4 C 5.37 g/m*3 3.2 C 9.7 km/h
1769 03-04-2020 04:20:00 5.4 C 5.3 g/m*3 3.58 C 8.1 km/h
1770 03-04-2020 04:25:00 5.4 C 5.3 g/m*3 5.4 C 1.6 km/h
1771 03-04-2020 04:30:00 5.4 C 5.3 g/m*3 5.4 C 1.6 km/h
1772 03-04-2020 04:35:00 5.4 C 5.37 g/m*3 5.4 C 0 km/h
1773 03-04-2020 04:40:00 5.4 C 5.44 g/m*3 5.4 C 0 km/h
1774 03-04-2020 04:45:00 5.3 C 5.41 g/m*3 5.3 C 0 km/h
1775 03-04-2020 04:50:00 5.2 C 5.37 g/m*3 5.2 C 0 km/h
Sensor: Nr:Datum:Temp:Abs-Feuchte:Windchill:Wind:
Aussen-T/F 1776 03-04-2020 04:55:00 5.2 C 5.44 g/m*3 5.2 C 0 km/h
1777 03-04-2020 05:00:00 5.1 C 5.4 g/m*3 5.1 C 0 km/h
1778 03-04-2020 05:05:00 5.1 C 5.4 g/m*3 5.1 C 0 km/h
1779 03-04-2020 05:10:00 5.1 C 5.4 g/m*3 5.1 C 1.6 km/h
1780 03-04-2020 05:15:00 5.2 C 5.44 g/m*3 5.2 C 0 km/h
1781 03-04-2020 05:20:00 5.2 C 5.44 g/m*3 5.2 C 3.2 km/h
1782 03-04-2020 05:25:00 5.3 C 5.48 g/m*3 5.3 C 1.6 km/h
1783 03-04-2020 05:30:00 5.3 C 5.48 g/m*3 5.3 C 0 km/h
1784 03-04-2020 05:35:00 5.3 C 5.41 g/m*3 5.3 C 1.6 km/h
1785 03-04-2020 05:40:00 5.4 C 5.44 g/m*3 4.06 C 6.4 km/h
1786 03-04-2020 05:45:00 5.5 C 5.48 g/m*3 5.5 C 1.6 km/h
1787 03-04-2020 05:50:00 5.6 C 5.51 g/m*3 4.29 C 6.4 km/h
1788 03-04-2020 05:55:00 5.6 C 5.59 g/m*3 5.6 C 4.8 km/h
1789 03-04-2020 06:00:00 5.7 C 5.55 g/m*3 4.4 C 6.4 km/h
1790 03-04-2020 06:05:00 5.7 C 5.48 g/m*3 4.4 C 6.4 km/h
1791 03-04-2020 06:10:00 5.8 C 5.59 g/m*3 5.8 C 4.8 km/h
1792 03-04-2020 06:15:00 5.7 C 5.55 g/m*3 5.7 C 3.2 km/h
1793 03-04-2020 06:20:00 5.7 C 5.55 g/m*3 5.7 C 3.2 km/h
1794 03-04-2020 06:25:00 5.7 C 5.55 g/m*3 5.7 C 4.8 km/h
1795 03-04-2020 06:30:00 5.7 C 5.55 g/m*3 5.7 C 3.2 km/h
1796 03-04-2020 06:35:00 5.7 C 5.62 g/m*3 5.7 C 0 km/h
1797 03-04-2020 06:40:00 5.6 C 5.59 g/m*3 5.6 C 3.2 km/h
1798 03-04-2020 06:45:00 5.6 C 5.59 g/m*3 5.6 C 0 km/h
1799 03-04-2020 06:50:00 5.6 C 5.59 g/m*3 4.29 C 6.4 km/h
1800 03-04-2020 06:55:00 5.7 C 5.55 g/m*3 3.56 C 9.7 km/h
Sensor: Nr:Datum:Temp:Abs-Feuchte:Windchill:Wind:
Aussen-T/F 1801 03-04-2020 07:00:00 5.8 C 5.59 g/m*3 4.05 C 8.1 km/h
1802 03-04-2020 07:05:00 6 C 5.59 g/m*3 3.92 C 9.7 km/h
1803 03-04-2020 07:10:00 6 C 5.59 g/m*3 4.28 C 8.1 km/h
1804 03-04-2020 07:15:00 6.1 C 5.55 g/m*3 3.43 C 12.9 km/h
1805 03-04-2020 07:20:00 6.1 C 5.55 g/m*3 3.72 C 11.3 km/h
1806 03-04-2020 07:25:00 6.1 C 5.55 g/m*3 4.86 C 6.4 km/h
1807 03-04-2020 07:30:00 6.1 C 5.63 g/m*3 4.4 C 8.1 km/h
1808 03-04-2020 07:35:00 6.1 C 5.63 g/m*3 4.86 C 6.4 km/h
1809 03-04-2020 07:40:00 6.1 C 5.63 g/m*3 4.86 C 6.4 km/h
1810 03-04-2020 07:45:00 6.1 C 5.63 g/m*3 6.1 C 4.8 km/h
1811 03-04-2020 07:50:00 6.1 C 5.7 g/m*3 6.1 C 4.8 km/h
1812 03-04-2020 07:55:00 6.1 C 5.7 g/m*3 6.1 C 1.6 km/h
1813 03-04-2020 08:00:00 6.1 C 5.7 g/m*3 4.4 C 8.1 km/h
1814 03-04-2020 08:05:00 6.2 C 5.66 g/m*3 4.52 C 8.1 km/h
1815 03-04-2020 08:10:00 6.2 C 5.66 g/m*3 4.15 C 9.7 km/h
1816 03-04-2020 08:15:00 6.3 C 5.7 g/m*3 4.27 C 9.7 km/h
1817 03-04-2020 08:20:00 6.3 C 5.7 g/m*3 3.96 C 11.3 km/h
1818 03-04-2020 08:25:00 6.3 C 5.7 g/m*3 4.27 C 9.7 km/h
1819 03-04-2020 08:30:00 6.4 C 5.74 g/m*3 4.75 C 8.1 km/h
1820 03-04-2020 08:35:00 6.4 C 5.74 g/m*3 4.08 C 11.3 km/h
1821 03-04-2020 08:40:00 6.4 C 5.74 g/m*3 3.8 C 12.9 km/h
1822 03-04-2020 08:45:00 6.6 C 5.81 g/m*3 4.63 C 9.7 km/h
1823 03-04-2020 08:50:00 6.7 C 5.85 g/m*3 4.75 C 9.7 km/h
1824 03-04-2020 08:55:00 6.8 C 5.89 g/m*3 4.87 C 9.7 km/h
1825 03-04-2020 09:00:00 7 C 5.97 g/m*3 5.46 C 8.1 km/h
Sensor: Nr:Datum:Temp:Abs-Feuchte:Windchill:Wind:
Aussen-T/F 1826 03-04-2020 09:05:00 7.1 C 5.93 g/m*3 5.23 C 9.7 km/h
1827 03-04-2020 09:10:00 7.2 C 5.97 g/m*3 5.35 C 9.7 km/h
1828 03-04-2020 09:15:00 7.3 C 6 g/m*3 5.81 C 8.1 km/h
1829 03-04-2020 09:20:00 7.4 C 6.04 g/m*3 6.37 C 6.4 km/h
1830 03-04-2020 09:25:00 7.6 C 6.12 g/m*3 5.82 C 9.7 km/h
1831 03-04-2020 09:30:00 7.7 C 6.16 g/m*3 6.28 C 8.1 km/h
1832 03-04-2020 09:35:00 7.8 C 6.12 g/m*3 5.77 C 11.3 km/h
1833 03-04-2020 09:40:00 7.8 C 6.12 g/m*3 6.83 C 6.4 km/h
1834 03-04-2020 09:45:00 8 C 6.2 g/m*3 8 C 4.8 km/h
1835 03-04-2020 09:50:00 8.1 C 6.24 g/m*3 7.17 C 6.4 km/h
1836 03-04-2020 09:55:00 8.2 C 6.2 g/m*3 7.29 C 6.4 km/h
1837 03-04-2020 10:00:00 8.3 C 6.32 g/m*3 6.99 C 8.1 km/h
1838 03-04-2020 10:05:00 8.5 C 6.4 g/m*3 7.22 C 8.1 km/h
1839 03-04-2020 10:10:00 8.7 C 6.4 g/m*3 7.87 C 6.4 km/h
1840 03-04-2020 10:15:00 8.8 C 6.44 g/m*3 7.58 C 8.1 km/h
1841 03-04-2020 10:20:00 8.9 C 6.48 g/m*3 7.69 C 8.1 km/h
1842 03-04-2020 10:25:00 9.1 C 6.48 g/m*3 7.93 C 8.1 km/h
1843 03-04-2020 10:30:00 9.2 C 6.52 g/m*3 7.73 C 9.7 km/h
1844 03-04-2020 10:35:00 9.2 C 6.52 g/m*3 7.46 C 11.3 km/h
1845 03-04-2020 10:40:00 9.3 C 6.56 g/m*3 8.16 C 8.1 km/h
1846 03-04-2020 10:45:00 9.4 C 6.6 g/m*3 7.97 C 9.7 km/h
1847 03-04-2020 10:50:00 9.6 C 6.6 g/m*3 7.94 C 11.3 km/h
1848 03-04-2020 10:55:00 9.8 C 6.68 g/m*3 7.94 C 12.9 km/h
1849 03-04-2020 11:00:00 9.9 C 6.72 g/m*3 8.56 C 9.7 km/h
1850 03-04-2020 11:05:00 10.3 C 6.8 g/m*3 9.04 C 9.7 km/h
Sensor: Nr:Datum:Temp:Abs-Feuchte:Windchill:Wind:
Aussen-T/F 1851 03-04-2020 11:10:00 10.6 C 6.73 g/m*3 9.4 C 9.7 km/h
1852 03-04-2020 11:15:00 10.8 C 6.82 g/m*3 9.64 C 9.7 km/h
1853 03-04-2020 11:20:00 10.9 C 6.76 g/m*3 9.51 C 11.3 km/h
1854 03-04-2020 11:25:00 10.9 C 6.66 g/m*3 9.51 C 11.3 km/h
1855 03-04-2020 11:30:00 10.8 C 6.52 g/m*3 10.29 C 6.4 km/h
1856 03-04-2020 11:35:00 10.9 C 6.47 g/m*3 10.04 C 8.1 km/h
1857 03-04-2020 11:40:00 11.2 C 6.49 g/m*3 11.2 C 14.5 km/h
1858 03-04-2020 11:45:00 11.3 C 6.43 g/m*3 11.3 C 14.5 km/h
1859 03-04-2020 11:50:00 11.3 C 6.43 g/m*3 11.3 C 12.9 km/h
1860 03-04-2020 11:55:00 11.3 C 6.43 g/m*3 11.3 C 16.1 km/h
1861 03-04-2020 12:00:00 11.2 C 6.39 g/m*3 11.2 C 19.3 km/h
1862 03-04-2020 12:05:00 11.2 C 6.49 g/m*3 11.2 C 11.3 km/h
1863 03-04-2020 12:10:00 11.2 C 6.39 g/m*3 11.2 C 9.7 km/h
1864 03-04-2020 12:15:00 11.2 C 6.39 g/m*3 11.2 C 9.7 km/h
1865 03-04-2020 12:20:00 11.3 C 6.43 g/m*3 11.3 C 9.7 km/h
1866 03-04-2020 12:25:00 11.5 C 6.3 g/m*3 11.5 C 12.9 km/h
1867 03-04-2020 12:30:00 11.7 C 6.38 g/m*3 11.7 C 8.1 km/h
1868 03-04-2020 12:35:00 11.6 C 6.13 g/m*3 11.6 C 12.9 km/h
1869 03-04-2020 12:40:00 11.5 C 6.09 g/m*3 11.5 C 12.9 km/h
1870 03-04-2020 12:45:00 11.3 C 6.22 g/m*3 11.3 C 12.9 km/h
1871 03-04-2020 12:50:00 11.3 C 6.12 g/m*3 11.3 C 11.3 km/h
1872 03-04-2020 12:55:00 11.2 C 6.18 g/m*3 11.2 C 11.3 km/h
1873 03-04-2020 13:00:00 11.2 C 6.28 g/m*3 11.2 C 9.7 km/h
1874 03-04-2020 13:05:00 11.3 C 6.43 g/m*3 11.3 C 11.3 km/h
1875 03-04-2020 13:10:00 11.4 C 6.36 g/m*3 11.4 C 9.7 km/h
Sensor: Nr:Datum:Temp:Abs-Feuchte:Windchill:Wind:
Aussen-T/F 1876 03-04-2020 13:15:00 11.5 C 6.3 g/m*3 11.5 C 12.9 km/h
1877 03-04-2020 13:20:00 11.6 C 6.13 g/m*3 11.6 C 11.3 km/h
1878 03-04-2020 13:25:00 11.7 C 6.17 g/m*3 11.7 C 11.3 km/h
1879 03-04-2020 13:30:00 11.7 C 5.96 g/m*3 11.7 C 12.9 km/h
1880 03-04-2020 13:35:00 11.6 C 6.03 g/m*3 11.6 C 12.9 km/h
1881 03-04-2020 13:40:00 11.6 C 6.03 g/m*3 11.6 C 16.1 km/h
1882 03-04-2020 13:45:00 11.7 C 6.28 g/m*3 11.7 C 8.1 km/h
1883 03-04-2020 13:50:00 11.8 C 6.31 g/m*3 11.8 C 9.7 km/h
1884 03-04-2020 13:55:00 11.8 C 6.1 g/m*3 11.8 C 11.3 km/h
1885 03-04-2020 14:00:00 11.8 C 5.89 g/m*3 11.8 C 11.3 km/h
1886 03-04-2020 14:05:00 11.8 C 5.89 g/m*3 11.8 C 12.9 km/h
1887 03-04-2020 14:10:00 11.7 C 5.86 g/m*3 11.7 C 11.3 km/h
1888 03-04-2020 14:15:00 11.7 C 5.86 g/m*3 11.7 C 12.9 km/h
1889 03-04-2020 14:20:00 11.6 C 5.82 g/m*3 11.6 C 12.9 km/h
1890 03-04-2020 14:25:00 11.6 C 5.92 g/m*3 11.6 C 8.1 km/h
1891 03-04-2020 14:30:00 11.7 C 6.38 g/m*3 11.7 C 6.4 km/h
1892 03-04-2020 14:35:00 11.6 C 6.44 g/m*3 11.6 C 8.1 km/h
1893 03-04-2020 14:40:00 11.6 C 6.24 g/m*3 11.6 C 12.9 km/h
1894 03-04-2020 14:45:00 11.6 C 6.13 g/m*3 11.6 C 9.7 km/h
1895 03-04-2020 14:50:00 11.6 C 5.92 g/m*3 11.6 C 8.1 km/h
1896 03-04-2020 14:55:00 11.7 C 5.86 g/m*3 11.7 C 12.9 km/h
1897 03-04-2020 15:00:00 11.7 C 5.75 g/m*3 11.7 C 11.3 km/h
1898 03-04-2020 15:05:00 11.8 C 5.79 g/m*3 11.8 C 12.9 km/h
1899 03-04-2020 15:10:00 11.8 C 5.79 g/m*3 11.8 C 14.5 km/h
1900 03-04-2020 15:15:00 11.7 C 5.75 g/m*3 11.7 C 12.9 km/h
Sensor: Nr:Datum:Temp:Abs-Feuchte:Windchill:Wind:
Aussen-T/F 1901 03-04-2020 15:20:00 11.7 C 5.65 g/m*3 11.7 C 11.3 km/h
1902 03-04-2020 15:25:00 11.7 C 5.86 g/m*3 11.7 C 9.7 km/h
1903 03-04-2020 15:30:00 11.7 C 6.07 g/m*3 11.7 C 9.7 km/h
1904 03-04-2020 15:35:00 11.7 C 6.07 g/m*3 11.7 C 8.1 km/h
1905 03-04-2020 15:40:00 11.7 C 6.07 g/m*3 11.7 C 8.1 km/h
1906 03-04-2020 15:45:00 11.8 C 6 g/m*3 11.8 C 11.3 km/h
1907 03-04-2020 15:50:00 11.8 C 6.1 g/m*3 11.8 C 11.3 km/h
1908 03-04-2020 15:55:00 11.9 C 5.72 g/m*3 11.9 C 11.3 km/h
1909 03-04-2020 16:00:00 12.1 C 5.79 g/m*3 12.1 C 11.3 km/h
1910 03-04-2020 16:05:00 12.2 C 5.61 g/m*3 12.2 C 11.3 km/h
1911 03-04-2020 16:10:00 12.2 C 5.5 g/m*3 12.2 C 9.7 km/h
1912 03-04-2020 16:15:00 12.3 C 5.43 g/m*3 12.3 C 11.3 km/h
1913 03-04-2020 16:20:00 12.3 C 5.43 g/m*3 12.3 C 12.9 km/h
1914 03-04-2020 16:25:00 12.2 C 5.4 g/m*3 12.2 C 14.5 km/h
1915 03-04-2020 16:30:00 12.2 C 5.5 g/m*3 12.2 C 14.5 km/h
1916 03-04-2020 16:35:00 12.3 C 5.32 g/m*3 12.3 C 12.9 km/h
1917 03-04-2020 16:40:00 12.3 C 5.43 g/m*3 12.3 C 11.3 km/h
1918 03-04-2020 16:45:00 12.3 C 5.32 g/m*3 12.3 C 16.1 km/h
1919 03-04-2020 16:50:00 12.3 C 5.32 g/m*3 12.3 C 9.7 km/h
1920 03-04-2020 16:55:00 12.3 C 5.21 g/m*3 12.3 C 17.7 km/h
1921 03-04-2020 17:00:00 12.1 C 5.15 g/m*3 12.1 C 16.1 km/h
1922 03-04-2020 17:05:00 12.1 C 5.36 g/m*3 12.1 C 11.3 km/h
1923 03-04-2020 17:10:00 12.1 C 5.36 g/m*3 12.1 C 11.3 km/h
1924 03-04-2020 17:15:00 12.1 C 5.25 g/m*3 12.1 C 14.5 km/h
1925 03-04-2020 17:20:00 12.1 C 5.25 g/m*3 12.1 C 14.5 km/h
Sensor: Nr:Datum:Temp:Abs-Feuchte:Windchill:Wind:
Aussen-T/F 1926 03-04-2020 17:25:00 12.2 C 5.29 g/m*3 12.2 C 9.7 km/h
1927 03-04-2020 17:30:00 12.2 C 5.4 g/m*3 12.2 C 9.7 km/h
1928 03-04-2020 17:35:00 12.2 C 5.29 g/m*3 12.2 C 16.1 km/h
1929 03-04-2020 17:40:00 12.3 C 5.21 g/m*3 12.3 C 9.7 km/h
1930 03-04-2020 17:45:00 12.2 C 5.29 g/m*3 12.2 C 11.3 km/h
1931 03-04-2020 17:50:00 12.1 C 5.36 g/m*3 12.1 C 14.5 km/h
1932 03-04-2020 17:55:00 11.9 C 5.3 g/m*3 11.9 C 12.9 km/h
1933 03-04-2020 18:00:00 11.8 C 5.26 g/m*3 11.8 C 14.5 km/h
1934 03-04-2020 18:05:00 11.7 C 5.33 g/m*3 11.7 C 16.1 km/h
1935 03-04-2020 18:10:00 11.7 C 5.33 g/m*3 11.7 C 8.1 km/h
1936 03-04-2020 18:15:00 11.7 C 5.44 g/m*3 11.7 C 9.7 km/h
1937 03-04-2020 18:20:00 11.7 C 5.44 g/m*3 11.7 C 12.9 km/h
1938 03-04-2020 18:25:00 11.6 C 5.51 g/m*3 11.6 C 16.1 km/h
1939 03-04-2020 18:30:00 11.5 C 5.37 g/m*3 11.5 C 9.7 km/h
1940 03-04-2020 18:35:00 11.4 C 5.44 g/m*3 11.4 C 9.7 km/h
1941 03-04-2020 18:40:00 11.4 C 5.34 g/m*3 11.4 C 8.1 km/h
1942 03-04-2020 18:45:00 11.3 C 5.41 g/m*3 11.3 C 9.7 km/h
1943 03-04-2020 18:50:00 11.2 C 5.47 g/m*3 11.2 C 12.9 km/h
1944 03-04-2020 18:55:00 11.2 C 5.47 g/m*3 11.2 C 11.3 km/h
1945 03-04-2020 19:00:00 11.2 C 5.57 g/m*3 11.2 C 9.7 km/h
1946 03-04-2020 19:05:00 11.1 C 5.64 g/m*3 11.1 C 6.4 km/h
1947 03-04-2020 19:10:00 11 C 5.61 g/m*3 9.88 C 9.7 km/h
1948 03-04-2020 19:15:00 10.9 C 5.57 g/m*3 9.51 C 11.3 km/h
1949 03-04-2020 19:20:00 10.8 C 5.63 g/m*3 9.38 C 11.3 km/h
1950 03-04-2020 19:25:00 10.8 C 5.44 g/m*3 9.93 C 8.1 km/h
Sensor: Nr:Datum:Temp:Abs-Feuchte:Windchill:Wind:
Aussen-T/F 1951 03-04-2020 19:30:00 10.7 C 5.4 g/m*3 9.52 C 9.7 km/h
1952 03-04-2020 19:35:00 10.6 C 5.27 g/m*3 8.92 C 12.9 km/h
1953 03-04-2020 19:40:00 10.6 C 5.37 g/m*3 9.4 C 9.7 km/h
1954 03-04-2020 19:45:00 10.4 C 5.3 g/m*3 9.16 C 9.7 km/h
1955 03-04-2020 19:50:00 10.4 C 5.3 g/m*3 9.16 C 9.7 km/h
1956 03-04-2020 19:55:00 10.3 C 5.36 g/m*3 9.34 C 8.1 km/h
1957 03-04-2020 20:00:00 10.3 C 5.36 g/m*3 9.04 C 9.7 km/h
1958 03-04-2020 20:05:00 10.2 C 5.42 g/m*3 10.2 C 3.2 km/h
1959 03-04-2020 20:10:00 10.1 C 5.39 g/m*3 9.1 C 8.1 km/h
1960 03-04-2020 20:15:00 9.9 C 5.32 g/m*3 9.25 C 6.4 km/h
1961 03-04-2020 20:20:00 9.9 C 5.32 g/m*3 9.9 C 4.8 km/h
1962 03-04-2020 20:25:00 9.8 C 5.2 g/m*3 7.94 C 12.9 km/h
1963 03-04-2020 20:30:00 9.8 C 5.1 g/m*3 7.94 C 12.9 km/h
1964 03-04-2020 20:35:00 9.8 C 5.2 g/m*3 9.14 C 6.4 km/h
1965 03-04-2020 20:40:00 9.8 C 5.2 g/m*3 9.8 C 4.8 km/h
1966 03-04-2020 20:45:00 9.7 C 5.16 g/m*3 9.7 C 4.8 km/h
1967 03-04-2020 20:50:00 9.7 C 4.98 g/m*3 9.7 C 3.2 km/h
1968 03-04-2020 20:55:00 9.6 C 5.13 g/m*3 9.6 C 4.8 km/h
1969 03-04-2020 21:00:00 9.6 C 5.04 g/m*3 8.91 C 6.4 km/h
1970 03-04-2020 21:05:00 9.5 C 4.82 g/m*3 7.82 C 11.3 km/h
1971 03-04-2020 21:10:00 9.5 C 4.82 g/m*3 8.4 C 8.1 km/h
1972 03-04-2020 21:15:00 9.5 C 4.82 g/m*3 9.5 C 4.8 km/h
1973 03-04-2020 21:20:00 9.4 C 4.88 g/m*3 8.68 C 6.4 km/h
1974 03-04-2020 21:25:00 9.4 C 4.97 g/m*3 9.4 C 0 km/h
1975 03-04-2020 21:30:00 9.2 C 5.09 g/m*3 9.2 C 1.6 km/h
Sensor: Nr:Datum:Temp:Abs-Feuchte:Windchill:Wind:
Aussen-T/F 1976 03-04-2020 21:35:00 9.1 C 4.88 g/m*3 8.33 C 6.4 km/h
1977 03-04-2020 21:40:00 9 C 4.94 g/m*3 9 C 3.2 km/h
1978 03-04-2020 21:45:00 8.9 C 5.08 g/m*3 8.9 C 3.2 km/h
1979 03-04-2020 21:50:00 8.8 C 5.05 g/m*3 8.8 C 3.2 km/h
1980 03-04-2020 21:55:00 8.8 C 4.96 g/m*3 8.8 C 3.2 km/h
1981 03-04-2020 22:00:00 8.7 C 5.02 g/m*3 8.7 C 4.8 km/h
1982 03-04-2020 22:05:00 8.6 C 4.9 g/m*3 8.6 C 1.6 km/h
1983 03-04-2020 22:10:00 8.6 C 5.07 g/m*3 8.6 C 3.2 km/h
1984 03-04-2020 22:15:00 8.5 C 5.04 g/m*3 8.5 C 3.2 km/h
1985 03-04-2020 22:20:00 8.4 C 5.09 g/m*3 8.4 C 4.8 km/h
1986 03-04-2020 22:25:00 8.2 C 5.11 g/m*3 8.2 C 4.8 km/h
1987 03-04-2020 22:30:00 7.9 C 5.01 g/m*3 7.9 C 3.2 km/h
1988 03-04-2020 22:35:00 7.7 C 5.03 g/m*3 7.7 C 4.8 km/h
1989 03-04-2020 22:40:00 7.5 C 5.04 g/m*3 7.5 C 3.2 km/h
1990 03-04-2020 22:45:00 7.3 C 5.06 g/m*3 7.3 C 4.8 km/h
1991 03-04-2020 22:50:00 7.1 C 4.99 g/m*3 7.1 C 4.8 km/h
1992 03-04-2020 22:55:00 7.1 C 4.91 g/m*3 7.1 C 4.8 km/h
1993 03-04-2020 23:00:00 7 C 4.88 g/m*3 7 C 4.8 km/h
1994 03-04-2020 23:05:00 7 C 4.88 g/m*3 7 C 3.2 km/h
1995 03-04-2020 23:10:00 7.2 C 4.87 g/m*3 7.2 C 4.8 km/h
1996 03-04-2020 23:15:00 7.4 C 4.85 g/m*3 7.4 C 4.8 km/h
1997 03-04-2020 23:20:00 7.6 C 4.99 g/m*3 7.6 C 0 km/h
1998 03-04-2020 23:25:00 7.4 C 4.93 g/m*3 7.4 C 1.6 km/h
1999 03-04-2020 23:30:00 7 C 4.88 g/m*3 7 C 0 km/h
2000 03-04-2020 23:35:00 6.6 C 4.91 g/m*3 6.6 C 4.8 km/h
Sensor: Nr:Datum:Temp:Abs-Feuchte:Windchill:Wind:
Aussen-T/F 2001 03-04-2020 23:40:00 6.4 C 4.84 g/m*3 6.4 C 1.6 km/h
2002 03-04-2020 23:45:00 6.2 C 4.85 g/m*3 6.2 C 0 km/h
2003 03-04-2020 23:50:00 6 C 4.86 g/m*3 6 C 3.2 km/h
2004 03-04-2020 23:55:00 5.8 C 4.8 g/m*3 5.8 C 3.2 km/h

Legende:
   Min
   Max


Maximal/Minimal-Werte vom 28.03.2020 - 03.04.2020

Sensor Min Max Avg
Temp
(Aussen-T/F)
-3.4 °C
30-03-2020  07:55:00
18.6 °C
28-03-2020  15:05:00
5.77 °C
Abs-Feuchte
(Aussen-T/F)
2.46 g/m*3
30-03-2020  12:25:00
7.12 g/m*3
28-03-2020  11:15:00
4.62 g/m*3
Windchill
(Aussen-T/F)
-5.76 C
30-03-2020  06:40:00
18.6 C
28-03-2020  15:05:00
5.02 C

Die Daten stammen von einer Davis Vantage Pro 2 Wetter-Station und werden unter Linux mit der Software wview2wettercgi und aufbereitet. Alle Angaben erfolgen ohne Gewähr für ihre Vollständigkeit oder Richtigkeit.
Kontakt: Rainer Krienke krienke@uni-koblenz.de . Meine Webseiten an der Uni Koblenz oder privat.
Version: $Revision: 0.78 $